<?xml version="1.0" encoding="UTF-8"?>
<gpx version="1.1" creator="2bulu-scraper" xmlns="http://www.topografix.com/GPX/1/1">
  <metadata><name>2026-07-31 08:40:44</name><desc>source: 2bulu.com trackId=87871613; exported 2026-09-01T14:55:29.376Z</desc>
    <bounds minlat="28.903252" minlon="105.423351" maxlat="28.913709" maxlon="105.437677"/>
    <link href="https://www.2bulu.com/track/t-i%252FUydUrr46bp%252FR2KBg5Tzw%253D%253D.htm"><text>2bulu 源页面</text></link>
  </metadata>
  <wpt lat="28.909302" lon="105.427804"><ele>287</ele><name>玉龙苑一二、三夹口</name></wpt>
  <wpt lat="28.909361" lon="105.427295"><ele>287</ele><name></name></wpt>
  <wpt lat="28.909637" lon="105.426108"><ele>283</ele><name></name></wpt>
  <wpt lat="28.909759" lon="105.425954"><ele>283</ele><name></name></wpt>
  <wpt lat="28.909764" lon="105.4259"><ele>280</ele><name></name></wpt>
  <wpt lat="28.90988" lon="105.425471"><ele>279</ele><name>玉龙苑三、四区</name></wpt>
  <wpt lat="28.909971" lon="105.425485"><ele>280</ele><name></name></wpt>
  <wpt lat="28.909964" lon="105.425483"><ele>279</ele><name></name></wpt>
  <wpt lat="28.909919" lon="105.425321"><ele>279</ele><name></name></wpt>
  <wpt lat="28.910017" lon="105.425159"><ele>278</ele><name></name></wpt>
  <wpt lat="28.910177" lon="105.424991"><ele>280</ele><name></name></wpt>
  <wpt lat="28.910404" lon="105.424881"><ele>276</ele><name></name></wpt>
  <wpt lat="28.910606" lon="105.424837"><ele>275</ele><name></name></wpt>
  <wpt lat="28.911028" lon="105.424708"><ele>270</ele><name></name></wpt>
  <wpt lat="28.911033" lon="105.424716"><ele>270</ele><name></name></wpt>
  <wpt lat="28.911056" lon="105.424875"><ele>268</ele><name></name></wpt>
  <wpt lat="28.911054" lon="105.424874"><ele>268</ele><name></name></wpt>
  <wpt lat="28.911158" lon="105.425476"><ele>268</ele><name></name></wpt>
  <wpt lat="28.911249" lon="105.425808"><ele>269</ele><name></name></wpt>
  <wpt lat="28.911244" lon="105.425815"><ele>269</ele><name></name></wpt>
  <wpt lat="28.911278" lon="105.424643"><ele>271</ele><name></name></wpt>
  <wpt lat="28.910978" lon="105.424967"><ele>269</ele><name></name></wpt>
  <wpt lat="28.910797" lon="105.425225"><ele>270</ele><name></name></wpt>
  <wpt lat="28.911651" lon="105.425155"><ele>267</ele><name></name></wpt>
  <wpt lat="28.911658" lon="105.425157"><ele>266</ele><name></name></wpt>
  <wpt lat="28.911797" lon="105.425308"><ele>269</ele><name></name></wpt>
  <wpt lat="28.911693" lon="105.425591"><ele>268</ele><name></name></wpt>
  <wpt lat="28.911666" lon="105.425611"><ele>267</ele><name></name></wpt>
  <wpt lat="28.911636" lon="105.42561"><ele>268</ele><name></name></wpt>
  <wpt lat="28.911601" lon="105.425591"><ele>268</ele><name></name></wpt>
  <wpt lat="28.913328" lon="105.424325"><ele>267</ele><name></name></wpt>
  <wpt lat="28.913422" lon="105.424291"><ele>268</ele><name>四区三栋</name></wpt>
  <wpt lat="28.913398" lon="105.424322"><ele>268</ele><name></name></wpt>
  <wpt lat="28.913423" lon="105.424303"><ele>267</ele><name></name></wpt>
  <wpt lat="28.913423" lon="105.42431"><ele>268</ele><name></name></wpt>
  <wpt lat="28.913178" lon="105.423455"><ele>268</ele><name>玉龙苑3区34栋</name></wpt>
  <wpt lat="28.913173" lon="105.423448"><ele>268</ele><name></name></wpt>
  <wpt lat="28.913243" lon="105.423427"><ele>268</ele><name></name></wpt>
  <wpt lat="28.913254" lon="105.423454"><ele>267</ele><name></name></wpt>
  <wpt lat="28.913333" lon="105.423448"><ele>268</ele><name></name></wpt>
  <wpt lat="28.913391" lon="105.423449"><ele>267</ele><name></name></wpt>
  <wpt lat="28.909959" lon="105.425171"><ele>278</ele><name></name></wpt>
  <wpt lat="28.909889" lon="105.425303"><ele>280</ele><name></name></wpt>
  <wpt lat="28.908088" lon="105.436672"><ele>297</ele><name>永兴巷</name></wpt>
  <trk><name>2026-07-31 08:40:44</name>
      <trkseg>
        <trkpt lat="28.909262" lon="105.428239"><ele>287.89523</ele><time>2026-07-30T16:40:44.000Z</time></trkpt>
        <trkpt lat="28.909259" lon="105.428189"><ele>287.63007</ele><time>2026-07-30T16:40:55.000Z</time></trkpt>
        <trkpt lat="28.909257" lon="105.428165"><ele>287.515</ele><time>2026-07-30T16:40:57.000Z</time></trkpt>
        <trkpt lat="28.909257" lon="105.428136"><ele>287.6094</ele><time>2026-07-30T16:40:59.000Z</time></trkpt>
        <trkpt lat="28.909257" lon="105.428106"><ele>287.46008</ele><time>2026-07-30T16:41:01.000Z</time></trkpt>
        <trkpt lat="28.90926" lon="105.428076"><ele>287.37445</ele><time>2026-07-30T16:41:03.000Z</time></trkpt>
        <trkpt lat="28.909263" lon="105.428049"><ele>287.2487</ele><time>2026-07-30T16:41:05.000Z</time></trkpt>
        <trkpt lat="28.909268" lon="105.428023"><ele>287.25537</ele><time>2026-07-30T16:41:07.000Z</time></trkpt>
        <trkpt lat="28.909272" lon="105.427998"><ele>287.05542</ele><time>2026-07-30T16:41:09.000Z</time></trkpt>
        <trkpt lat="28.909276" lon="105.427973"><ele>286.76352</ele><time>2026-07-30T16:41:11.000Z</time></trkpt>
        <trkpt lat="28.909279" lon="105.427949"><ele>286.71628</ele><time>2026-07-30T16:41:13.000Z</time></trkpt>
        <trkpt lat="28.909284" lon="105.427924"><ele>286.6681</ele><time>2026-07-30T16:41:15.000Z</time></trkpt>
        <trkpt lat="28.909289" lon="105.427898"><ele>286.59726</ele><time>2026-07-30T16:41:17.000Z</time></trkpt>
        <trkpt lat="28.909294" lon="105.427872"><ele>286.65393</ele><time>2026-07-30T16:41:19.000Z</time></trkpt>
        <trkpt lat="28.909299" lon="105.427847"><ele>286.57938</ele><time>2026-07-30T16:41:21.000Z</time></trkpt>
        <trkpt lat="28.909302" lon="105.427821"><ele>286.6582</ele><time>2026-07-30T16:41:23.000Z</time></trkpt>
        <trkpt lat="28.909306" lon="105.427799"><ele>286.66187</ele><time>2026-07-30T16:41:25.000Z</time></trkpt>
        <trkpt lat="28.909311" lon="105.427778"><ele>287.03387</ele><time>2026-07-30T16:41:27.000Z</time></trkpt>
        <trkpt lat="28.909315" lon="105.427757"><ele>287.604</ele><time>2026-07-30T16:41:29.000Z</time></trkpt>
        <trkpt lat="28.909318" lon="105.427734"><ele>286.64578</ele><time>2026-07-30T16:41:31.000Z</time></trkpt>
        <trkpt lat="28.909321" lon="105.427712"><ele>286.88715</ele><time>2026-07-30T16:41:33.000Z</time></trkpt>
        <trkpt lat="28.909323" lon="105.42769"><ele>286.63712</ele><time>2026-07-30T16:41:35.000Z</time></trkpt>
        <trkpt lat="28.909324" lon="105.427673"><ele>286.56107</ele><time>2026-07-30T16:41:37.000Z</time></trkpt>
        <trkpt lat="28.909324" lon="105.427665"><ele>286.38174</ele><time>2026-07-30T16:41:39.000Z</time></trkpt>
        <trkpt lat="28.909324" lon="105.427657"><ele>285.99194</ele><time>2026-07-30T16:41:41.000Z</time></trkpt>
        <trkpt lat="28.909325" lon="105.427649"><ele>285.92648</ele><time>2026-07-30T16:41:43.000Z</time></trkpt>
        <trkpt lat="28.909325" lon="105.427601"><ele>285.85144</ele><time>2026-07-30T16:41:57.000Z</time></trkpt>
        <trkpt lat="28.909325" lon="105.427601"><ele>286.03497</ele><time>2026-07-30T16:41:59.000Z</time></trkpt>
        <trkpt lat="28.909326" lon="105.427595"><ele>286.75412</ele><time>2026-07-30T16:42:01.000Z</time></trkpt>
        <trkpt lat="28.909329" lon="105.427526"><ele>286.14468</ele><time>2026-07-30T16:42:07.000Z</time></trkpt>
        <trkpt lat="28.909328" lon="105.4275"><ele>286.11127</ele><time>2026-07-30T16:42:09.000Z</time></trkpt>
        <trkpt lat="28.909325" lon="105.427474"><ele>287.39435</ele><time>2026-07-30T16:42:11.000Z</time></trkpt>
        <trkpt lat="28.909324" lon="105.427447"><ele>287.19714</ele><time>2026-07-30T16:42:13.000Z</time></trkpt>
        <trkpt lat="28.909326" lon="105.427422"><ele>287.38525</ele><time>2026-07-30T16:42:15.000Z</time></trkpt>
        <trkpt lat="28.90933" lon="105.427398"><ele>287.1316</ele><time>2026-07-30T16:42:17.000Z</time></trkpt>
        <trkpt lat="28.909336" lon="105.427372"><ele>287.35498</ele><time>2026-07-30T16:42:19.000Z</time></trkpt>
        <trkpt lat="28.909341" lon="105.427346"><ele>286.94708</ele><time>2026-07-30T16:42:21.000Z</time></trkpt>
        <trkpt lat="28.909348" lon="105.427322"><ele>286.77155</ele><time>2026-07-30T16:42:23.000Z</time></trkpt>
        <trkpt lat="28.909354" lon="105.427302"><ele>286.7956</ele><time>2026-07-30T16:42:25.000Z</time></trkpt>
        <trkpt lat="28.909355" lon="105.427288"><ele>286.92615</ele><time>2026-07-30T16:42:27.000Z</time></trkpt>
        <trkpt lat="28.909357" lon="105.427258"><ele>285.90652</ele><time>2026-07-30T16:42:37.000Z</time></trkpt>
        <trkpt lat="28.909359" lon="105.427245"><ele>285.6829</ele><time>2026-07-30T16:42:39.000Z</time></trkpt>
        <trkpt lat="28.909363" lon="105.42723"><ele>285.74106</ele><time>2026-07-30T16:42:41.000Z</time></trkpt>
        <trkpt lat="28.909371" lon="105.427189"><ele>285.80322</ele><time>2026-07-30T16:42:45.000Z</time></trkpt>
        <trkpt lat="28.909374" lon="105.427171"><ele>285.3837</ele><time>2026-07-30T16:42:47.000Z</time></trkpt>
        <trkpt lat="28.909376" lon="105.42715"><ele>285.95203</ele><time>2026-07-30T16:42:49.000Z</time></trkpt>
        <trkpt lat="28.909368" lon="105.42713"><ele>286.13177</ele><time>2026-07-30T16:42:53.000Z</time></trkpt>
        <trkpt lat="28.909358" lon="105.427117"><ele>286.42288</ele><time>2026-07-30T16:42:57.000Z</time></trkpt>
        <trkpt lat="28.909355" lon="105.427108"><ele>285.96136</ele><time>2026-07-30T16:42:59.000Z</time></trkpt>
        <trkpt lat="28.909359" lon="105.427083"><ele>286.7934</ele><time>2026-07-30T16:44:02.000Z</time></trkpt>
        <trkpt lat="28.909369" lon="105.427046"><ele>286.51608</ele><time>2026-07-30T16:44:32.000Z</time></trkpt>
        <trkpt lat="28.909374" lon="105.42703"><ele>286.56326</ele><time>2026-07-30T16:44:34.000Z</time></trkpt>
        <trkpt lat="28.909374" lon="105.427029"><ele>286.37906</ele><time>2026-07-30T16:44:36.000Z</time></trkpt>
        <trkpt lat="28.9094" lon="105.427001"><ele>286.23807</ele><time>2026-07-30T16:44:53.000Z</time></trkpt>
        <trkpt lat="28.909441" lon="105.426946"><ele>284.0044</ele><time>2026-07-30T16:45:26.000Z</time></trkpt>
        <trkpt lat="28.909449" lon="105.426935"><ele>283.8568</ele><time>2026-07-30T16:45:28.000Z</time></trkpt>
        <trkpt lat="28.909449" lon="105.426934"><ele>283.92838</ele><time>2026-07-30T16:45:30.000Z</time></trkpt>
        <trkpt lat="28.909464" lon="105.426868"><ele>284.20322</ele><time>2026-07-30T16:45:45.000Z</time></trkpt>
        <trkpt lat="28.909465" lon="105.426864"><ele>284.38705</ele><time>2026-07-30T16:45:49.000Z</time></trkpt>
        <trkpt lat="28.909474" lon="105.426851"><ele>284.038</ele><time>2026-07-30T16:45:51.000Z</time></trkpt>
        <trkpt lat="28.909508" lon="105.426807"><ele>284.30313</ele><time>2026-07-30T16:45:55.000Z</time></trkpt>
        <trkpt lat="28.90952" lon="105.426797"><ele>284.1287</ele><time>2026-07-30T16:45:57.000Z</time></trkpt>
        <trkpt lat="28.909523" lon="105.426788"><ele>284.2926</ele><time>2026-07-30T16:45:59.000Z</time></trkpt>
        <trkpt lat="28.909528" lon="105.426758"><ele>283.88315</ele><time>2026-07-30T16:46:05.000Z</time></trkpt>
        <trkpt lat="28.909532" lon="105.42673"><ele>283.88452</ele><time>2026-07-30T16:46:09.000Z</time></trkpt>
        <trkpt lat="28.909535" lon="105.426713"><ele>284.16443</ele><time>2026-07-30T16:46:11.000Z</time></trkpt>
        <trkpt lat="28.909538" lon="105.426695"><ele>284.4173</ele><time>2026-07-30T16:46:13.000Z</time></trkpt>
        <trkpt lat="28.909543" lon="105.426674"><ele>283.97083</ele><time>2026-07-30T16:46:15.000Z</time></trkpt>
        <trkpt lat="28.909546" lon="105.426655"><ele>284.0177</ele><time>2026-07-30T16:46:17.000Z</time></trkpt>
        <trkpt lat="28.90955" lon="105.426633"><ele>284.09323</ele><time>2026-07-30T16:46:19.000Z</time></trkpt>
        <trkpt lat="28.909555" lon="105.426611"><ele>283.52222</ele><time>2026-07-30T16:46:21.000Z</time></trkpt>
        <trkpt lat="28.90956" lon="105.426592"><ele>284.2634</ele><time>2026-07-30T16:46:23.000Z</time></trkpt>
        <trkpt lat="28.909565" lon="105.426575"><ele>284.2558</ele><time>2026-07-30T16:46:25.000Z</time></trkpt>
        <trkpt lat="28.909567" lon="105.426565"><ele>284.28754</ele><time>2026-07-30T16:46:27.000Z</time></trkpt>
        <trkpt lat="28.909566" lon="105.426556"><ele>284.61636</ele><time>2026-07-30T16:46:33.000Z</time></trkpt>
        <trkpt lat="28.90956" lon="105.426532"><ele>283.85205</ele><time>2026-07-30T16:46:39.000Z</time></trkpt>
        <trkpt lat="28.909557" lon="105.426519"><ele>283.83792</ele><time>2026-07-30T16:46:41.000Z</time></trkpt>
        <trkpt lat="28.909557" lon="105.426518"><ele>282.8831</ele><time>2026-07-30T16:46:43.000Z</time></trkpt>
        <trkpt lat="28.909554" lon="105.426497"><ele>282.93268</ele><time>2026-07-30T16:46:47.000Z</time></trkpt>
        <trkpt lat="28.909552" lon="105.426477"><ele>283.25885</ele><time>2026-07-30T16:46:49.000Z</time></trkpt>
        <trkpt lat="28.909548" lon="105.426459"><ele>283.6979</ele><time>2026-07-30T16:46:51.000Z</time></trkpt>
        <trkpt lat="28.909546" lon="105.426449"><ele>283.75516</ele><time>2026-07-30T16:46:53.000Z</time></trkpt>
        <trkpt lat="28.909547" lon="105.426446"><ele>283.7616</ele><time>2026-07-30T16:46:55.000Z</time></trkpt>
        <trkpt lat="28.909555" lon="105.426422"><ele>283.21558</ele><time>2026-07-30T16:46:59.000Z</time></trkpt>
        <trkpt lat="28.909556" lon="105.426419"><ele>283.19354</ele><time>2026-07-30T16:47:03.000Z</time></trkpt>
        <trkpt lat="28.909556" lon="105.426408"><ele>282.93164</ele><time>2026-07-30T16:47:05.000Z</time></trkpt>
        <trkpt lat="28.909556" lon="105.426391"><ele>282.6491</ele><time>2026-07-30T16:47:07.000Z</time></trkpt>
        <trkpt lat="28.909555" lon="105.426378"><ele>282.73074</ele><time>2026-07-30T16:47:09.000Z</time></trkpt>
        <trkpt lat="28.909554" lon="105.42637"><ele>282.77618</ele><time>2026-07-30T16:47:11.000Z</time></trkpt>
        <trkpt lat="28.909555" lon="105.426363"><ele>282.7</ele><time>2026-07-30T16:47:15.000Z</time></trkpt>
        <trkpt lat="28.90956" lon="105.426358"><ele>282.3343</ele><time>2026-07-30T16:47:19.000Z</time></trkpt>
        <trkpt lat="28.909563" lon="105.426349"><ele>282.84747</ele><time>2026-07-30T16:47:33.000Z</time></trkpt>
        <trkpt lat="28.909571" lon="105.426325"><ele>282.51428</ele><time>2026-07-30T16:47:35.000Z</time></trkpt>
        <trkpt lat="28.909571" lon="105.426323"><ele>282.84573</ele><time>2026-07-30T16:47:37.000Z</time></trkpt>
        <trkpt lat="28.909577" lon="105.426267"><ele>283.71576</ele><time>2026-07-30T16:47:40.000Z</time></trkpt>
        <trkpt lat="28.909577" lon="105.426267"><ele>283.60593</ele><time>2026-07-30T16:47:42.000Z</time></trkpt>
        <trkpt lat="28.909578" lon="105.426263"><ele>283.20178</ele><time>2026-07-30T16:47:44.000Z</time></trkpt>
        <trkpt lat="28.909593" lon="105.426223"><ele>282.81525</ele><time>2026-07-30T16:47:48.000Z</time></trkpt>
        <trkpt lat="28.909599" lon="105.426202"><ele>282.82764</ele><time>2026-07-30T16:47:50.000Z</time></trkpt>
        <trkpt lat="28.909603" lon="105.426189"><ele>282.83148</ele><time>2026-07-30T16:47:52.000Z</time></trkpt>
        <trkpt lat="28.909603" lon="105.426183"><ele>282.83505</ele><time>2026-07-30T16:47:54.000Z</time></trkpt>
        <trkpt lat="28.909605" lon="105.426175"><ele>282.72284</ele><time>2026-07-30T16:47:58.000Z</time></trkpt>
        <trkpt lat="28.909618" lon="105.426155"><ele>282.50266</ele><time>2026-07-30T16:48:14.000Z</time></trkpt>
        <trkpt lat="28.909628" lon="105.426141"><ele>283.00003</ele><time>2026-07-30T16:48:16.000Z</time></trkpt>
        <trkpt lat="28.909628" lon="105.426139"><ele>282.86588</ele><time>2026-07-30T16:48:18.000Z</time></trkpt>
        <trkpt lat="28.909643" lon="105.426102"><ele>282.81262</ele><time>2026-07-30T16:48:28.000Z</time></trkpt>
        <trkpt lat="28.909648" lon="105.426082"><ele>282.5577</ele><time>2026-07-30T16:48:34.000Z</time></trkpt>
        <trkpt lat="28.909649" lon="105.426081"><ele>282.44104</ele><time>2026-07-30T16:48:36.000Z</time></trkpt>
        <trkpt lat="28.90969" lon="105.426056"><ele>281.73917</ele><time>2026-07-30T16:48:48.000Z</time></trkpt>
        <trkpt lat="28.909706" lon="105.426046"><ele>282.06235</ele><time>2026-07-30T16:48:50.000Z</time></trkpt>
        <trkpt lat="28.909707" lon="105.426045"><ele>282.10312</ele><time>2026-07-30T16:48:52.000Z</time></trkpt>
        <trkpt lat="28.909721" lon="105.425999"><ele>281.69434</ele><time>2026-07-30T16:49:05.000Z</time></trkpt>
        <trkpt lat="28.909726" lon="105.425981"><ele>281.68024</ele><time>2026-07-30T16:49:09.000Z</time></trkpt>
        <trkpt lat="28.909727" lon="105.42598"><ele>281.65723</ele><time>2026-07-30T16:49:11.000Z</time></trkpt>
        <trkpt lat="28.909764" lon="105.425953"><ele>281.99646</ele><time>2026-07-30T16:49:54.000Z</time></trkpt>
        <trkpt lat="28.909795" lon="105.425966"><ele>281.54352</ele><time>2026-07-30T16:49:58.000Z</time></trkpt>
        <trkpt lat="28.909809" lon="105.425972"><ele>281.4765</ele><time>2026-07-30T16:50:00.000Z</time></trkpt>
        <trkpt lat="28.909835" lon="105.425982"><ele>281.0175</ele><time>2026-07-30T16:50:03.000Z</time></trkpt>
        <trkpt lat="28.909843" lon="105.42599"><ele>280.57874</ele><time>2026-07-30T16:50:09.000Z</time></trkpt>
        <trkpt lat="28.909768" lon="105.42592"><ele>280.4773</ele><time>2026-07-30T16:50:25.000Z</time></trkpt>
        <trkpt lat="28.909768" lon="105.42592"><ele>280.70413</ele><time>2026-07-30T16:50:27.000Z</time></trkpt>
        <trkpt lat="28.909768" lon="105.425919"><ele>280.74814</ele><time>2026-07-30T16:50:29.000Z</time></trkpt>
        <trkpt lat="28.909769" lon="105.425857"><ele>280.073</ele><time>2026-07-30T16:50:35.000Z</time></trkpt>
        <trkpt lat="28.909769" lon="105.425857"><ele>280.02057</ele><time>2026-07-30T16:50:37.000Z</time></trkpt>
        <trkpt lat="28.90977" lon="105.425851"><ele>279.955</ele><time>2026-07-30T16:50:39.000Z</time></trkpt>
        <trkpt lat="28.90978" lon="105.425797"><ele>279.93964</ele><time>2026-07-30T16:50:43.000Z</time></trkpt>
        <trkpt lat="28.909786" lon="105.425767"><ele>279.78464</ele><time>2026-07-30T16:50:45.000Z</time></trkpt>
        <trkpt lat="28.90979" lon="105.425738"><ele>279.3879</ele><time>2026-07-30T16:50:47.000Z</time></trkpt>
        <trkpt lat="28.909792" lon="105.425711"><ele>279.3834</ele><time>2026-07-30T16:50:49.000Z</time></trkpt>
        <trkpt lat="28.909793" lon="105.425686"><ele>278.82135</ele><time>2026-07-30T16:50:51.000Z</time></trkpt>
        <trkpt lat="28.909793" lon="105.425663"><ele>278.43506</ele><time>2026-07-30T16:50:53.000Z</time></trkpt>
        <trkpt lat="28.90979" lon="105.425642"><ele>278.0453</ele><time>2026-07-30T16:50:55.000Z</time></trkpt>
        <trkpt lat="28.909786" lon="105.425618"><ele>277.37506</ele><time>2026-07-30T16:50:57.000Z</time></trkpt>
        <trkpt lat="28.909784" lon="105.425596"><ele>277.33536</ele><time>2026-07-30T16:50:59.000Z</time></trkpt>
        <trkpt lat="28.909782" lon="105.425573"><ele>277.44446</ele><time>2026-07-30T16:51:01.000Z</time></trkpt>
        <trkpt lat="28.909781" lon="105.425549"><ele>277.29926</ele><time>2026-07-30T16:51:03.000Z</time></trkpt>
        <trkpt lat="28.909784" lon="105.425526"><ele>277.37167</ele><time>2026-07-30T16:51:05.000Z</time></trkpt>
        <trkpt lat="28.909788" lon="105.425504"><ele>277.3494</ele><time>2026-07-30T16:51:07.000Z</time></trkpt>
        <trkpt lat="28.909796" lon="105.425488"><ele>277.34863</ele><time>2026-07-30T16:51:09.000Z</time></trkpt>
        <trkpt lat="28.909802" lon="105.425483"><ele>278.50037</ele><time>2026-07-30T16:51:11.000Z</time></trkpt>
        <trkpt lat="28.909808" lon="105.425481"><ele>278.25046</ele><time>2026-07-30T16:51:13.000Z</time></trkpt>
        <trkpt lat="28.909826" lon="105.425479"><ele>278.32114</ele><time>2026-07-30T16:51:20.000Z</time></trkpt>
        <trkpt lat="28.909845" lon="105.425476"><ele>278.46683</ele><time>2026-07-30T16:51:22.000Z</time></trkpt>
        <trkpt lat="28.909846" lon="105.425476"><ele>278.74878</ele><time>2026-07-30T16:51:24.000Z</time></trkpt>
        <trkpt lat="28.909857" lon="105.425475"><ele>278.9421</ele><time>2026-07-30T16:51:28.000Z</time></trkpt>
        <trkpt lat="28.909893" lon="105.425474"><ele>279.2685</ele><time>2026-07-30T16:51:32.000Z</time></trkpt>
        <trkpt lat="28.909916" lon="105.425475"><ele>279.33066</ele><time>2026-07-30T16:51:34.000Z</time></trkpt>
        <trkpt lat="28.909937" lon="105.425477"><ele>279.35602</ele><time>2026-07-30T16:51:36.000Z</time></trkpt>
        <trkpt lat="28.909956" lon="105.42548"><ele>279.17297</ele><time>2026-07-30T16:51:38.000Z</time></trkpt>
        <trkpt lat="28.909965" lon="105.425481"><ele>279.5387</ele><time>2026-07-30T16:51:40.000Z</time></trkpt>
        <trkpt lat="28.909969" lon="105.425482"><ele>279.85657</ele><time>2026-07-30T16:51:42.000Z</time></trkpt>
        <trkpt lat="28.909991" lon="105.425488"><ele>279.55737</ele><time>2026-07-30T16:51:47.000Z</time></trkpt>
        <trkpt lat="28.909995" lon="105.425488"><ele>279.87106</ele><time>2026-07-30T16:51:52.000Z</time></trkpt>
        <trkpt lat="28.910009" lon="105.425488"><ele>279.54742</ele><time>2026-07-30T16:51:54.000Z</time></trkpt>
        <trkpt lat="28.910032" lon="105.425488"><ele>280.01376</ele><time>2026-07-30T16:51:56.000Z</time></trkpt>
        <trkpt lat="28.910056" lon="105.425486"><ele>279.45782</ele><time>2026-07-30T16:51:58.000Z</time></trkpt>
        <trkpt lat="28.910078" lon="105.425484"><ele>279.31702</ele><time>2026-07-30T16:52:00.000Z</time></trkpt>
        <trkpt lat="28.910097" lon="105.425484"><ele>279.1469</ele><time>2026-07-30T16:52:02.000Z</time></trkpt>
        <trkpt lat="28.910116" lon="105.425485"><ele>278.60403</ele><time>2026-07-30T16:52:04.000Z</time></trkpt>
        <trkpt lat="28.910133" lon="105.425488"><ele>278.11462</ele><time>2026-07-30T16:52:06.000Z</time></trkpt>
        <trkpt lat="28.910149" lon="105.425493"><ele>277.93814</ele><time>2026-07-30T16:52:08.000Z</time></trkpt>
        <trkpt lat="28.910164" lon="105.4255"><ele>277.66138</ele><time>2026-07-30T16:52:10.000Z</time></trkpt>
        <trkpt lat="28.91018" lon="105.425509"><ele>277.4362</ele><time>2026-07-30T16:52:12.000Z</time></trkpt>
        <trkpt lat="28.910194" lon="105.425519"><ele>276.90326</ele><time>2026-07-30T16:52:14.000Z</time></trkpt>
        <trkpt lat="28.910209" lon="105.425528"><ele>276.3229</ele><time>2026-07-30T16:52:16.000Z</time></trkpt>
        <trkpt lat="28.910223" lon="105.425537"><ele>275.95636</ele><time>2026-07-30T16:52:18.000Z</time></trkpt>
        <trkpt lat="28.910238" lon="105.425546"><ele>275.80945</ele><time>2026-07-30T16:52:20.000Z</time></trkpt>
        <trkpt lat="28.910254" lon="105.425556"><ele>275.66534</ele><time>2026-07-30T16:52:22.000Z</time></trkpt>
        <trkpt lat="28.91027" lon="105.425566"><ele>275.26212</ele><time>2026-07-30T16:52:24.000Z</time></trkpt>
        <trkpt lat="28.910283" lon="105.425577"><ele>274.95517</ele><time>2026-07-30T16:52:26.000Z</time></trkpt>
        <trkpt lat="28.910296" lon="105.425587"><ele>274.7754</ele><time>2026-07-30T16:52:28.000Z</time></trkpt>
        <trkpt lat="28.910309" lon="105.425599"><ele>274.95517</ele><time>2026-07-30T16:52:30.000Z</time></trkpt>
        <trkpt lat="28.910323" lon="105.425612"><ele>274.87982</ele><time>2026-07-30T16:52:32.000Z</time></trkpt>
        <trkpt lat="28.910335" lon="105.425627"><ele>274.5797</ele><time>2026-07-30T16:52:34.000Z</time></trkpt>
        <trkpt lat="28.910344" lon="105.425638"><ele>274.64032</ele><time>2026-07-30T16:52:36.000Z</time></trkpt>
        <trkpt lat="28.910351" lon="105.425648"><ele>274.34634</ele><time>2026-07-30T16:52:38.000Z</time></trkpt>
        <trkpt lat="28.910358" lon="105.425658"><ele>274.43848</ele><time>2026-07-30T16:52:40.000Z</time></trkpt>
        <trkpt lat="28.910364" lon="105.42567"><ele>273.8413</ele><time>2026-07-30T16:52:42.000Z</time></trkpt>
        <trkpt lat="28.910368" lon="105.42568"><ele>273.45895</ele><time>2026-07-30T16:52:44.000Z</time></trkpt>
        <trkpt lat="28.910369" lon="105.425686"><ele>274.15778</ele><time>2026-07-30T16:52:46.000Z</time></trkpt>
        <trkpt lat="28.910369" lon="105.425692"><ele>274.36703</ele><time>2026-07-30T16:52:48.000Z</time></trkpt>
        <trkpt lat="28.91037" lon="105.425711"><ele>274.85498</ele><time>2026-07-30T16:52:50.000Z</time></trkpt>
        <trkpt lat="28.910368" lon="105.425715"><ele>274.35684</ele><time>2026-07-30T16:52:56.000Z</time></trkpt>
        <trkpt lat="28.910368" lon="105.425715"><ele>274.22556</ele><time>2026-07-30T16:52:58.000Z</time></trkpt>
        <trkpt lat="28.910351" lon="105.425679"><ele>274.70053</ele><time>2026-07-30T16:53:02.000Z</time></trkpt>
        <trkpt lat="28.910351" lon="105.425679"><ele>274.75845</ele><time>2026-07-30T16:53:04.000Z</time></trkpt>
        <trkpt lat="28.910347" lon="105.425675"><ele>274.9633</ele><time>2026-07-30T16:53:06.000Z</time></trkpt>
        <trkpt lat="28.910321" lon="105.425647"><ele>275.324</ele><time>2026-07-30T16:53:10.000Z</time></trkpt>
        <trkpt lat="28.910314" lon="105.425635"><ele>275.33734</ele><time>2026-07-30T16:53:12.000Z</time></trkpt>
        <trkpt lat="28.910308" lon="105.425625"><ele>274.6785</ele><time>2026-07-30T16:53:14.000Z</time></trkpt>
        <trkpt lat="28.9103" lon="105.425617"><ele>274.54187</ele><time>2026-07-30T16:53:16.000Z</time></trkpt>
        <trkpt lat="28.910291" lon="105.425609"><ele>274.3433</ele><time>2026-07-30T16:53:18.000Z</time></trkpt>
        <trkpt lat="28.910279" lon="105.425601"><ele>274.4909</ele><time>2026-07-30T16:53:20.000Z</time></trkpt>
        <trkpt lat="28.910267" lon="105.425591"><ele>274.4418</ele><time>2026-07-30T16:53:22.000Z</time></trkpt>
        <trkpt lat="28.910252" lon="105.425582"><ele>274.55078</ele><time>2026-07-30T16:53:24.000Z</time></trkpt>
        <trkpt lat="28.910238" lon="105.425574"><ele>275.28714</ele><time>2026-07-30T16:53:25.000Z</time></trkpt>
        <trkpt lat="28.910222" lon="105.425567"><ele>274.9396</ele><time>2026-07-30T16:53:27.000Z</time></trkpt>
        <trkpt lat="28.910205" lon="105.42556"><ele>275.33948</ele><time>2026-07-30T16:53:29.000Z</time></trkpt>
        <trkpt lat="28.910189" lon="105.425556"><ele>275.21524</ele><time>2026-07-30T16:53:31.000Z</time></trkpt>
        <trkpt lat="28.91017" lon="105.425551"><ele>274.9497</ele><time>2026-07-30T16:53:33.000Z</time></trkpt>
        <trkpt lat="28.910152" lon="105.425548"><ele>275.67435</ele><time>2026-07-30T16:53:35.000Z</time></trkpt>
        <trkpt lat="28.910143" lon="105.425546"><ele>275.49527</ele><time>2026-07-30T16:53:37.000Z</time></trkpt>
        <trkpt lat="28.91014" lon="105.425546"><ele>275.59488</ele><time>2026-07-30T16:53:39.000Z</time></trkpt>
        <trkpt lat="28.910104" lon="105.425536"><ele>276.82327</ele><time>2026-07-30T16:54:34.000Z</time></trkpt>
        <trkpt lat="28.910048" lon="105.425527"><ele>277.41684</ele><time>2026-07-30T16:54:38.000Z</time></trkpt>
        <trkpt lat="28.910029" lon="105.425516"><ele>277.22018</ele><time>2026-07-30T16:54:40.000Z</time></trkpt>
        <trkpt lat="28.909994" lon="105.425496"><ele>277.65927</ele><time>2026-07-30T16:54:43.000Z</time></trkpt>
        <trkpt lat="28.909994" lon="105.425496"><ele>278.30222</ele><time>2026-07-30T16:54:45.000Z</time></trkpt>
        <trkpt lat="28.909976" lon="105.42549"><ele>280.38736</ele><time>2026-07-30T16:54:49.000Z</time></trkpt>
        <trkpt lat="28.909923" lon="105.425472"><ele>280.2614</ele><time>2026-07-30T16:54:57.000Z</time></trkpt>
        <trkpt lat="28.909923" lon="105.425472"><ele>281.08737</ele><time>2026-07-30T16:54:59.000Z</time></trkpt>
        <trkpt lat="28.909921" lon="105.425471"><ele>280.53415</ele><time>2026-07-30T16:55:01.000Z</time></trkpt>
        <trkpt lat="28.909967" lon="105.425477"><ele>279.07654</ele><time>2026-07-30T16:55:16.000Z</time></trkpt>
        <trkpt lat="28.909975" lon="105.425477"><ele>279.09848</ele><time>2026-07-30T16:55:18.000Z</time></trkpt>
        <trkpt lat="28.909982" lon="105.425473"><ele>278.96637</ele><time>2026-07-30T16:55:20.000Z</time></trkpt>
        <trkpt lat="28.910005" lon="105.425454"><ele>279.26373</ele><time>2026-07-30T16:55:26.000Z</time></trkpt>
        <trkpt lat="28.91001" lon="105.425445"><ele>279.08966</ele><time>2026-07-30T16:55:28.000Z</time></trkpt>
        <trkpt lat="28.910019" lon="105.425441"><ele>278.58124</ele><time>2026-07-30T16:55:30.000Z</time></trkpt>
        <trkpt lat="28.909944" lon="105.425469"><ele>278.40598</ele><time>2026-07-30T16:56:11.000Z</time></trkpt>
        <trkpt lat="28.909928" lon="105.425472"><ele>278.53253</ele><time>2026-07-30T16:56:13.000Z</time></trkpt>
        <trkpt lat="28.909914" lon="105.425469"><ele>278.4603</ele><time>2026-07-30T16:56:15.000Z</time></trkpt>
        <trkpt lat="28.90989" lon="105.425454"><ele>278.76688</ele><time>2026-07-30T16:56:18.000Z</time></trkpt>
        <trkpt lat="28.909882" lon="105.425441"><ele>279.20926</ele><time>2026-07-30T16:56:24.000Z</time></trkpt>
        <trkpt lat="28.909879" lon="105.425423"><ele>279.85742</ele><time>2026-07-30T16:56:26.000Z</time></trkpt>
        <trkpt lat="28.90988" lon="105.425403"><ele>280.41135</ele><time>2026-07-30T16:56:28.000Z</time></trkpt>
        <trkpt lat="28.909886" lon="105.425381"><ele>280.25653</ele><time>2026-07-30T16:56:30.000Z</time></trkpt>
        <trkpt lat="28.909894" lon="105.425359"><ele>279.85663</ele><time>2026-07-30T16:56:32.000Z</time></trkpt>
        <trkpt lat="28.909905" lon="105.425338"><ele>279.26</ele><time>2026-07-30T16:56:34.000Z</time></trkpt>
        <trkpt lat="28.909915" lon="105.425317"><ele>278.5324</ele><time>2026-07-30T16:56:36.000Z</time></trkpt>
        <trkpt lat="28.909926" lon="105.425297"><ele>277.81412</ele><time>2026-07-30T16:56:38.000Z</time></trkpt>
        <trkpt lat="28.909937" lon="105.425276"><ele>277.11243</ele><time>2026-07-30T16:56:40.000Z</time></trkpt>
        <trkpt lat="28.909947" lon="105.425258"><ele>277.44916</ele><time>2026-07-30T16:56:42.000Z</time></trkpt>
        <trkpt lat="28.909956" lon="105.42524"><ele>277.21136</ele><time>2026-07-30T16:56:44.000Z</time></trkpt>
        <trkpt lat="28.909965" lon="105.425222"><ele>277.1296</ele><time>2026-07-30T16:56:46.000Z</time></trkpt>
        <trkpt lat="28.909975" lon="105.425205"><ele>277.30576</ele><time>2026-07-30T16:56:48.000Z</time></trkpt>
        <trkpt lat="28.909985" lon="105.425188"><ele>277.37112</ele><time>2026-07-30T16:56:50.000Z</time></trkpt>
        <trkpt lat="28.909995" lon="105.425174"><ele>276.87662</ele><time>2026-07-30T16:56:52.000Z</time></trkpt>
        <trkpt lat="28.910005" lon="105.425163"><ele>277.32126</ele><time>2026-07-30T16:56:54.000Z</time></trkpt>
        <trkpt lat="28.910011" lon="105.425159"><ele>277.5683</ele><time>2026-07-30T16:56:56.000Z</time></trkpt>
        <trkpt lat="28.910028" lon="105.425144"><ele>277.63333</ele><time>2026-07-30T16:57:02.000Z</time></trkpt>
        <trkpt lat="28.910043" lon="105.42513"><ele>277.1295</ele><time>2026-07-30T16:57:08.000Z</time></trkpt>
        <trkpt lat="28.91006" lon="105.425113"><ele>278.06973</ele><time>2026-07-30T16:57:10.000Z</time></trkpt>
        <trkpt lat="28.910076" lon="105.425094"><ele>278.28043</ele><time>2026-07-30T16:57:12.000Z</time></trkpt>
        <trkpt lat="28.910091" lon="105.425078"><ele>278.68988</ele><time>2026-07-30T16:57:14.000Z</time></trkpt>
        <trkpt lat="28.910104" lon="105.425063"><ele>279.10898</ele><time>2026-07-30T16:57:16.000Z</time></trkpt>
        <trkpt lat="28.910117" lon="105.425049"><ele>279.39337</ele><time>2026-07-30T16:57:18.000Z</time></trkpt>
        <trkpt lat="28.910129" lon="105.425037"><ele>279.19687</ele><time>2026-07-30T16:57:20.000Z</time></trkpt>
        <trkpt lat="28.910142" lon="105.425024"><ele>279.9798</ele><time>2026-07-30T16:57:22.000Z</time></trkpt>
        <trkpt lat="28.910153" lon="105.425014"><ele>280.5542</ele><time>2026-07-30T16:57:24.000Z</time></trkpt>
        <trkpt lat="28.910165" lon="105.425001"><ele>280.7267</ele><time>2026-07-30T16:57:26.000Z</time></trkpt>
        <trkpt lat="28.910178" lon="105.424989"><ele>280.28665</ele><time>2026-07-30T16:57:28.000Z</time></trkpt>
        <trkpt lat="28.910191" lon="105.424976"><ele>280.0568</ele><time>2026-07-30T16:57:30.000Z</time></trkpt>
        <trkpt lat="28.910206" lon="105.424962"><ele>280.4745</ele><time>2026-07-30T16:57:32.000Z</time></trkpt>
        <trkpt lat="28.91022" lon="105.424947"><ele>280.0227</ele><time>2026-07-30T16:57:34.000Z</time></trkpt>
        <trkpt lat="28.910235" lon="105.424932"><ele>279.7395</ele><time>2026-07-30T16:57:36.000Z</time></trkpt>
        <trkpt lat="28.910249" lon="105.424919"><ele>279.43866</ele><time>2026-07-30T16:57:38.000Z</time></trkpt>
        <trkpt lat="28.910264" lon="105.424907"><ele>279.6068</ele><time>2026-07-30T16:57:40.000Z</time></trkpt>
        <trkpt lat="28.910279" lon="105.424897"><ele>279.3854</ele><time>2026-07-30T16:57:42.000Z</time></trkpt>
        <trkpt lat="28.910296" lon="105.424889"><ele>279.88425</ele><time>2026-07-30T16:57:44.000Z</time></trkpt>
        <trkpt lat="28.910313" lon="105.424882"><ele>279.5411</ele><time>2026-07-30T16:57:46.000Z</time></trkpt>
        <trkpt lat="28.91033" lon="105.424875"><ele>279.52112</ele><time>2026-07-30T16:57:48.000Z</time></trkpt>
        <trkpt lat="28.910346" lon="105.424869"><ele>279.50543</ele><time>2026-07-30T16:57:50.000Z</time></trkpt>
        <trkpt lat="28.910361" lon="105.424863"><ele>278.94464</ele><time>2026-07-30T16:57:52.000Z</time></trkpt>
        <trkpt lat="28.910376" lon="105.424859"><ele>278.66006</ele><time>2026-07-30T16:57:54.000Z</time></trkpt>
        <trkpt lat="28.910391" lon="105.424857"><ele>278.22284</ele><time>2026-07-30T16:57:56.000Z</time></trkpt>
        <trkpt lat="28.910396" lon="105.42486"><ele>278.05887</ele><time>2026-07-30T16:57:58.000Z</time></trkpt>
        <trkpt lat="28.910403" lon="105.424866"><ele>276.7127</ele><time>2026-07-30T16:58:04.000Z</time></trkpt>
        <trkpt lat="28.910417" lon="105.424867"><ele>275.51328</ele><time>2026-07-30T16:58:18.000Z</time></trkpt>
        <trkpt lat="28.91043" lon="105.424868"><ele>275.65207</ele><time>2026-07-30T16:58:20.000Z</time></trkpt>
        <trkpt lat="28.910431" lon="105.424867"><ele>275.91315</ele><time>2026-07-30T16:58:22.000Z</time></trkpt>
        <trkpt lat="28.910447" lon="105.424861"><ele>275.8916</ele><time>2026-07-30T16:58:28.000Z</time></trkpt>
        <trkpt lat="28.910462" lon="105.424857"><ele>275.3844</ele><time>2026-07-30T16:58:42.000Z</time></trkpt>
        <trkpt lat="28.910483" lon="105.424852"><ele>275.18268</ele><time>2026-07-30T16:58:44.000Z</time></trkpt>
        <trkpt lat="28.910498" lon="105.424848"><ele>275.11273</ele><time>2026-07-30T16:58:46.000Z</time></trkpt>
        <trkpt lat="28.9105" lon="105.424848"><ele>274.72684</ele><time>2026-07-30T16:58:48.000Z</time></trkpt>
        <trkpt lat="28.91051" lon="105.424849"><ele>275.3288</ele><time>2026-07-30T16:58:52.000Z</time></trkpt>
        <trkpt lat="28.910528" lon="105.42485"><ele>274.46045</ele><time>2026-07-30T16:58:58.000Z</time></trkpt>
        <trkpt lat="28.910541" lon="105.424849"><ele>275.03113</ele><time>2026-07-30T16:59:00.000Z</time></trkpt>
        <trkpt lat="28.910558" lon="105.424847"><ele>274.9672</ele><time>2026-07-30T16:59:02.000Z</time></trkpt>
        <trkpt lat="28.910559" lon="105.424847"><ele>275.3248</ele><time>2026-07-30T16:59:04.000Z</time></trkpt>
        <trkpt lat="28.910577" lon="105.424839"><ele>275.11658</ele><time>2026-07-30T16:59:08.000Z</time></trkpt>
        <trkpt lat="28.910591" lon="105.424834"><ele>275.48294</ele><time>2026-07-30T16:59:10.000Z</time></trkpt>
        <trkpt lat="28.910599" lon="105.424833"><ele>275.43417</ele><time>2026-07-30T16:59:12.000Z</time></trkpt>
        <trkpt lat="28.910601" lon="105.424836"><ele>275.00082</ele><time>2026-07-30T16:59:14.000Z</time></trkpt>
        <trkpt lat="28.910629" lon="105.424871"><ele>273.3002</ele><time>2026-07-30T16:59:20.000Z</time></trkpt>
        <trkpt lat="28.910629" lon="105.424871"><ele>273.32767</ele><time>2026-07-30T16:59:22.000Z</time></trkpt>
        <trkpt lat="28.910633" lon="105.424869"><ele>273.4992</ele><time>2026-07-30T16:59:24.000Z</time></trkpt>
        <trkpt lat="28.910667" lon="105.424851"><ele>274.00775</ele><time>2026-07-30T16:59:28.000Z</time></trkpt>
        <trkpt lat="28.910687" lon="105.424842"><ele>273.579</ele><time>2026-07-30T16:59:30.000Z</time></trkpt>
        <trkpt lat="28.910707" lon="105.424833"><ele>273.1937</ele><time>2026-07-30T16:59:32.000Z</time></trkpt>
        <trkpt lat="28.910725" lon="105.424824"><ele>273.0503</ele><time>2026-07-30T16:59:34.000Z</time></trkpt>
        <trkpt lat="28.910741" lon="105.424816"><ele>272.64685</ele><time>2026-07-30T16:59:36.000Z</time></trkpt>
        <trkpt lat="28.910756" lon="105.42481"><ele>272.22873</ele><time>2026-07-30T16:59:38.000Z</time></trkpt>
        <trkpt lat="28.910769" lon="105.424805"><ele>271.77814</ele><time>2026-07-30T16:59:40.000Z</time></trkpt>
        <trkpt lat="28.910781" lon="105.424799"><ele>271.17752</ele><time>2026-07-30T16:59:42.000Z</time></trkpt>
        <trkpt lat="28.910795" lon="105.42479"><ele>271.17395</ele><time>2026-07-30T16:59:44.000Z</time></trkpt>
        <trkpt lat="28.910809" lon="105.424778"><ele>271.0932</ele><time>2026-07-30T16:59:46.000Z</time></trkpt>
        <trkpt lat="28.910827" lon="105.424766"><ele>271.0926</ele><time>2026-07-30T16:59:48.000Z</time></trkpt>
        <trkpt lat="28.910845" lon="105.424758"><ele>270.5871</ele><time>2026-07-30T16:59:50.000Z</time></trkpt>
        <trkpt lat="28.910864" lon="105.424751"><ele>270.5765</ele><time>2026-07-30T16:59:52.000Z</time></trkpt>
        <trkpt lat="28.910884" lon="105.424743"><ele>270.32266</ele><time>2026-07-30T16:59:54.000Z</time></trkpt>
        <trkpt lat="28.910905" lon="105.424736"><ele>270.03616</ele><time>2026-07-30T16:59:56.000Z</time></trkpt>
        <trkpt lat="28.910922" lon="105.424731"><ele>270.18777</ele><time>2026-07-30T16:59:58.000Z</time></trkpt>
        <trkpt lat="28.91094" lon="105.424727"><ele>269.7502</ele><time>2026-07-30T17:00:00.000Z</time></trkpt>
        <trkpt lat="28.910957" lon="105.424724"><ele>269.55188</ele><time>2026-07-30T17:00:02.000Z</time></trkpt>
        <trkpt lat="28.910975" lon="105.424722"><ele>269.09793</ele><time>2026-07-30T17:00:04.000Z</time></trkpt>
        <trkpt lat="28.91099" lon="105.424718"><ele>269.64108</ele><time>2026-07-30T17:00:06.000Z</time></trkpt>
        <trkpt lat="28.911" lon="105.424711"><ele>269.07962</ele><time>2026-07-30T17:00:08.000Z</time></trkpt>
        <trkpt lat="28.911012" lon="105.424703"><ele>268.5242</ele><time>2026-07-30T17:00:10.000Z</time></trkpt>
        <trkpt lat="28.911023" lon="105.424698"><ele>269.40308</ele><time>2026-07-30T17:00:12.000Z</time></trkpt>
        <trkpt lat="28.911024" lon="105.424699"><ele>269.82376</ele><time>2026-07-30T17:00:14.000Z</time></trkpt>
        <trkpt lat="28.911031" lon="105.424709"><ele>269.78317</ele><time>2026-07-30T17:00:22.000Z</time></trkpt>
        <trkpt lat="28.911033" lon="105.424715"><ele>270.01138</ele><time>2026-07-30T17:00:26.000Z</time></trkpt>
        <trkpt lat="28.911034" lon="105.424718"><ele>270.35486</ele><time>2026-07-30T17:00:34.000Z</time></trkpt>
        <trkpt lat="28.911038" lon="105.424763"><ele>269.58307</ele><time>2026-07-30T17:00:48.000Z</time></trkpt>
        <trkpt lat="28.91104" lon="105.424785"><ele>269.28946</ele><time>2026-07-30T17:00:50.000Z</time></trkpt>
        <trkpt lat="28.911041" lon="105.424804"><ele>269.30396</ele><time>2026-07-30T17:00:52.000Z</time></trkpt>
        <trkpt lat="28.911042" lon="105.424805"><ele>269.1214</ele><time>2026-07-30T17:00:54.000Z</time></trkpt>
        <trkpt lat="28.911046" lon="105.424826"><ele>269.00064</ele><time>2026-07-30T17:00:58.000Z</time></trkpt>
        <trkpt lat="28.911051" lon="105.424847"><ele>268.64224</ele><time>2026-07-30T17:01:00.000Z</time></trkpt>
        <trkpt lat="28.911057" lon="105.424867"><ele>268.41235</ele><time>2026-07-30T17:01:02.000Z</time></trkpt>
        <trkpt lat="28.91106" lon="105.424877"><ele>268.61917</ele><time>2026-07-30T17:01:04.000Z</time></trkpt>
        <trkpt lat="28.911059" lon="105.424881"><ele>268.74994</ele><time>2026-07-30T17:01:06.000Z</time></trkpt>
        <trkpt lat="28.911048" lon="105.424908"><ele>268.48138</ele><time>2026-07-30T17:01:30.000Z</time></trkpt>
        <trkpt lat="28.911048" lon="105.424908"><ele>268.45602</ele><time>2026-07-30T17:01:32.000Z</time></trkpt>
        <trkpt lat="28.911049" lon="105.424912"><ele>268.06094</ele><time>2026-07-30T17:01:34.000Z</time></trkpt>
        <trkpt lat="28.911059" lon="105.424957"><ele>268.02762</ele><time>2026-07-30T17:01:36.000Z</time></trkpt>
        <trkpt lat="28.91106" lon="105.42496"><ele>267.59027</ele><time>2026-07-30T17:01:38.000Z</time></trkpt>
        <trkpt lat="28.91106" lon="105.424964"><ele>267.30368</ele><time>2026-07-30T17:01:40.000Z</time></trkpt>
        <trkpt lat="28.911067" lon="105.425006"><ele>267.5994</ele><time>2026-07-30T17:01:44.000Z</time></trkpt>
        <trkpt lat="28.911071" lon="105.425028"><ele>267.45877</ele><time>2026-07-30T17:01:46.000Z</time></trkpt>
        <trkpt lat="28.911077" lon="105.425049"><ele>267.00943</ele><time>2026-07-30T17:01:48.000Z</time></trkpt>
        <trkpt lat="28.911081" lon="105.425068"><ele>267.226</ele><time>2026-07-30T17:01:50.000Z</time></trkpt>
        <trkpt lat="28.911086" lon="105.425088"><ele>267.67383</ele><time>2026-07-30T17:01:52.000Z</time></trkpt>
        <trkpt lat="28.911091" lon="105.425107"><ele>267.4611</ele><time>2026-07-30T17:01:54.000Z</time></trkpt>
        <trkpt lat="28.911094" lon="105.425124"><ele>267.19327</ele><time>2026-07-30T17:01:56.000Z</time></trkpt>
        <trkpt lat="28.911097" lon="105.425141"><ele>266.94952</ele><time>2026-07-30T17:01:58.000Z</time></trkpt>
        <trkpt lat="28.9111" lon="105.425158"><ele>267.07602</ele><time>2026-07-30T17:02:00.000Z</time></trkpt>
        <trkpt lat="28.911104" lon="105.425174"><ele>267.18195</ele><time>2026-07-30T17:02:02.000Z</time></trkpt>
        <trkpt lat="28.911106" lon="105.425191"><ele>267.4006</ele><time>2026-07-30T17:02:04.000Z</time></trkpt>
        <trkpt lat="28.911106" lon="105.425208"><ele>267.42</ele><time>2026-07-30T17:02:06.000Z</time></trkpt>
        <trkpt lat="28.911105" lon="105.425227"><ele>267.2848</ele><time>2026-07-30T17:02:08.000Z</time></trkpt>
        <trkpt lat="28.911105" lon="105.425246"><ele>267.57697</ele><time>2026-07-30T17:02:10.000Z</time></trkpt>
        <trkpt lat="28.911104" lon="105.425264"><ele>267.34305</ele><time>2026-07-30T17:02:12.000Z</time></trkpt>
        <trkpt lat="28.911105" lon="105.425283"><ele>267.19727</ele><time>2026-07-30T17:02:14.000Z</time></trkpt>
        <trkpt lat="28.911106" lon="105.425301"><ele>267.39868</ele><time>2026-07-30T17:02:16.000Z</time></trkpt>
        <trkpt lat="28.911109" lon="105.425321"><ele>267.52396</ele><time>2026-07-30T17:02:18.000Z</time></trkpt>
        <trkpt lat="28.911112" lon="105.425338"><ele>267.28955</ele><time>2026-07-30T17:02:20.000Z</time></trkpt>
        <trkpt lat="28.911117" lon="105.425358"><ele>267.5283</ele><time>2026-07-30T17:02:22.000Z</time></trkpt>
        <trkpt lat="28.911122" lon="105.425376"><ele>267.39914</ele><time>2026-07-30T17:02:24.000Z</time></trkpt>
        <trkpt lat="28.911129" lon="105.425396"><ele>267.4978</ele><time>2026-07-30T17:02:26.000Z</time></trkpt>
        <trkpt lat="28.911134" lon="105.425411"><ele>268.41263</ele><time>2026-07-30T17:02:28.000Z</time></trkpt>
        <trkpt lat="28.911138" lon="105.425422"><ele>268.77075</ele><time>2026-07-30T17:02:30.000Z</time></trkpt>
        <trkpt lat="28.91114" lon="105.425425"><ele>268.88293</ele><time>2026-07-30T17:02:32.000Z</time></trkpt>
        <trkpt lat="28.911141" lon="105.425428"><ele>268.52197</ele><time>2026-07-30T17:02:34.000Z</time></trkpt>
        <trkpt lat="28.911146" lon="105.425447"><ele>268.37094</ele><time>2026-07-30T17:02:38.000Z</time></trkpt>
        <trkpt lat="28.911152" lon="105.425469"><ele>268.55368</ele><time>2026-07-30T17:02:40.000Z</time></trkpt>
        <trkpt lat="28.911153" lon="105.425471"><ele>268.72012</ele><time>2026-07-30T17:02:42.000Z</time></trkpt>
        <trkpt lat="28.911155" lon="105.425476"><ele>268.49728</ele><time>2026-07-30T17:02:46.000Z</time></trkpt>
        <trkpt lat="28.911171" lon="105.425505"><ele>267.95004</ele><time>2026-07-30T17:02:50.000Z</time></trkpt>
        <trkpt lat="28.91118" lon="105.425523"><ele>268.91513</ele><time>2026-07-30T17:02:52.000Z</time></trkpt>
        <trkpt lat="28.911181" lon="105.425524"><ele>269.2846</ele><time>2026-07-30T17:02:54.000Z</time></trkpt>
        <trkpt lat="28.911185" lon="105.42555"><ele>268.253</ele><time>2026-07-30T17:02:58.000Z</time></trkpt>
        <trkpt lat="28.911192" lon="105.425573"><ele>268.04938</ele><time>2026-07-30T17:03:00.000Z</time></trkpt>
        <trkpt lat="28.911198" lon="105.425599"><ele>268.46722</ele><time>2026-07-30T17:03:02.000Z</time></trkpt>
        <trkpt lat="28.911203" lon="105.42562"><ele>268.07828</ele><time>2026-07-30T17:03:04.000Z</time></trkpt>
        <trkpt lat="28.911206" lon="105.425643"><ele>268.06903</ele><time>2026-07-30T17:03:06.000Z</time></trkpt>
        <trkpt lat="28.911212" lon="105.425664"><ele>267.99615</ele><time>2026-07-30T17:03:08.000Z</time></trkpt>
        <trkpt lat="28.911218" lon="105.425684"><ele>268.815</ele><time>2026-07-30T17:03:10.000Z</time></trkpt>
        <trkpt lat="28.911226" lon="105.425701"><ele>268.48767</ele><time>2026-07-30T17:03:12.000Z</time></trkpt>
        <trkpt lat="28.911234" lon="105.425718"><ele>268.46136</ele><time>2026-07-30T17:03:14.000Z</time></trkpt>
        <trkpt lat="28.91124" lon="105.425736"><ele>268.45316</ele><time>2026-07-30T17:03:16.000Z</time></trkpt>
        <trkpt lat="28.911244" lon="105.425753"><ele>268.38562</ele><time>2026-07-30T17:03:18.000Z</time></trkpt>
        <trkpt lat="28.911246" lon="105.425769"><ele>267.94974</ele><time>2026-07-30T17:03:20.000Z</time></trkpt>
        <trkpt lat="28.911247" lon="105.425786"><ele>268.17035</ele><time>2026-07-30T17:03:22.000Z</time></trkpt>
        <trkpt lat="28.911249" lon="105.425803"><ele>268.0316</ele><time>2026-07-30T17:03:24.000Z</time></trkpt>
        <trkpt lat="28.911249" lon="105.425816"><ele>268.149</ele><time>2026-07-30T17:03:26.000Z</time></trkpt>
        <trkpt lat="28.91125" lon="105.42582"><ele>268.93307</ele><time>2026-07-30T17:03:28.000Z</time></trkpt>
        <trkpt lat="28.911235" lon="105.425777"><ele>268.45905</ele><time>2026-07-30T17:04:06.000Z</time></trkpt>
        <trkpt lat="28.911226" lon="105.425752"><ele>268.95288</ele><time>2026-07-30T17:04:08.000Z</time></trkpt>
        <trkpt lat="28.911226" lon="105.42575"><ele>268.8628</ele><time>2026-07-30T17:04:10.000Z</time></trkpt>
        <trkpt lat="28.911225" lon="105.425747"><ele>269.31265</ele><time>2026-07-30T17:04:12.000Z</time></trkpt>
        <trkpt lat="28.911222" lon="105.425712"><ele>269.3768</ele><time>2026-07-30T17:04:16.000Z</time></trkpt>
        <trkpt lat="28.911222" lon="105.425694"><ele>269.25137</ele><time>2026-07-30T17:04:18.000Z</time></trkpt>
        <trkpt lat="28.911223" lon="105.42568"><ele>269.17896</ele><time>2026-07-30T17:04:20.000Z</time></trkpt>
        <trkpt lat="28.911225" lon="105.425661"><ele>269.32153</ele><time>2026-07-30T17:04:22.000Z</time></trkpt>
        <trkpt lat="28.911226" lon="105.425643"><ele>269.66595</ele><time>2026-07-30T17:04:24.000Z</time></trkpt>
        <trkpt lat="28.911227" lon="105.425623"><ele>269.90317</ele><time>2026-07-30T17:04:26.000Z</time></trkpt>
        <trkpt lat="28.911227" lon="105.425602"><ele>269.4877</ele><time>2026-07-30T17:04:28.000Z</time></trkpt>
        <trkpt lat="28.911225" lon="105.425582"><ele>269.38834</ele><time>2026-07-30T17:04:30.000Z</time></trkpt>
        <trkpt lat="28.911221" lon="105.42556"><ele>269.16983</ele><time>2026-07-30T17:04:32.000Z</time></trkpt>
        <trkpt lat="28.911217" lon="105.425538"><ele>269.54395</ele><time>2026-07-30T17:04:34.000Z</time></trkpt>
        <trkpt lat="28.911211" lon="105.425515"><ele>269.4198</ele><time>2026-07-30T17:04:36.000Z</time></trkpt>
        <trkpt lat="28.911203" lon="105.425494"><ele>269.22693</ele><time>2026-07-30T17:04:38.000Z</time></trkpt>
        <trkpt lat="28.911195" lon="105.425475"><ele>268.9579</ele><time>2026-07-30T17:04:40.000Z</time></trkpt>
        <trkpt lat="28.911187" lon="105.42546"><ele>268.81192</ele><time>2026-07-30T17:04:42.000Z</time></trkpt>
        <trkpt lat="28.911177" lon="105.42544"><ele>268.5481</ele><time>2026-07-30T17:04:44.000Z</time></trkpt>
        <trkpt lat="28.911169" lon="105.425423"><ele>268.5475</ele><time>2026-07-30T17:04:46.000Z</time></trkpt>
        <trkpt lat="28.911162" lon="105.425405"><ele>268.8357</ele><time>2026-07-30T17:04:48.000Z</time></trkpt>
        <trkpt lat="28.911155" lon="105.425388"><ele>268.71356</ele><time>2026-07-30T17:04:50.000Z</time></trkpt>
        <trkpt lat="28.911148" lon="105.425368"><ele>268.36807</ele><time>2026-07-30T17:04:52.000Z</time></trkpt>
        <trkpt lat="28.911142" lon="105.425352"><ele>268.26144</ele><time>2026-07-30T17:04:54.000Z</time></trkpt>
        <trkpt lat="28.911138" lon="105.425334"><ele>268.0077</ele><time>2026-07-30T17:04:56.000Z</time></trkpt>
        <trkpt lat="28.911133" lon="105.425313"><ele>267.88058</ele><time>2026-07-30T17:04:58.000Z</time></trkpt>
        <trkpt lat="28.911127" lon="105.425296"><ele>267.12738</ele><time>2026-07-30T17:05:00.000Z</time></trkpt>
        <trkpt lat="28.911122" lon="105.425286"><ele>267.6493</ele><time>2026-07-30T17:05:02.000Z</time></trkpt>
        <trkpt lat="28.911121" lon="105.425281"><ele>267.77475</ele><time>2026-07-30T17:05:04.000Z</time></trkpt>
        <trkpt lat="28.911116" lon="105.425271"><ele>267.67105</ele><time>2026-07-30T17:05:28.000Z</time></trkpt>
        <trkpt lat="28.911109" lon="105.425256"><ele>268.64038</ele><time>2026-07-30T17:05:30.000Z</time></trkpt>
        <trkpt lat="28.911109" lon="105.425255"><ele>267.77905</ele><time>2026-07-30T17:05:32.000Z</time></trkpt>
        <trkpt lat="28.911104" lon="105.425198"><ele>267.92868</ele><time>2026-07-30T17:05:35.000Z</time></trkpt>
        <trkpt lat="28.911104" lon="105.425198"><ele>267.80588</ele><time>2026-07-30T17:05:37.000Z</time></trkpt>
        <trkpt lat="28.911104" lon="105.425194"><ele>268.14334</ele><time>2026-07-30T17:05:39.000Z</time></trkpt>
        <trkpt lat="28.911102" lon="105.425152"><ele>268.1016</ele><time>2026-07-30T17:05:43.000Z</time></trkpt>
        <trkpt lat="28.911101" lon="105.425131"><ele>268.16916</ele><time>2026-07-30T17:05:45.000Z</time></trkpt>
        <trkpt lat="28.9111" lon="105.425107"><ele>268.1493</ele><time>2026-07-30T17:05:47.000Z</time></trkpt>
        <trkpt lat="28.9111" lon="105.425091"><ele>268.04236</ele><time>2026-07-30T17:05:49.000Z</time></trkpt>
        <trkpt lat="28.911098" lon="105.425078"><ele>267.18396</ele><time>2026-07-30T17:05:51.000Z</time></trkpt>
        <trkpt lat="28.911097" lon="105.425062"><ele>267.45175</ele><time>2026-07-30T17:05:53.000Z</time></trkpt>
        <trkpt lat="28.911095" lon="105.425042"><ele>267.86038</ele><time>2026-07-30T17:05:55.000Z</time></trkpt>
        <trkpt lat="28.911093" lon="105.425026"><ele>267.40646</ele><time>2026-07-30T17:05:57.000Z</time></trkpt>
        <trkpt lat="28.91109" lon="105.425008"><ele>267.41595</ele><time>2026-07-30T17:05:59.000Z</time></trkpt>
        <trkpt lat="28.911086" lon="105.424984"><ele>268.0881</ele><time>2026-07-30T17:06:01.000Z</time></trkpt>
        <trkpt lat="28.911082" lon="105.424961"><ele>267.8301</ele><time>2026-07-30T17:06:03.000Z</time></trkpt>
        <trkpt lat="28.911078" lon="105.42494"><ele>268.33536</ele><time>2026-07-30T17:06:05.000Z</time></trkpt>
        <trkpt lat="28.911074" lon="105.424921"><ele>268.7479</ele><time>2026-07-30T17:06:07.000Z</time></trkpt>
        <trkpt lat="28.911069" lon="105.4249"><ele>268.85397</ele><time>2026-07-30T17:06:09.000Z</time></trkpt>
        <trkpt lat="28.911064" lon="105.424877"><ele>268.6604</ele><time>2026-07-30T17:06:11.000Z</time></trkpt>
        <trkpt lat="28.911061" lon="105.424861"><ele>268.9165</ele><time>2026-07-30T17:06:13.000Z</time></trkpt>
        <trkpt lat="28.911057" lon="105.424845"><ele>268.84506</ele><time>2026-07-30T17:06:15.000Z</time></trkpt>
        <trkpt lat="28.911053" lon="105.424825"><ele>269.0323</ele><time>2026-07-30T17:06:17.000Z</time></trkpt>
        <trkpt lat="28.911049" lon="105.424805"><ele>269.02103</ele><time>2026-07-30T17:06:19.000Z</time></trkpt>
        <trkpt lat="28.911047" lon="105.424785"><ele>268.7558</ele><time>2026-07-30T17:06:21.000Z</time></trkpt>
        <trkpt lat="28.911046" lon="105.424765"><ele>269.1722</ele><time>2026-07-30T17:06:23.000Z</time></trkpt>
        <trkpt lat="28.911046" lon="105.424743"><ele>269.2694</ele><time>2026-07-30T17:06:25.000Z</time></trkpt>
        <trkpt lat="28.91105" lon="105.424724"><ele>269.10394</ele><time>2026-07-30T17:06:27.000Z</time></trkpt>
        <trkpt lat="28.911056" lon="105.424711"><ele>268.9281</ele><time>2026-07-30T17:06:29.000Z</time></trkpt>
        <trkpt lat="28.911065" lon="105.424697"><ele>269.124</ele><time>2026-07-30T17:06:31.000Z</time></trkpt>
        <trkpt lat="28.911074" lon="105.424685"><ele>268.68375</ele><time>2026-07-30T17:06:33.000Z</time></trkpt>
        <trkpt lat="28.911082" lon="105.424679"><ele>268.1558</ele><time>2026-07-30T17:06:35.000Z</time></trkpt>
        <trkpt lat="28.911097" lon="105.424672"><ele>269.11105</ele><time>2026-07-30T17:06:37.000Z</time></trkpt>
        <trkpt lat="28.91111" lon="105.424668"><ele>269.64777</ele><time>2026-07-30T17:06:39.000Z</time></trkpt>
        <trkpt lat="28.911125" lon="105.424665"><ele>271.30316</ele><time>2026-07-30T17:06:41.000Z</time></trkpt>
        <trkpt lat="28.911142" lon="105.424659"><ele>270.7858</ele><time>2026-07-30T17:06:43.000Z</time></trkpt>
        <trkpt lat="28.911157" lon="105.424653"><ele>269.76654</ele><time>2026-07-30T17:06:45.000Z</time></trkpt>
        <trkpt lat="28.91117" lon="105.424645"><ele>269.97052</ele><time>2026-07-30T17:06:47.000Z</time></trkpt>
        <trkpt lat="28.911184" lon="105.424642"><ele>269.8908</ele><time>2026-07-30T17:06:49.000Z</time></trkpt>
        <trkpt lat="28.911198" lon="105.424641"><ele>269.87317</ele><time>2026-07-30T17:06:51.000Z</time></trkpt>
        <trkpt lat="28.911214" lon="105.424643"><ele>270.72253</ele><time>2026-07-30T17:06:53.000Z</time></trkpt>
        <trkpt lat="28.91123" lon="105.424644"><ele>271.29456</ele><time>2026-07-30T17:06:55.000Z</time></trkpt>
        <trkpt lat="28.911245" lon="105.424645"><ele>271.36368</ele><time>2026-07-30T17:06:57.000Z</time></trkpt>
        <trkpt lat="28.911258" lon="105.424645"><ele>271.34476</ele><time>2026-07-30T17:06:59.000Z</time></trkpt>
        <trkpt lat="28.911269" lon="105.424644"><ele>271.09512</ele><time>2026-07-30T17:07:01.000Z</time></trkpt>
        <trkpt lat="28.911278" lon="105.424644"><ele>270.74103</ele><time>2026-07-30T17:07:03.000Z</time></trkpt>
        <trkpt lat="28.911285" lon="105.424643"><ele>270.335</ele><time>2026-07-30T17:07:05.000Z</time></trkpt>
        <trkpt lat="28.911297" lon="105.42464"><ele>270.0883</ele><time>2026-07-30T17:07:07.000Z</time></trkpt>
        <trkpt lat="28.911312" lon="105.424636"><ele>269.80276</ele><time>2026-07-30T17:07:09.000Z</time></trkpt>
        <trkpt lat="28.911329" lon="105.42463"><ele>269.8011</ele><time>2026-07-30T17:07:11.000Z</time></trkpt>
        <trkpt lat="28.911346" lon="105.424623"><ele>269.29996</ele><time>2026-07-30T17:07:13.000Z</time></trkpt>
        <trkpt lat="28.911363" lon="105.424617"><ele>268.86514</ele><time>2026-07-30T17:07:15.000Z</time></trkpt>
        <trkpt lat="28.911378" lon="105.424612"><ele>269.23697</ele><time>2026-07-30T17:07:17.000Z</time></trkpt>
        <trkpt lat="28.911394" lon="105.42461"><ele>268.8143</ele><time>2026-07-30T17:07:19.000Z</time></trkpt>
        <trkpt lat="28.911411" lon="105.42461"><ele>269.15656</ele><time>2026-07-30T17:07:21.000Z</time></trkpt>
        <trkpt lat="28.911431" lon="105.424612"><ele>268.33572</ele><time>2026-07-30T17:07:23.000Z</time></trkpt>
        <trkpt lat="28.91145" lon="105.424615"><ele>268.26254</ele><time>2026-07-30T17:07:25.000Z</time></trkpt>
        <trkpt lat="28.911468" lon="105.42462"><ele>267.94952</ele><time>2026-07-30T17:07:27.000Z</time></trkpt>
        <trkpt lat="28.911487" lon="105.424627"><ele>267.63953</ele><time>2026-07-30T17:07:29.000Z</time></trkpt>
        <trkpt lat="28.911506" lon="105.424635"><ele>267.19464</ele><time>2026-07-30T17:07:31.000Z</time></trkpt>
        <trkpt lat="28.911522" lon="105.42464"><ele>266.94598</ele><time>2026-07-30T17:07:33.000Z</time></trkpt>
        <trkpt lat="28.911537" lon="105.424643"><ele>266.63687</ele><time>2026-07-30T17:07:35.000Z</time></trkpt>
        <trkpt lat="28.911553" lon="105.424645"><ele>266.92218</ele><time>2026-07-30T17:07:37.000Z</time></trkpt>
        <trkpt lat="28.911565" lon="105.424646"><ele>267.5684</ele><time>2026-07-30T17:07:39.000Z</time></trkpt>
        <trkpt lat="28.91158" lon="105.424647"><ele>267.77875</ele><time>2026-07-30T17:07:41.000Z</time></trkpt>
        <trkpt lat="28.911593" lon="105.424648"><ele>267.78345</ele><time>2026-07-30T17:07:43.000Z</time></trkpt>
        <trkpt lat="28.9116" lon="105.424649"><ele>268.33786</ele><time>2026-07-30T17:07:45.000Z</time></trkpt>
        <trkpt lat="28.911608" lon="105.424651"><ele>268.77176</ele><time>2026-07-30T17:07:47.000Z</time></trkpt>
        <trkpt lat="28.911615" lon="105.424652"><ele>268.57388</ele><time>2026-07-30T17:07:49.000Z</time></trkpt>
        <trkpt lat="28.911628" lon="105.424655"><ele>268.60043</ele><time>2026-07-30T17:07:51.000Z</time></trkpt>
        <trkpt lat="28.911639" lon="105.424657"><ele>267.59387</ele><time>2026-07-30T17:07:57.000Z</time></trkpt>
        <trkpt lat="28.911647" lon="105.424658"><ele>267.10077</ele><time>2026-07-30T17:07:59.000Z</time></trkpt>
        <trkpt lat="28.911661" lon="105.424661"><ele>266.51428</ele><time>2026-07-30T17:08:01.000Z</time></trkpt>
        <trkpt lat="28.911673" lon="105.424663"><ele>267.67325</ele><time>2026-07-30T17:08:09.000Z</time></trkpt>
        <trkpt lat="28.911679" lon="105.424663"><ele>267.44553</ele><time>2026-07-30T17:08:11.000Z</time></trkpt>
        <trkpt lat="28.911708" lon="105.424666"><ele>267.24786</ele><time>2026-07-30T17:09:40.000Z</time></trkpt>
        <trkpt lat="28.911553" lon="105.42465"><ele>267.93582</ele><time>2026-07-30T17:12:20.000Z</time></trkpt>
        <trkpt lat="28.911532" lon="105.424648"><ele>268.0722</ele><time>2026-07-30T17:12:22.000Z</time></trkpt>
        <trkpt lat="28.911531" lon="105.424647"><ele>267.65967</ele><time>2026-07-30T17:12:24.000Z</time></trkpt>
        <trkpt lat="28.911495" lon="105.424644"><ele>267.5678</ele><time>2026-07-30T17:12:30.000Z</time></trkpt>
        <trkpt lat="28.911477" lon="105.424643"><ele>267.83493</ele><time>2026-07-30T17:12:32.000Z</time></trkpt>
        <trkpt lat="28.911459" lon="105.424642"><ele>268.03052</ele><time>2026-07-30T17:12:34.000Z</time></trkpt>
        <trkpt lat="28.911441" lon="105.424639"><ele>268.48575</ele><time>2026-07-30T17:12:36.000Z</time></trkpt>
        <trkpt lat="28.911421" lon="105.424635"><ele>268.47028</ele><time>2026-07-30T17:12:38.000Z</time></trkpt>
        <trkpt lat="28.911397" lon="105.424629"><ele>269.2215</ele><time>2026-07-30T17:12:40.000Z</time></trkpt>
        <trkpt lat="28.911373" lon="105.424625"><ele>269.34732</ele><time>2026-07-30T17:12:42.000Z</time></trkpt>
        <trkpt lat="28.911351" lon="105.424624"><ele>269.39996</ele><time>2026-07-30T17:12:44.000Z</time></trkpt>
        <trkpt lat="28.911331" lon="105.424624"><ele>269.72375</ele><time>2026-07-30T17:12:46.000Z</time></trkpt>
        <trkpt lat="28.911312" lon="105.424626"><ele>269.8284</ele><time>2026-07-30T17:12:48.000Z</time></trkpt>
        <trkpt lat="28.911295" lon="105.42463"><ele>269.76584</ele><time>2026-07-30T17:12:50.000Z</time></trkpt>
        <trkpt lat="28.91128" lon="105.424633"><ele>269.54236</ele><time>2026-07-30T17:12:52.000Z</time></trkpt>
        <trkpt lat="28.911264" lon="105.424637"><ele>269.77185</ele><time>2026-07-30T17:12:54.000Z</time></trkpt>
        <trkpt lat="28.911248" lon="105.42464"><ele>269.70428</ele><time>2026-07-30T17:12:56.000Z</time></trkpt>
        <trkpt lat="28.911232" lon="105.424643"><ele>269.5585</ele><time>2026-07-30T17:12:58.000Z</time></trkpt>
        <trkpt lat="28.911217" lon="105.424647"><ele>269.50177</ele><time>2026-07-30T17:13:00.000Z</time></trkpt>
        <trkpt lat="28.911202" lon="105.42465"><ele>269.7185</ele><time>2026-07-30T17:13:02.000Z</time></trkpt>
        <trkpt lat="28.911188" lon="105.424653"><ele>270.0855</ele><time>2026-07-30T17:13:04.000Z</time></trkpt>
        <trkpt lat="28.911173" lon="105.424656"><ele>270.29535</ele><time>2026-07-30T17:13:06.000Z</time></trkpt>
        <trkpt lat="28.911156" lon="105.42466"><ele>270.71268</ele><time>2026-07-30T17:13:08.000Z</time></trkpt>
        <trkpt lat="28.91114" lon="105.424664"><ele>270.68265</ele><time>2026-07-30T17:13:10.000Z</time></trkpt>
        <trkpt lat="28.911122" lon="105.424671"><ele>270.75558</ele><time>2026-07-30T17:13:12.000Z</time></trkpt>
        <trkpt lat="28.911104" lon="105.424678"><ele>270.82898</ele><time>2026-07-30T17:13:14.000Z</time></trkpt>
        <trkpt lat="28.911086" lon="105.424687"><ele>270.90997</ele><time>2026-07-30T17:13:16.000Z</time></trkpt>
        <trkpt lat="28.91107" lon="105.424696"><ele>271.07648</ele><time>2026-07-30T17:13:18.000Z</time></trkpt>
        <trkpt lat="28.911056" lon="105.424705"><ele>270.7827</ele><time>2026-07-30T17:13:20.000Z</time></trkpt>
        <trkpt lat="28.911043" lon="105.424711"><ele>270.75845</ele><time>2026-07-30T17:13:22.000Z</time></trkpt>
        <trkpt lat="28.911038" lon="105.424711"><ele>270.71637</ele><time>2026-07-30T17:13:24.000Z</time></trkpt>
        <trkpt lat="28.911038" lon="105.424711"><ele>270.32346</ele><time>2026-07-30T17:13:26.000Z</time></trkpt>
        <trkpt lat="28.911052" lon="105.424806"><ele>268.32578</ele><time>2026-07-30T17:14:30.000Z</time></trkpt>
        <trkpt lat="28.911058" lon="105.424826"><ele>268.5004</ele><time>2026-07-30T17:14:32.000Z</time></trkpt>
        <trkpt lat="28.91106" lon="105.424842"><ele>268.4634</ele><time>2026-07-30T17:14:34.000Z</time></trkpt>
        <trkpt lat="28.911064" lon="105.424872"><ele>268.3929</ele><time>2026-07-30T17:14:37.000Z</time></trkpt>
        <trkpt lat="28.911064" lon="105.424873"><ele>268.5564</ele><time>2026-07-30T17:14:39.000Z</time></trkpt>
        <trkpt lat="28.911061" lon="105.424877"><ele>268.4189</ele><time>2026-07-30T17:14:41.000Z</time></trkpt>
        <trkpt lat="28.911045" lon="105.4249"><ele>268.91547</ele><time>2026-07-30T17:14:45.000Z</time></trkpt>
        <trkpt lat="28.91104" lon="105.424906"><ele>268.68292</ele><time>2026-07-30T17:14:47.000Z</time></trkpt>
        <trkpt lat="28.911036" lon="105.424911"><ele>268.5</ele><time>2026-07-30T17:14:49.000Z</time></trkpt>
        <trkpt lat="28.91103" lon="105.424917"><ele>268.6432</ele><time>2026-07-30T17:14:51.000Z</time></trkpt>
        <trkpt lat="28.91102" lon="105.42493"><ele>268.75714</ele><time>2026-07-30T17:14:53.000Z</time></trkpt>
        <trkpt lat="28.911016" lon="105.424934"><ele>269.31833</ele><time>2026-07-30T17:14:57.000Z</time></trkpt>
        <trkpt lat="28.911009" lon="105.424942"><ele>269.17126</ele><time>2026-07-30T17:14:59.000Z</time></trkpt>
        <trkpt lat="28.910996" lon="105.424955"><ele>269.352</ele><time>2026-07-30T17:15:03.000Z</time></trkpt>
        <trkpt lat="28.910994" lon="105.424957"><ele>269.40424</ele><time>2026-07-30T17:15:05.000Z</time></trkpt>
        <trkpt lat="28.910989" lon="105.42496"><ele>269.1555</ele><time>2026-07-30T17:15:07.000Z</time></trkpt>
        <trkpt lat="28.910979" lon="105.424965"><ele>269.3555</ele><time>2026-07-30T17:15:13.000Z</time></trkpt>
        <trkpt lat="28.910964" lon="105.424976"><ele>269.16177</ele><time>2026-07-30T17:15:15.000Z</time></trkpt>
        <trkpt lat="28.910952" lon="105.424984"><ele>268.81122</ele><time>2026-07-30T17:15:17.000Z</time></trkpt>
        <trkpt lat="28.910951" lon="105.424985"><ele>269.08075</ele><time>2026-07-30T17:15:19.000Z</time></trkpt>
        <trkpt lat="28.910933" lon="105.424999"><ele>269.29092</ele><time>2026-07-30T17:15:23.000Z</time></trkpt>
        <trkpt lat="28.910915" lon="105.425014"><ele>269.287</ele><time>2026-07-30T17:15:25.000Z</time></trkpt>
        <trkpt lat="28.910897" lon="105.425032"><ele>269.18454</ele><time>2026-07-30T17:15:27.000Z</time></trkpt>
        <trkpt lat="28.910882" lon="105.42505"><ele>268.97958</ele><time>2026-07-30T17:15:29.000Z</time></trkpt>
        <trkpt lat="28.91087" lon="105.425068"><ele>268.79367</ele><time>2026-07-30T17:15:31.000Z</time></trkpt>
        <trkpt lat="28.910859" lon="105.425085"><ele>268.3897</ele><time>2026-07-30T17:15:33.000Z</time></trkpt>
        <trkpt lat="28.910849" lon="105.425103"><ele>268.87418</ele><time>2026-07-30T17:15:35.000Z</time></trkpt>
        <trkpt lat="28.91084" lon="105.42512"><ele>268.57367</ele><time>2026-07-30T17:15:37.000Z</time></trkpt>
        <trkpt lat="28.910833" lon="105.425134"><ele>268.37863</ele><time>2026-07-30T17:15:39.000Z</time></trkpt>
        <trkpt lat="28.910825" lon="105.42515"><ele>268.79425</ele><time>2026-07-30T17:15:41.000Z</time></trkpt>
        <trkpt lat="28.910818" lon="105.425166"><ele>268.8817</ele><time>2026-07-30T17:15:43.000Z</time></trkpt>
        <trkpt lat="28.910811" lon="105.425182"><ele>268.87665</ele><time>2026-07-30T17:15:45.000Z</time></trkpt>
        <trkpt lat="28.910804" lon="105.425199"><ele>269.1746</ele><time>2026-07-30T17:15:47.000Z</time></trkpt>
        <trkpt lat="28.910799" lon="105.425215"><ele>269.61414</ele><time>2026-07-30T17:15:49.000Z</time></trkpt>
        <trkpt lat="28.910793" lon="105.425229"><ele>269.43567</ele><time>2026-07-30T17:15:51.000Z</time></trkpt>
        <trkpt lat="28.910789" lon="105.425239"><ele>269.8106</ele><time>2026-07-30T17:15:53.000Z</time></trkpt>
        <trkpt lat="28.910787" lon="105.425242"><ele>269.87524</ele><time>2026-07-30T17:15:55.000Z</time></trkpt>
        <trkpt lat="28.910824" lon="105.425189"><ele>269.40286</ele><time>2026-07-30T17:16:01.000Z</time></trkpt>
        <trkpt lat="28.910824" lon="105.425189"><ele>269.23947</ele><time>2026-07-30T17:16:03.000Z</time></trkpt>
        <trkpt lat="28.910828" lon="105.425183"><ele>269.15628</ele><time>2026-07-30T17:16:05.000Z</time></trkpt>
        <trkpt lat="28.910841" lon="105.425162"><ele>269.5695</ele><time>2026-07-30T17:16:07.000Z</time></trkpt>
        <trkpt lat="28.910858" lon="105.425134"><ele>269.25592</ele><time>2026-07-30T17:16:09.000Z</time></trkpt>
        <trkpt lat="28.910873" lon="105.425107"><ele>269.39453</ele><time>2026-07-30T17:16:11.000Z</time></trkpt>
        <trkpt lat="28.910888" lon="105.425085"><ele>269.30148</ele><time>2026-07-30T17:16:13.000Z</time></trkpt>
        <trkpt lat="28.910904" lon="105.425065"><ele>269.65488</ele><time>2026-07-30T17:16:15.000Z</time></trkpt>
        <trkpt lat="28.91092" lon="105.425048"><ele>269.66632</ele><time>2026-07-30T17:16:17.000Z</time></trkpt>
        <trkpt lat="28.910937" lon="105.425033"><ele>269.93546</ele><time>2026-07-30T17:16:19.000Z</time></trkpt>
        <trkpt lat="28.910953" lon="105.425021"><ele>269.74402</ele><time>2026-07-30T17:16:21.000Z</time></trkpt>
        <trkpt lat="28.91097" lon="105.425009"><ele>269.6899</ele><time>2026-07-30T17:16:23.000Z</time></trkpt>
        <trkpt lat="28.910988" lon="105.424996"><ele>268.54514</ele><time>2026-07-30T17:16:25.000Z</time></trkpt>
        <trkpt lat="28.911006" lon="105.424983"><ele>268.2103</ele><time>2026-07-30T17:16:27.000Z</time></trkpt>
        <trkpt lat="28.911027" lon="105.424974"><ele>268.20224</ele><time>2026-07-30T17:16:29.000Z</time></trkpt>
        <trkpt lat="28.911046" lon="105.424973"><ele>267.6387</ele><time>2026-07-30T17:16:31.000Z</time></trkpt>
        <trkpt lat="28.911058" lon="105.424981"><ele>267.4477</ele><time>2026-07-30T17:16:33.000Z</time></trkpt>
        <trkpt lat="28.911065" lon="105.424994"><ele>268.31024</ele><time>2026-07-30T17:16:35.000Z</time></trkpt>
        <trkpt lat="28.911069" lon="105.425013"><ele>268.157</ele><time>2026-07-30T17:16:37.000Z</time></trkpt>
        <trkpt lat="28.91107" lon="105.425036"><ele>268.13837</ele><time>2026-07-30T17:16:39.000Z</time></trkpt>
        <trkpt lat="28.911072" lon="105.425062"><ele>267.9271</ele><time>2026-07-30T17:16:41.000Z</time></trkpt>
        <trkpt lat="28.911074" lon="105.425093"><ele>269.03372</ele><time>2026-07-30T17:16:43.000Z</time></trkpt>
        <trkpt lat="28.911076" lon="105.425117"><ele>269.26337</ele><time>2026-07-30T17:16:45.000Z</time></trkpt>
        <trkpt lat="28.91108" lon="105.425141"><ele>268.80447</ele><time>2026-07-30T17:16:47.000Z</time></trkpt>
        <trkpt lat="28.911083" lon="105.42516"><ele>268.4995</ele><time>2026-07-30T17:16:49.000Z</time></trkpt>
        <trkpt lat="28.911086" lon="105.425182"><ele>268.33228</ele><time>2026-07-30T17:16:51.000Z</time></trkpt>
        <trkpt lat="28.911089" lon="105.425207"><ele>268.4589</ele><time>2026-07-30T17:16:53.000Z</time></trkpt>
        <trkpt lat="28.911092" lon="105.425235"><ele>268.5485</ele><time>2026-07-30T17:16:55.000Z</time></trkpt>
        <trkpt lat="28.911096" lon="105.425259"><ele>268.4161</ele><time>2026-07-30T17:16:57.000Z</time></trkpt>
        <trkpt lat="28.911101" lon="105.425281"><ele>268.37482</ele><time>2026-07-30T17:16:59.000Z</time></trkpt>
        <trkpt lat="28.911106" lon="105.425301"><ele>268.32968</ele><time>2026-07-30T17:17:01.000Z</time></trkpt>
        <trkpt lat="28.911112" lon="105.425325"><ele>268.38272</ele><time>2026-07-30T17:17:03.000Z</time></trkpt>
        <trkpt lat="28.911119" lon="105.425347"><ele>268.29544</ele><time>2026-07-30T17:17:05.000Z</time></trkpt>
        <trkpt lat="28.911127" lon="105.42537"><ele>268.9</ele><time>2026-07-30T17:17:07.000Z</time></trkpt>
        <trkpt lat="28.911135" lon="105.425394"><ele>268.68573</ele><time>2026-07-30T17:17:09.000Z</time></trkpt>
        <trkpt lat="28.911142" lon="105.425417"><ele>268.83392</ele><time>2026-07-30T17:17:11.000Z</time></trkpt>
        <trkpt lat="28.91115" lon="105.42544"><ele>269.00177</ele><time>2026-07-30T17:17:13.000Z</time></trkpt>
        <trkpt lat="28.911159" lon="105.425463"><ele>268.5778</ele><time>2026-07-30T17:17:15.000Z</time></trkpt>
        <trkpt lat="28.911168" lon="105.425479"><ele>268.6032</ele><time>2026-07-30T17:17:17.000Z</time></trkpt>
        <trkpt lat="28.911176" lon="105.425494"><ele>268.82703</ele><time>2026-07-30T17:17:19.000Z</time></trkpt>
        <trkpt lat="28.911185" lon="105.425513"><ele>268.84317</ele><time>2026-07-30T17:17:21.000Z</time></trkpt>
        <trkpt lat="28.911194" lon="105.425537"><ele>269.20294</ele><time>2026-07-30T17:17:23.000Z</time></trkpt>
        <trkpt lat="28.9112" lon="105.425559"><ele>270.04788</ele><time>2026-07-30T17:17:25.000Z</time></trkpt>
        <trkpt lat="28.911207" lon="105.425582"><ele>269.1485</ele><time>2026-07-30T17:17:27.000Z</time></trkpt>
        <trkpt lat="28.911213" lon="105.425604"><ele>269.12335</ele><time>2026-07-30T17:17:29.000Z</time></trkpt>
        <trkpt lat="28.91122" lon="105.425628"><ele>268.96103</ele><time>2026-07-30T17:17:31.000Z</time></trkpt>
        <trkpt lat="28.911227" lon="105.425653"><ele>269.05252</ele><time>2026-07-30T17:17:33.000Z</time></trkpt>
        <trkpt lat="28.911231" lon="105.425677"><ele>268.99857</ele><time>2026-07-30T17:17:35.000Z</time></trkpt>
        <trkpt lat="28.911231" lon="105.425699"><ele>268.1372</ele><time>2026-07-30T17:17:37.000Z</time></trkpt>
        <trkpt lat="28.911229" lon="105.42572"><ele>268.43213</ele><time>2026-07-30T17:17:39.000Z</time></trkpt>
        <trkpt lat="28.911228" lon="105.42574"><ele>268.1743</ele><time>2026-07-30T17:17:41.000Z</time></trkpt>
        <trkpt lat="28.911228" lon="105.425761"><ele>268.3579</ele><time>2026-07-30T17:17:43.000Z</time></trkpt>
        <trkpt lat="28.911229" lon="105.425777"><ele>268.06406</ele><time>2026-07-30T17:17:45.000Z</time></trkpt>
        <trkpt lat="28.911231" lon="105.425795"><ele>268.11215</ele><time>2026-07-30T17:17:47.000Z</time></trkpt>
        <trkpt lat="28.911233" lon="105.4258"><ele>268.42072</ele><time>2026-07-30T17:17:49.000Z</time></trkpt>
        <trkpt lat="28.911233" lon="105.425801"><ele>268.53345</ele><time>2026-07-30T17:17:51.000Z</time></trkpt>
        <trkpt lat="28.911244" lon="105.42584"><ele>269.15076</ele><time>2026-07-30T17:17:59.000Z</time></trkpt>
        <trkpt lat="28.911244" lon="105.425841"><ele>269.14197</ele><time>2026-07-30T17:18:01.000Z</time></trkpt>
        <trkpt lat="28.911246" lon="105.425845"><ele>269.2738</ele><time>2026-07-30T17:18:03.000Z</time></trkpt>
        <trkpt lat="28.911265" lon="105.425882"><ele>270.1176</ele><time>2026-07-30T17:18:07.000Z</time></trkpt>
        <trkpt lat="28.911272" lon="105.425895"><ele>270.15714</ele><time>2026-07-30T17:18:09.000Z</time></trkpt>
        <trkpt lat="28.911275" lon="105.425901"><ele>270.28278</ele><time>2026-07-30T17:18:11.000Z</time></trkpt>
        <trkpt lat="28.911277" lon="105.425906"><ele>269.9956</ele><time>2026-07-30T17:18:15.000Z</time></trkpt>
        <trkpt lat="28.911265" lon="105.425858"><ele>269.81528</ele><time>2026-07-30T17:18:27.000Z</time></trkpt>
        <trkpt lat="28.91126" lon="105.425837"><ele>269.57358</ele><time>2026-07-30T17:18:29.000Z</time></trkpt>
        <trkpt lat="28.91126" lon="105.425835"><ele>269.62952</ele><time>2026-07-30T17:18:31.000Z</time></trkpt>
        <trkpt lat="28.911251" lon="105.425808"><ele>270.39417</ele><time>2026-07-30T17:18:39.000Z</time></trkpt>
        <trkpt lat="28.911247" lon="105.425792"><ele>270.21402</ele><time>2026-07-30T17:18:41.000Z</time></trkpt>
        <trkpt lat="28.91124" lon="105.425772"><ele>270.48425</ele><time>2026-07-30T17:18:43.000Z</time></trkpt>
        <trkpt lat="28.911234" lon="105.425751"><ele>270.67624</ele><time>2026-07-30T17:18:45.000Z</time></trkpt>
        <trkpt lat="28.91123" lon="105.425733"><ele>270.77274</ele><time>2026-07-30T17:18:47.000Z</time></trkpt>
        <trkpt lat="28.911228" lon="105.425714"><ele>270.9055</ele><time>2026-07-30T17:18:49.000Z</time></trkpt>
        <trkpt lat="28.911225" lon="105.425694"><ele>270.70477</ele><time>2026-07-30T17:18:51.000Z</time></trkpt>
        <trkpt lat="28.911223" lon="105.425677"><ele>271.10754</ele><time>2026-07-30T17:18:53.000Z</time></trkpt>
        <trkpt lat="28.911222" lon="105.425658"><ele>270.4955</ele><time>2026-07-30T17:18:55.000Z</time></trkpt>
        <trkpt lat="28.911222" lon="105.425635"><ele>270.38586</ele><time>2026-07-30T17:18:57.000Z</time></trkpt>
        <trkpt lat="28.91122" lon="105.425612"><ele>270.19565</ele><time>2026-07-30T17:18:59.000Z</time></trkpt>
        <trkpt lat="28.911216" lon="105.42559"><ele>270.56888</ele><time>2026-07-30T17:19:01.000Z</time></trkpt>
        <trkpt lat="28.91121" lon="105.425566"><ele>270.67432</ele><time>2026-07-30T17:19:03.000Z</time></trkpt>
        <trkpt lat="28.911204" lon="105.425544"><ele>270.2564</ele><time>2026-07-30T17:19:05.000Z</time></trkpt>
        <trkpt lat="28.911198" lon="105.42552"><ele>269.76508</ele><time>2026-07-30T17:19:07.000Z</time></trkpt>
        <trkpt lat="28.911193" lon="105.425493"><ele>269.6243</ele><time>2026-07-30T17:19:09.000Z</time></trkpt>
        <trkpt lat="28.911186" lon="105.425467"><ele>269.2655</ele><time>2026-07-30T17:19:11.000Z</time></trkpt>
        <trkpt lat="28.91118" lon="105.425445"><ele>269.0473</ele><time>2026-07-30T17:19:13.000Z</time></trkpt>
        <trkpt lat="28.911172" lon="105.425425"><ele>268.91583</ele><time>2026-07-30T17:19:15.000Z</time></trkpt>
        <trkpt lat="28.911165" lon="105.425406"><ele>269.00986</ele><time>2026-07-30T17:19:17.000Z</time></trkpt>
        <trkpt lat="28.911154" lon="105.425385"><ele>269.3291</ele><time>2026-07-30T17:19:19.000Z</time></trkpt>
        <trkpt lat="28.911144" lon="105.425364"><ele>270.6164</ele><time>2026-07-30T17:19:21.000Z</time></trkpt>
        <trkpt lat="28.911134" lon="105.425341"><ele>269.46387</ele><time>2026-07-30T17:19:23.000Z</time></trkpt>
        <trkpt lat="28.911128" lon="105.425319"><ele>269.7122</ele><time>2026-07-30T17:19:25.000Z</time></trkpt>
        <trkpt lat="28.911122" lon="105.425298"><ele>269.48233</ele><time>2026-07-30T17:19:27.000Z</time></trkpt>
        <trkpt lat="28.911118" lon="105.425279"><ele>268.78873</ele><time>2026-07-30T17:19:29.000Z</time></trkpt>
        <trkpt lat="28.911114" lon="105.42526"><ele>268.88065</ele><time>2026-07-30T17:19:31.000Z</time></trkpt>
        <trkpt lat="28.911111" lon="105.425243"><ele>268.62204</ele><time>2026-07-30T17:19:33.000Z</time></trkpt>
        <trkpt lat="28.911109" lon="105.425227"><ele>268.59485</ele><time>2026-07-30T17:19:35.000Z</time></trkpt>
        <trkpt lat="28.911106" lon="105.425212"><ele>268.6698</ele><time>2026-07-30T17:19:37.000Z</time></trkpt>
        <trkpt lat="28.911104" lon="105.425195"><ele>268.86392</ele><time>2026-07-30T17:19:39.000Z</time></trkpt>
        <trkpt lat="28.911102" lon="105.425179"><ele>268.79266</ele><time>2026-07-30T17:19:41.000Z</time></trkpt>
        <trkpt lat="28.9111" lon="105.425163"><ele>268.6409</ele><time>2026-07-30T17:19:43.000Z</time></trkpt>
        <trkpt lat="28.911099" lon="105.425147"><ele>268.5831</ele><time>2026-07-30T17:19:45.000Z</time></trkpt>
        <trkpt lat="28.911098" lon="105.425137"><ele>268.21298</ele><time>2026-07-30T17:19:47.000Z</time></trkpt>
        <trkpt lat="28.911098" lon="105.425134"><ele>268.1886</ele><time>2026-07-30T17:19:51.000Z</time></trkpt>
        <trkpt lat="28.9111" lon="105.425129"><ele>268.41284</ele><time>2026-07-30T17:20:03.000Z</time></trkpt>
        <trkpt lat="28.911108" lon="105.4251"><ele>268.30807</ele><time>2026-07-30T17:21:25.000Z</time></trkpt>
        <trkpt lat="28.911108" lon="105.425094"><ele>268.25827</ele><time>2026-07-30T17:21:27.000Z</time></trkpt>
        <trkpt lat="28.911108" lon="105.425091"><ele>268.24142</ele><time>2026-07-30T17:21:29.000Z</time></trkpt>
        <trkpt lat="28.911108" lon="105.425053"><ele>268.0633</ele><time>2026-07-30T17:21:43.000Z</time></trkpt>
        <trkpt lat="28.911108" lon="105.42505"><ele>267.87784</ele><time>2026-07-30T17:21:45.000Z</time></trkpt>
        <trkpt lat="28.911108" lon="105.425048"><ele>267.84714</ele><time>2026-07-30T17:21:47.000Z</time></trkpt>
        <trkpt lat="28.911101" lon="105.425016"><ele>268.11615</ele><time>2026-07-30T17:22:15.000Z</time></trkpt>
        <trkpt lat="28.911099" lon="105.425012"><ele>268.13547</ele><time>2026-07-30T17:22:17.000Z</time></trkpt>
        <trkpt lat="28.911098" lon="105.42501"><ele>268.11438</ele><time>2026-07-30T17:22:19.000Z</time></trkpt>
        <trkpt lat="28.911082" lon="105.424985"><ele>268.27246</ele><time>2026-07-30T17:22:39.000Z</time></trkpt>
        <trkpt lat="28.911076" lon="105.424979"><ele>267.8516</ele><time>2026-07-30T17:22:49.000Z</time></trkpt>
        <trkpt lat="28.911075" lon="105.424973"><ele>267.9577</ele><time>2026-07-30T17:23:05.000Z</time></trkpt>
        <trkpt lat="28.911071" lon="105.424941"><ele>268.4249</ele><time>2026-07-30T17:23:38.000Z</time></trkpt>
        <trkpt lat="28.911068" lon="105.42492"><ele>268.36417</ele><time>2026-07-30T17:23:40.000Z</time></trkpt>
        <trkpt lat="28.911068" lon="105.424919"><ele>268.37744</ele><time>2026-07-30T17:23:42.000Z</time></trkpt>
        <trkpt lat="28.911067" lon="105.424889"><ele>268.312</ele><time>2026-07-30T17:23:48.000Z</time></trkpt>
        <trkpt lat="28.911067" lon="105.42487"><ele>268.401</ele><time>2026-07-30T17:23:50.000Z</time></trkpt>
        <trkpt lat="28.911066" lon="105.424849"><ele>268.77383</ele><time>2026-07-30T17:23:52.000Z</time></trkpt>
        <trkpt lat="28.911066" lon="105.424828"><ele>268.26517</ele><time>2026-07-30T17:23:54.000Z</time></trkpt>
        <trkpt lat="28.911066" lon="105.424807"><ele>267.99384</ele><time>2026-07-30T17:23:56.000Z</time></trkpt>
        <trkpt lat="28.911065" lon="105.424788"><ele>268.25278</ele><time>2026-07-30T17:23:58.000Z</time></trkpt>
        <trkpt lat="28.911064" lon="105.424769"><ele>268.70718</ele><time>2026-07-30T17:24:00.000Z</time></trkpt>
        <trkpt lat="28.911065" lon="105.424752"><ele>268.97986</ele><time>2026-07-30T17:24:02.000Z</time></trkpt>
        <trkpt lat="28.911067" lon="105.424735"><ele>268.7698</ele><time>2026-07-30T17:24:04.000Z</time></trkpt>
        <trkpt lat="28.911069" lon="105.424718"><ele>268.68762</ele><time>2026-07-30T17:24:06.000Z</time></trkpt>
        <trkpt lat="28.911072" lon="105.424701"><ele>268.33752</ele><time>2026-07-30T17:24:08.000Z</time></trkpt>
        <trkpt lat="28.911074" lon="105.424686"><ele>267.9866</ele><time>2026-07-30T17:24:10.000Z</time></trkpt>
        <trkpt lat="28.911075" lon="105.424686"><ele>268.53775</ele><time>2026-07-30T17:24:12.000Z</time></trkpt>
        <trkpt lat="28.911038" lon="105.424691"><ele>269.05576</ele><time>2026-07-30T17:24:34.000Z</time></trkpt>
        <trkpt lat="28.911032" lon="105.424695"><ele>269.48444</ele><time>2026-07-30T17:24:36.000Z</time></trkpt>
        <trkpt lat="28.911019" lon="105.424702"><ele>269.43604</ele><time>2026-07-30T17:24:38.000Z</time></trkpt>
        <trkpt lat="28.911007" lon="105.424722"><ele>270.26392</ele><time>2026-07-30T17:25:26.000Z</time></trkpt>
        <trkpt lat="28.911008" lon="105.424724"><ele>270.44052</ele><time>2026-07-30T17:25:41.000Z</time></trkpt>
        <trkpt lat="28.910967" lon="105.424697"><ele>270.95</ele><time>2026-07-30T17:27:16.000Z</time></trkpt>
        <trkpt lat="28.910957" lon="105.424697"><ele>270.69968</ele><time>2026-07-30T17:27:18.000Z</time></trkpt>
        <trkpt lat="28.910944" lon="105.424705"><ele>270.77255</ele><time>2026-07-30T17:27:20.000Z</time></trkpt>
        <trkpt lat="28.910914" lon="105.424723"><ele>271.2831</ele><time>2026-07-30T17:27:28.000Z</time></trkpt>
        <trkpt lat="28.910903" lon="105.424729"><ele>271.56992</ele><time>2026-07-30T17:27:30.000Z</time></trkpt>
        <trkpt lat="28.910886" lon="105.424736"><ele>271.6186</ele><time>2026-07-30T17:27:32.000Z</time></trkpt>
        <trkpt lat="28.910869" lon="105.424739"><ele>271.27542</ele><time>2026-07-30T17:27:34.000Z</time></trkpt>
        <trkpt lat="28.910849" lon="105.424743"><ele>271.15543</ele><time>2026-07-30T17:27:36.000Z</time></trkpt>
        <trkpt lat="28.910829" lon="105.424746"><ele>271.59753</ele><time>2026-07-30T17:27:38.000Z</time></trkpt>
        <trkpt lat="28.910814" lon="105.42475"><ele>271.98007</ele><time>2026-07-30T17:27:40.000Z</time></trkpt>
        <trkpt lat="28.910804" lon="105.424752"><ele>271.97498</ele><time>2026-07-30T17:27:42.000Z</time></trkpt>
        <trkpt lat="28.910792" lon="105.424755"><ele>271.79062</ele><time>2026-07-30T17:27:44.000Z</time></trkpt>
        <trkpt lat="28.910778" lon="105.42476"><ele>272.09235</ele><time>2026-07-30T17:27:46.000Z</time></trkpt>
        <trkpt lat="28.910761" lon="105.424767"><ele>272.4726</ele><time>2026-07-30T17:27:48.000Z</time></trkpt>
        <trkpt lat="28.910743" lon="105.424774"><ele>272.6385</ele><time>2026-07-30T17:27:50.000Z</time></trkpt>
        <trkpt lat="28.910725" lon="105.424779"><ele>272.3243</ele><time>2026-07-30T17:27:52.000Z</time></trkpt>
        <trkpt lat="28.910707" lon="105.424785"><ele>272.57446</ele><time>2026-07-30T17:27:54.000Z</time></trkpt>
        <trkpt lat="28.910693" lon="105.424791"><ele>272.07574</ele><time>2026-07-30T17:27:56.000Z</time></trkpt>
        <trkpt lat="28.910681" lon="105.424799"><ele>272.46182</ele><time>2026-07-30T17:27:58.000Z</time></trkpt>
        <trkpt lat="28.910667" lon="105.424808"><ele>272.0001</ele><time>2026-07-30T17:28:00.000Z</time></trkpt>
        <trkpt lat="28.910655" lon="105.424815"><ele>272.32327</ele><time>2026-07-30T17:28:02.000Z</time></trkpt>
        <trkpt lat="28.910642" lon="105.424821"><ele>272.40408</ele><time>2026-07-30T17:28:04.000Z</time></trkpt>
        <trkpt lat="28.910627" lon="105.424828"><ele>272.6804</ele><time>2026-07-30T17:28:06.000Z</time></trkpt>
        <trkpt lat="28.910611" lon="105.424835"><ele>273.60522</ele><time>2026-07-30T17:28:08.000Z</time></trkpt>
        <trkpt lat="28.910594" lon="105.424842"><ele>273.88998</ele><time>2026-07-30T17:28:10.000Z</time></trkpt>
        <trkpt lat="28.91058" lon="105.424847"><ele>273.84915</ele><time>2026-07-30T17:28:12.000Z</time></trkpt>
        <trkpt lat="28.910561" lon="105.424853"><ele>274.20657</ele><time>2026-07-30T17:28:14.000Z</time></trkpt>
        <trkpt lat="28.910547" lon="105.424855"><ele>274.46384</ele><time>2026-07-30T17:28:16.000Z</time></trkpt>
        <trkpt lat="28.910542" lon="105.424852"><ele>273.8743</ele><time>2026-07-30T17:28:18.000Z</time></trkpt>
        <trkpt lat="28.910536" lon="105.424851"><ele>273.8159</ele><time>2026-07-30T17:28:22.000Z</time></trkpt>
        <trkpt lat="28.910524" lon="105.42485"><ele>273.66345</ele><time>2026-07-30T17:28:28.000Z</time></trkpt>
        <trkpt lat="28.910509" lon="105.424848"><ele>273.90503</ele><time>2026-07-30T17:28:30.000Z</time></trkpt>
        <trkpt lat="28.910508" lon="105.424849"><ele>273.8228</ele><time>2026-07-30T17:28:32.000Z</time></trkpt>
        <trkpt lat="28.910491" lon="105.424866"><ele>273.94705</ele><time>2026-07-30T17:28:34.000Z</time></trkpt>
        <trkpt lat="28.910487" lon="105.424868"><ele>274.35114</ele><time>2026-07-30T17:28:38.000Z</time></trkpt>
        <trkpt lat="28.910476" lon="105.424873"><ele>274.60706</ele><time>2026-07-30T17:28:40.000Z</time></trkpt>
        <trkpt lat="28.910458" lon="105.424879"><ele>274.4534</ele><time>2026-07-30T17:28:42.000Z</time></trkpt>
        <trkpt lat="28.910446" lon="105.424884"><ele>274.77414</ele><time>2026-07-30T17:28:44.000Z</time></trkpt>
        <trkpt lat="28.910437" lon="105.424886"><ele>274.47906</ele><time>2026-07-30T17:28:46.000Z</time></trkpt>
        <trkpt lat="28.910433" lon="105.424885"><ele>274.83685</ele><time>2026-07-30T17:28:50.000Z</time></trkpt>
        <trkpt lat="28.910414" lon="105.424888"><ele>275.00626</ele><time>2026-07-30T17:29:40.000Z</time></trkpt>
        <trkpt lat="28.91041" lon="105.424893"><ele>274.99222</ele><time>2026-07-30T17:29:44.000Z</time></trkpt>
        <trkpt lat="28.910409" lon="105.424899"><ele>275.9214</ele><time>2026-07-30T17:29:52.000Z</time></trkpt>
        <trkpt lat="28.910399" lon="105.42493"><ele>274.90814</ele><time>2026-07-30T17:31:24.000Z</time></trkpt>
        <trkpt lat="28.910399" lon="105.424932"><ele>275.37646</ele><time>2026-07-30T17:31:39.000Z</time></trkpt>
        <trkpt lat="28.910356" lon="105.424874"><ele>275.59845</ele><time>2026-07-30T17:33:18.000Z</time></trkpt>
        <trkpt lat="28.910356" lon="105.424875"><ele>275.52908</ele><time>2026-07-30T17:33:34.000Z</time></trkpt>
        <trkpt lat="28.910356" lon="105.424875"><ele>275.9127</ele><time>2026-07-30T17:33:41.000Z</time></trkpt>
        <trkpt lat="28.91041" lon="105.424868"><ele>275.31573</ele><time>2026-07-30T17:36:10.000Z</time></trkpt>
        <trkpt lat="28.91041" lon="105.424868"><ele>274.9063</ele><time>2026-07-30T17:36:12.000Z</time></trkpt>
        <trkpt lat="28.910409" lon="105.424868"><ele>275.23822</ele><time>2026-07-30T17:36:14.000Z</time></trkpt>
        <trkpt lat="28.910365" lon="105.424875"><ele>274.6427</ele><time>2026-07-30T17:36:33.000Z</time></trkpt>
        <trkpt lat="28.910362" lon="105.424877"><ele>274.3612</ele><time>2026-07-30T17:36:35.000Z</time></trkpt>
        <trkpt lat="28.910361" lon="105.424876"><ele>274.68427</ele><time>2026-07-30T17:36:37.000Z</time></trkpt>
        <trkpt lat="28.910399" lon="105.424911"><ele>276.63858</ele><time>2026-07-30T17:36:58.000Z</time></trkpt>
        <trkpt lat="28.910403" lon="105.424913"><ele>277.10175</ele><time>2026-07-30T17:37:00.000Z</time></trkpt>
        <trkpt lat="28.910404" lon="105.424912"><ele>276.38345</ele><time>2026-07-30T17:37:02.000Z</time></trkpt>
        <trkpt lat="28.910443" lon="105.424889"><ele>275.26245</ele><time>2026-07-30T17:38:22.000Z</time></trkpt>
        <trkpt lat="28.910463" lon="105.424877"><ele>275.6319</ele><time>2026-07-30T17:38:24.000Z</time></trkpt>
        <trkpt lat="28.910465" lon="105.424876"><ele>275.54517</ele><time>2026-07-30T17:38:26.000Z</time></trkpt>
        <trkpt lat="28.910486" lon="105.424865"><ele>275.44202</ele><time>2026-07-30T17:38:30.000Z</time></trkpt>
        <trkpt lat="28.910512" lon="105.424852"><ele>275.48947</ele><time>2026-07-30T17:38:32.000Z</time></trkpt>
        <trkpt lat="28.910542" lon="105.424841"><ele>274.70868</ele><time>2026-07-30T17:38:34.000Z</time></trkpt>
        <trkpt lat="28.910573" lon="105.424832"><ele>275.0713</ele><time>2026-07-30T17:38:36.000Z</time></trkpt>
        <trkpt lat="28.910598" lon="105.424826"><ele>273.9916</ele><time>2026-07-30T17:38:38.000Z</time></trkpt>
        <trkpt lat="28.910618" lon="105.424822"><ele>272.81897</ele><time>2026-07-30T17:38:40.000Z</time></trkpt>
        <trkpt lat="28.910635" lon="105.424818"><ele>271.86465</ele><time>2026-07-30T17:38:42.000Z</time></trkpt>
        <trkpt lat="28.910653" lon="105.424813"><ele>271.71948</ele><time>2026-07-30T17:38:44.000Z</time></trkpt>
        <trkpt lat="28.910668" lon="105.424806"><ele>271.22803</ele><time>2026-07-30T17:38:46.000Z</time></trkpt>
        <trkpt lat="28.910683" lon="105.424798"><ele>271.47107</ele><time>2026-07-30T17:38:48.000Z</time></trkpt>
        <trkpt lat="28.910699" lon="105.424789"><ele>271.48215</ele><time>2026-07-30T17:38:50.000Z</time></trkpt>
        <trkpt lat="28.910716" lon="105.424778"><ele>271.68045</ele><time>2026-07-30T17:38:52.000Z</time></trkpt>
        <trkpt lat="28.910731" lon="105.424767"><ele>271.97458</ele><time>2026-07-30T17:38:54.000Z</time></trkpt>
        <trkpt lat="28.910748" lon="105.424755"><ele>271.45938</ele><time>2026-07-30T17:38:56.000Z</time></trkpt>
        <trkpt lat="28.910765" lon="105.424745"><ele>271.81677</ele><time>2026-07-30T17:38:58.000Z</time></trkpt>
        <trkpt lat="28.910782" lon="105.424738"><ele>271.51376</ele><time>2026-07-30T17:39:00.000Z</time></trkpt>
        <trkpt lat="28.910795" lon="105.424735"><ele>272.4061</ele><time>2026-07-30T17:39:03.000Z</time></trkpt>
        <trkpt lat="28.910804" lon="105.424734"><ele>272.40503</ele><time>2026-07-30T17:39:05.000Z</time></trkpt>
        <trkpt lat="28.910819" lon="105.424732"><ele>272.5577</ele><time>2026-07-30T17:39:07.000Z</time></trkpt>
        <trkpt lat="28.910833" lon="105.424727"><ele>272.50665</ele><time>2026-07-30T17:39:09.000Z</time></trkpt>
        <trkpt lat="28.910848" lon="105.424722"><ele>271.9746</ele><time>2026-07-30T17:39:11.000Z</time></trkpt>
        <trkpt lat="28.910867" lon="105.424715"><ele>270.4318</ele><time>2026-07-30T17:39:13.000Z</time></trkpt>
        <trkpt lat="28.910885" lon="105.424707"><ele>269.38055</ele><time>2026-07-30T17:39:15.000Z</time></trkpt>
        <trkpt lat="28.910905" lon="105.424699"><ele>269.0202</ele><time>2026-07-30T17:39:17.000Z</time></trkpt>
        <trkpt lat="28.910925" lon="105.424691"><ele>269.6358</ele><time>2026-07-30T17:39:19.000Z</time></trkpt>
        <trkpt lat="28.910944" lon="105.424688"><ele>269.77487</ele><time>2026-07-30T17:39:21.000Z</time></trkpt>
        <trkpt lat="28.910964" lon="105.424685"><ele>269.89923</ele><time>2026-07-30T17:39:23.000Z</time></trkpt>
        <trkpt lat="28.910985" lon="105.424683"><ele>269.46524</ele><time>2026-07-30T17:39:25.000Z</time></trkpt>
        <trkpt lat="28.911004" lon="105.424681"><ele>269.56326</ele><time>2026-07-30T17:39:27.000Z</time></trkpt>
        <trkpt lat="28.911024" lon="105.42468"><ele>270.06018</ele><time>2026-07-30T17:39:29.000Z</time></trkpt>
        <trkpt lat="28.911039" lon="105.424681"><ele>269.9822</ele><time>2026-07-30T17:39:31.000Z</time></trkpt>
        <trkpt lat="28.911052" lon="105.424682"><ele>270.83783</ele><time>2026-07-30T17:39:33.000Z</time></trkpt>
        <trkpt lat="28.911061" lon="105.424684"><ele>271.45636</ele><time>2026-07-30T17:39:35.000Z</time></trkpt>
        <trkpt lat="28.911063" lon="105.424684"><ele>270.80078</ele><time>2026-07-30T17:39:38.000Z</time></trkpt>
        <trkpt lat="28.911021" lon="105.424692"><ele>270.59064</ele><time>2026-07-30T17:41:20.000Z</time></trkpt>
        <trkpt lat="28.91102" lon="105.424693"><ele>270.45636</ele><time>2026-07-30T17:41:22.000Z</time></trkpt>
        <trkpt lat="28.91102" lon="105.424693"><ele>270.81534</ele><time>2026-07-30T17:41:24.000Z</time></trkpt>
        <trkpt lat="28.911065" lon="105.424678"><ele>269.5317</ele><time>2026-07-30T17:43:09.000Z</time></trkpt>
        <trkpt lat="28.911068" lon="105.424676"><ele>269.5317</ele><time>2026-07-30T17:43:11.000Z</time></trkpt>
        <trkpt lat="28.911071" lon="105.424675"><ele>268.8486</ele><time>2026-07-30T17:43:13.000Z</time></trkpt>
        <trkpt lat="28.911209" lon="105.424652"><ele>267.47586</ele><time>2026-07-30T17:49:24.000Z</time></trkpt>
        <trkpt lat="28.911235" lon="105.424647"><ele>267.8867</ele><time>2026-07-30T17:49:27.000Z</time></trkpt>
        <trkpt lat="28.911236" lon="105.424647"><ele>267.93185</ele><time>2026-07-30T17:49:29.000Z</time></trkpt>
        <trkpt lat="28.911239" lon="105.424646"><ele>267.8842</ele><time>2026-07-30T17:49:31.000Z</time></trkpt>
        <trkpt lat="28.911273" lon="105.424635"><ele>267.96097</ele><time>2026-07-30T17:49:35.000Z</time></trkpt>
        <trkpt lat="28.911297" lon="105.424627"><ele>268.122</ele><time>2026-07-30T17:49:37.000Z</time></trkpt>
        <trkpt lat="28.91132" lon="105.424622"><ele>268.42413</ele><time>2026-07-30T17:49:39.000Z</time></trkpt>
        <trkpt lat="28.911342" lon="105.424618"><ele>268.28882</ele><time>2026-07-30T17:49:41.000Z</time></trkpt>
        <trkpt lat="28.911362" lon="105.424615"><ele>267.97214</ele><time>2026-07-30T17:49:43.000Z</time></trkpt>
        <trkpt lat="28.91138" lon="105.424615"><ele>267.71408</ele><time>2026-07-30T17:49:45.000Z</time></trkpt>
        <trkpt lat="28.911399" lon="105.424616"><ele>265.86224</ele><time>2026-07-30T17:49:47.000Z</time></trkpt>
        <trkpt lat="28.911418" lon="105.424617"><ele>266.14096</ele><time>2026-07-30T17:49:49.000Z</time></trkpt>
        <trkpt lat="28.911437" lon="105.424619"><ele>265.61145</ele><time>2026-07-30T17:49:51.000Z</time></trkpt>
        <trkpt lat="28.911458" lon="105.424622"><ele>265.70087</ele><time>2026-07-30T17:49:53.000Z</time></trkpt>
        <trkpt lat="28.911478" lon="105.424625"><ele>266.07065</ele><time>2026-07-30T17:49:55.000Z</time></trkpt>
        <trkpt lat="28.9115" lon="105.424631"><ele>265.43283</ele><time>2026-07-30T17:49:57.000Z</time></trkpt>
        <trkpt lat="28.91152" lon="105.424635"><ele>265.85635</ele><time>2026-07-30T17:49:59.000Z</time></trkpt>
        <trkpt lat="28.911532" lon="105.42464"><ele>265.77026</ele><time>2026-07-30T17:50:01.000Z</time></trkpt>
        <trkpt lat="28.911545" lon="105.424648"><ele>265.8614</ele><time>2026-07-30T17:50:03.000Z</time></trkpt>
        <trkpt lat="28.911553" lon="105.424654"><ele>266.181</ele><time>2026-07-30T17:50:05.000Z</time></trkpt>
        <trkpt lat="28.911554" lon="105.42466"><ele>265.94565</ele><time>2026-07-30T17:50:07.000Z</time></trkpt>
        <trkpt lat="28.911558" lon="105.424697"><ele>267.824</ele><time>2026-07-30T17:50:33.000Z</time></trkpt>
        <trkpt lat="28.911559" lon="105.424705"><ele>267.85962</ele><time>2026-07-30T17:50:35.000Z</time></trkpt>
        <trkpt lat="28.91156" lon="105.42471"><ele>267.7467</ele><time>2026-07-30T17:50:37.000Z</time></trkpt>
        <trkpt lat="28.911568" lon="105.424779"><ele>266.82996</ele><time>2026-07-30T17:51:44.000Z</time></trkpt>
        <trkpt lat="28.911571" lon="105.424802"><ele>266.3228</ele><time>2026-07-30T17:51:46.000Z</time></trkpt>
        <trkpt lat="28.911573" lon="105.424811"><ele>265.82657</ele><time>2026-07-30T17:51:48.000Z</time></trkpt>
        <trkpt lat="28.911581" lon="105.424877"><ele>266.26407</ele><time>2026-07-30T17:51:59.000Z</time></trkpt>
        <trkpt lat="28.911583" lon="105.4249"><ele>266.22028</ele><time>2026-07-30T17:52:01.000Z</time></trkpt>
        <trkpt lat="28.911585" lon="105.424923"><ele>266.11108</ele><time>2026-07-30T17:52:03.000Z</time></trkpt>
        <trkpt lat="28.911588" lon="105.424945"><ele>265.8279</ele><time>2026-07-30T17:52:05.000Z</time></trkpt>
        <trkpt lat="28.91159" lon="105.424966"><ele>266.3353</ele><time>2026-07-30T17:52:07.000Z</time></trkpt>
        <trkpt lat="28.911593" lon="105.424984"><ele>266.59695</ele><time>2026-07-30T17:52:09.000Z</time></trkpt>
        <trkpt lat="28.911598" lon="105.425004"><ele>266.54044</ele><time>2026-07-30T17:52:11.000Z</time></trkpt>
        <trkpt lat="28.911604" lon="105.425023"><ele>266.3493</ele><time>2026-07-30T17:52:13.000Z</time></trkpt>
        <trkpt lat="28.911612" lon="105.425043"><ele>266.0087</ele><time>2026-07-30T17:52:15.000Z</time></trkpt>
        <trkpt lat="28.91162" lon="105.425065"><ele>265.69962</ele><time>2026-07-30T17:52:17.000Z</time></trkpt>
        <trkpt lat="28.911625" lon="105.425084"><ele>266.4451</ele><time>2026-07-30T17:52:19.000Z</time></trkpt>
        <trkpt lat="28.91163" lon="105.425102"><ele>266.28445</ele><time>2026-07-30T17:52:21.000Z</time></trkpt>
        <trkpt lat="28.911636" lon="105.425119"><ele>266.0975</ele><time>2026-07-30T17:52:23.000Z</time></trkpt>
        <trkpt lat="28.911643" lon="105.425135"><ele>265.8582</ele><time>2026-07-30T17:52:25.000Z</time></trkpt>
        <trkpt lat="28.91165" lon="105.425147"><ele>265.9654</ele><time>2026-07-30T17:52:27.000Z</time></trkpt>
        <trkpt lat="28.911657" lon="105.42515"><ele>265.66275</ele><time>2026-07-30T17:52:29.000Z</time></trkpt>
        <trkpt lat="28.911678" lon="105.425154"><ele>265.79074</ele><time>2026-07-30T17:52:53.000Z</time></trkpt>
        <trkpt lat="28.911713" lon="105.42516"><ele>266.20923</ele><time>2026-07-30T17:52:55.000Z</time></trkpt>
        <trkpt lat="28.911714" lon="105.42516"><ele>267.08966</ele><time>2026-07-30T17:52:57.000Z</time></trkpt>
        <trkpt lat="28.911741" lon="105.425168"><ele>267.03415</ele><time>2026-07-30T17:53:00.000Z</time></trkpt>
        <trkpt lat="28.911758" lon="105.425178"><ele>266.35846</ele><time>2026-07-30T17:53:06.000Z</time></trkpt>
        <trkpt lat="28.911775" lon="105.425193"><ele>266.70825</ele><time>2026-07-30T17:53:08.000Z</time></trkpt>
        <trkpt lat="28.911791" lon="105.425211"><ele>266.041</ele><time>2026-07-30T17:53:10.000Z</time></trkpt>
        <trkpt lat="28.911799" lon="105.425228"><ele>266.13928</ele><time>2026-07-30T17:53:12.000Z</time></trkpt>
        <trkpt lat="28.911804" lon="105.425245"><ele>266.514</ele><time>2026-07-30T17:53:14.000Z</time></trkpt>
        <trkpt lat="28.911809" lon="105.425262"><ele>266.37427</ele><time>2026-07-30T17:53:16.000Z</time></trkpt>
        <trkpt lat="28.911816" lon="105.425282"><ele>266.34583</ele><time>2026-07-30T17:53:18.000Z</time></trkpt>
        <trkpt lat="28.911825" lon="105.425298"><ele>266.27057</ele><time>2026-07-30T17:53:20.000Z</time></trkpt>
        <trkpt lat="28.911835" lon="105.425309"><ele>265.58942</ele><time>2026-07-30T17:53:22.000Z</time></trkpt>
        <trkpt lat="28.911847" lon="105.425316"><ele>265.86066</ele><time>2026-07-30T17:53:24.000Z</time></trkpt>
        <trkpt lat="28.91186" lon="105.42532"><ele>265.66306</ele><time>2026-07-30T17:53:26.000Z</time></trkpt>
        <trkpt lat="28.911875" lon="105.425321"><ele>265.85046</ele><time>2026-07-30T17:53:28.000Z</time></trkpt>
        <trkpt lat="28.911883" lon="105.425324"><ele>266.28033</ele><time>2026-07-30T17:53:30.000Z</time></trkpt>
        <trkpt lat="28.911817" lon="105.425296"><ele>266.96454</ele><time>2026-07-30T17:53:52.000Z</time></trkpt>
        <trkpt lat="28.911801" lon="105.425289"><ele>266.88342</ele><time>2026-07-30T17:53:54.000Z</time></trkpt>
        <trkpt lat="28.911801" lon="105.425289"><ele>267.16547</ele><time>2026-07-30T17:53:56.000Z</time></trkpt>
        <trkpt lat="28.911808" lon="105.425353"><ele>269.2099</ele><time>2026-07-30T17:54:19.000Z</time></trkpt>
        <trkpt lat="28.91181" lon="105.425373"><ele>269.99573</ele><time>2026-07-30T17:54:21.000Z</time></trkpt>
        <trkpt lat="28.91181" lon="105.425374"><ele>269.4575</ele><time>2026-07-30T17:54:23.000Z</time></trkpt>
        <trkpt lat="28.911802" lon="105.425393"><ele>268.21252</ele><time>2026-07-30T17:54:27.000Z</time></trkpt>
        <trkpt lat="28.911793" lon="105.425416"><ele>268.25757</ele><time>2026-07-30T17:54:29.000Z</time></trkpt>
        <trkpt lat="28.911785" lon="105.425438"><ele>268.19275</ele><time>2026-07-30T17:54:31.000Z</time></trkpt>
        <trkpt lat="28.911778" lon="105.425457"><ele>268.10516</ele><time>2026-07-30T17:54:33.000Z</time></trkpt>
        <trkpt lat="28.911771" lon="105.425474"><ele>268.8028</ele><time>2026-07-30T17:54:35.000Z</time></trkpt>
        <trkpt lat="28.911762" lon="105.425493"><ele>268.7124</ele><time>2026-07-30T17:54:37.000Z</time></trkpt>
        <trkpt lat="28.911752" lon="105.425511"><ele>268.74988</ele><time>2026-07-30T17:54:39.000Z</time></trkpt>
        <trkpt lat="28.911742" lon="105.42553"><ele>268.0723</ele><time>2026-07-30T17:54:41.000Z</time></trkpt>
        <trkpt lat="28.911735" lon="105.425546"><ele>268.13928</ele><time>2026-07-30T17:54:43.000Z</time></trkpt>
        <trkpt lat="28.911727" lon="105.425562"><ele>268.78082</ele><time>2026-07-30T17:54:45.000Z</time></trkpt>
        <trkpt lat="28.91172" lon="105.425574"><ele>268.8261</ele><time>2026-07-30T17:54:47.000Z</time></trkpt>
        <trkpt lat="28.911714" lon="105.42558"><ele>269.25525</ele><time>2026-07-30T17:54:49.000Z</time></trkpt>
        <trkpt lat="28.911701" lon="105.425587"><ele>268.34622</ele><time>2026-07-30T17:54:55.000Z</time></trkpt>
        <trkpt lat="28.911686" lon="105.425596"><ele>267.88495</ele><time>2026-07-30T17:54:59.000Z</time></trkpt>
        <trkpt lat="28.911667" lon="105.425608"><ele>266.52753</ele><time>2026-07-30T17:55:01.000Z</time></trkpt>
        <trkpt lat="28.911665" lon="105.425609"><ele>266.4063</ele><time>2026-07-30T17:55:05.000Z</time></trkpt>
        <trkpt lat="28.911644" lon="105.425604"><ele>268.44193</ele><time>2026-07-30T17:55:13.000Z</time></trkpt>
        <trkpt lat="28.911607" lon="105.425595"><ele>267.3422</ele><time>2026-07-30T17:55:25.000Z</time></trkpt>
        <trkpt lat="28.911605" lon="105.425589"><ele>267.64218</ele><time>2026-07-30T17:55:27.000Z</time></trkpt>
        <trkpt lat="28.911596" lon="105.425548"><ele>268.35504</ele><time>2026-07-30T17:55:47.000Z</time></trkpt>
        <trkpt lat="28.911585" lon="105.425517"><ele>268.74207</ele><time>2026-07-30T17:55:50.000Z</time></trkpt>
        <trkpt lat="28.911581" lon="105.425499"><ele>267.93524</ele><time>2026-07-30T17:55:52.000Z</time></trkpt>
        <trkpt lat="28.911575" lon="105.425455"><ele>267.15112</ele><time>2026-07-30T17:56:00.000Z</time></trkpt>
        <trkpt lat="28.911572" lon="105.425434"><ele>267.2226</ele><time>2026-07-30T17:56:02.000Z</time></trkpt>
        <trkpt lat="28.911573" lon="105.425416"><ele>267.0058</ele><time>2026-07-30T17:56:04.000Z</time></trkpt>
        <trkpt lat="28.911575" lon="105.425381"><ele>267.40204</ele><time>2026-07-30T17:56:08.000Z</time></trkpt>
        <trkpt lat="28.911575" lon="105.425365"><ele>267.41638</ele><time>2026-07-30T17:56:10.000Z</time></trkpt>
        <trkpt lat="28.911574" lon="105.425342"><ele>267.476</ele><time>2026-07-30T17:56:12.000Z</time></trkpt>
        <trkpt lat="28.911571" lon="105.42531"><ele>267.8403</ele><time>2026-07-30T17:56:14.000Z</time></trkpt>
        <trkpt lat="28.911569" lon="105.425286"><ele>267.93185</ele><time>2026-07-30T17:56:16.000Z</time></trkpt>
        <trkpt lat="28.911568" lon="105.425269"><ele>268.30862</ele><time>2026-07-30T17:56:18.000Z</time></trkpt>
        <trkpt lat="28.911569" lon="105.425253"><ele>267.96857</ele><time>2026-07-30T17:56:20.000Z</time></trkpt>
        <trkpt lat="28.911572" lon="105.425233"><ele>268.61826</ele><time>2026-07-30T17:56:22.000Z</time></trkpt>
        <trkpt lat="28.911575" lon="105.425212"><ele>268.69556</ele><time>2026-07-30T17:56:24.000Z</time></trkpt>
        <trkpt lat="28.911576" lon="105.425189"><ele>269.5519</ele><time>2026-07-30T17:56:26.000Z</time></trkpt>
        <trkpt lat="28.911576" lon="105.425163"><ele>268.91953</ele><time>2026-07-30T17:56:28.000Z</time></trkpt>
        <trkpt lat="28.911577" lon="105.425138"><ele>269.06815</ele><time>2026-07-30T17:56:30.000Z</time></trkpt>
        <trkpt lat="28.911577" lon="105.425115"><ele>268.8591</ele><time>2026-07-30T17:56:32.000Z</time></trkpt>
        <trkpt lat="28.911576" lon="105.425092"><ele>268.85834</ele><time>2026-07-30T17:56:34.000Z</time></trkpt>
        <trkpt lat="28.911577" lon="105.425068"><ele>268.3457</ele><time>2026-07-30T17:56:36.000Z</time></trkpt>
        <trkpt lat="28.911578" lon="105.425044"><ele>268.0303</ele><time>2026-07-30T17:56:38.000Z</time></trkpt>
        <trkpt lat="28.911579" lon="105.425021"><ele>267.83093</ele><time>2026-07-30T17:56:40.000Z</time></trkpt>
        <trkpt lat="28.91158" lon="105.424996"><ele>267.8098</ele><time>2026-07-30T17:56:42.000Z</time></trkpt>
        <trkpt lat="28.911581" lon="105.424972"><ele>267.7846</ele><time>2026-07-30T17:56:44.000Z</time></trkpt>
        <trkpt lat="28.91158" lon="105.42495"><ele>268.13556</ele><time>2026-07-30T17:56:46.000Z</time></trkpt>
        <trkpt lat="28.911578" lon="105.424929"><ele>267.72592</ele><time>2026-07-30T17:56:48.000Z</time></trkpt>
        <trkpt lat="28.911577" lon="105.424909"><ele>267.32687</ele><time>2026-07-30T17:56:50.000Z</time></trkpt>
        <trkpt lat="28.911576" lon="105.42489"><ele>267.29443</ele><time>2026-07-30T17:56:52.000Z</time></trkpt>
        <trkpt lat="28.911574" lon="105.424868"><ele>267.03696</ele><time>2026-07-30T17:56:54.000Z</time></trkpt>
        <trkpt lat="28.911572" lon="105.424848"><ele>267.1494</ele><time>2026-07-30T17:56:56.000Z</time></trkpt>
        <trkpt lat="28.911572" lon="105.424826"><ele>267.34543</ele><time>2026-07-30T17:56:58.000Z</time></trkpt>
        <trkpt lat="28.911571" lon="105.424806"><ele>267.27542</ele><time>2026-07-30T17:57:00.000Z</time></trkpt>
        <trkpt lat="28.911571" lon="105.424785"><ele>267.0467</ele><time>2026-07-30T17:57:02.000Z</time></trkpt>
        <trkpt lat="28.911571" lon="105.424763"><ele>267.3416</ele><time>2026-07-30T17:57:04.000Z</time></trkpt>
        <trkpt lat="28.911571" lon="105.42474"><ele>267.75</ele><time>2026-07-30T17:57:06.000Z</time></trkpt>
        <trkpt lat="28.911569" lon="105.424722"><ele>267.79245</ele><time>2026-07-30T17:57:08.000Z</time></trkpt>
        <trkpt lat="28.911568" lon="105.424708"><ele>267.85626</ele><time>2026-07-30T17:57:10.000Z</time></trkpt>
        <trkpt lat="28.911567" lon="105.424696"><ele>267.71283</ele><time>2026-07-30T17:57:12.000Z</time></trkpt>
        <trkpt lat="28.911567" lon="105.42469"><ele>267.8374</ele><time>2026-07-30T17:57:14.000Z</time></trkpt>
        <trkpt lat="28.911566" lon="105.424673"><ele>268.47668</ele><time>2026-07-30T17:57:18.000Z</time></trkpt>
        <trkpt lat="28.911566" lon="105.424671"><ele>268.65845</ele><time>2026-07-30T17:57:20.000Z</time></trkpt>
        <trkpt lat="28.911563" lon="105.424667"><ele>268.40503</ele><time>2026-07-30T17:57:24.000Z</time></trkpt>
        <trkpt lat="28.911542" lon="105.424641"><ele>268.54843</ele><time>2026-07-30T17:57:28.000Z</time></trkpt>
        <trkpt lat="28.911542" lon="105.424641"><ele>268.4436</ele><time>2026-07-30T17:57:30.000Z</time></trkpt>
        <trkpt lat="28.911524" lon="105.42464"><ele>268.85403</ele><time>2026-07-30T17:57:32.000Z</time></trkpt>
        <trkpt lat="28.911508" lon="105.424638"><ele>268.33807</ele><time>2026-07-30T17:57:38.000Z</time></trkpt>
        <trkpt lat="28.911488" lon="105.424631"><ele>268.03958</ele><time>2026-07-30T17:57:40.000Z</time></trkpt>
        <trkpt lat="28.911467" lon="105.424624"><ele>268.31165</ele><time>2026-07-30T17:57:42.000Z</time></trkpt>
        <trkpt lat="28.911443" lon="105.424615"><ele>268.21176</ele><time>2026-07-30T17:57:44.000Z</time></trkpt>
        <trkpt lat="28.91142" lon="105.42461"><ele>268.52335</ele><time>2026-07-30T17:57:46.000Z</time></trkpt>
        <trkpt lat="28.911399" lon="105.424607"><ele>269.24387</ele><time>2026-07-30T17:57:48.000Z</time></trkpt>
        <trkpt lat="28.911378" lon="105.424605"><ele>269.8844</ele><time>2026-07-30T17:57:50.000Z</time></trkpt>
        <trkpt lat="28.911357" lon="105.424606"><ele>270.34033</ele><time>2026-07-30T17:57:52.000Z</time></trkpt>
        <trkpt lat="28.911333" lon="105.424612"><ele>271.70688</ele><time>2026-07-30T17:57:54.000Z</time></trkpt>
        <trkpt lat="28.911313" lon="105.42462"><ele>271.60965</ele><time>2026-07-30T17:57:56.000Z</time></trkpt>
        <trkpt lat="28.911295" lon="105.424628"><ele>270.8258</ele><time>2026-07-30T17:57:58.000Z</time></trkpt>
        <trkpt lat="28.911279" lon="105.424634"><ele>271.3355</ele><time>2026-07-30T17:58:00.000Z</time></trkpt>
        <trkpt lat="28.911265" lon="105.424643"><ele>270.10413</ele><time>2026-07-30T17:58:02.000Z</time></trkpt>
        <trkpt lat="28.911259" lon="105.42465"><ele>269.80017</ele><time>2026-07-30T17:58:04.000Z</time></trkpt>
        <trkpt lat="28.911254" lon="105.42465"><ele>269.98154</ele><time>2026-07-30T17:58:06.000Z</time></trkpt>
        <trkpt lat="28.911233" lon="105.424652"><ele>268.43262</ele><time>2026-07-30T17:58:13.000Z</time></trkpt>
        <trkpt lat="28.911219" lon="105.424653"><ele>267.93982</ele><time>2026-07-30T17:58:15.000Z</time></trkpt>
        <trkpt lat="28.911218" lon="105.424653"><ele>268.28558</ele><time>2026-07-30T17:58:17.000Z</time></trkpt>
        <trkpt lat="28.911193" lon="105.424657"><ele>268.20908</ele><time>2026-07-30T17:58:21.000Z</time></trkpt>
        <trkpt lat="28.911164" lon="105.424663"><ele>267.5334</ele><time>2026-07-30T17:58:23.000Z</time></trkpt>
        <trkpt lat="28.91114" lon="105.424667"><ele>268.16467</ele><time>2026-07-30T17:58:25.000Z</time></trkpt>
        <trkpt lat="28.911119" lon="105.424668"><ele>268.27963</ele><time>2026-07-30T17:58:27.000Z</time></trkpt>
        <trkpt lat="28.911101" lon="105.42467"><ele>268.5556</ele><time>2026-07-30T17:58:29.000Z</time></trkpt>
        <trkpt lat="28.911088" lon="105.424669"><ele>269.01913</ele><time>2026-07-30T17:58:31.000Z</time></trkpt>
        <trkpt lat="28.911084" lon="105.424673"><ele>268.83447</ele><time>2026-07-30T17:58:33.000Z</time></trkpt>
        <trkpt lat="28.911075" lon="105.424673"><ele>269.59964</ele><time>2026-07-30T17:58:39.000Z</time></trkpt>
        <trkpt lat="28.911062" lon="105.424674"><ele>269.65985</ele><time>2026-07-30T17:58:47.000Z</time></trkpt>
        <trkpt lat="28.911041" lon="105.424676"><ele>269.4937</ele><time>2026-07-30T17:58:49.000Z</time></trkpt>
        <trkpt lat="28.91104" lon="105.424676"><ele>269.3342</ele><time>2026-07-30T17:58:51.000Z</time></trkpt>
        <trkpt lat="28.911034" lon="105.424679"><ele>269.53702</ele><time>2026-07-30T17:58:55.000Z</time></trkpt>
        <trkpt lat="28.911009" lon="105.424686"><ele>270.21436</ele><time>2026-07-30T17:59:13.000Z</time></trkpt>
        <trkpt lat="28.910992" lon="105.42469"><ele>270.12793</ele><time>2026-07-30T17:59:15.000Z</time></trkpt>
        <trkpt lat="28.910978" lon="105.424693"><ele>269.90024</ele><time>2026-07-30T17:59:17.000Z</time></trkpt>
        <trkpt lat="28.91095" lon="105.424699"><ele>269.93497</ele><time>2026-07-30T17:59:20.000Z</time></trkpt>
        <trkpt lat="28.91095" lon="105.424699"><ele>269.86423</ele><time>2026-07-30T17:59:22.000Z</time></trkpt>
        <trkpt lat="28.910946" lon="105.4247"><ele>270.10016</ele><time>2026-07-30T17:59:24.000Z</time></trkpt>
        <trkpt lat="28.91092" lon="105.424708"><ele>271.44647</ele><time>2026-07-30T17:59:28.000Z</time></trkpt>
        <trkpt lat="28.91091" lon="105.424713"><ele>271.6575</ele><time>2026-07-30T17:59:30.000Z</time></trkpt>
        <trkpt lat="28.910911" lon="105.424713"><ele>272.15845</ele><time>2026-07-30T17:59:32.000Z</time></trkpt>
        <trkpt lat="28.910918" lon="105.424748"><ele>271.15237</ele><time>2026-07-30T17:59:40.000Z</time></trkpt>
        <trkpt lat="28.910918" lon="105.424752"><ele>270.5726</ele><time>2026-07-30T17:59:42.000Z</time></trkpt>
        <trkpt lat="28.910918" lon="105.424752"><ele>270.7799</ele><time>2026-07-30T17:59:44.000Z</time></trkpt>
        <trkpt lat="28.910889" lon="105.42478"><ele>270.8585</ele><time>2026-07-30T18:00:12.000Z</time></trkpt>
        <trkpt lat="28.910879" lon="105.424789"><ele>271.6147</ele><time>2026-07-30T18:00:14.000Z</time></trkpt>
        <trkpt lat="28.910878" lon="105.42479"><ele>271.28983</ele><time>2026-07-30T18:00:16.000Z</time></trkpt>
        <trkpt lat="28.910852" lon="105.424803"><ele>271.2944</ele><time>2026-07-30T18:00:18.000Z</time></trkpt>
        <trkpt lat="28.910846" lon="105.424804"><ele>271.6106</ele><time>2026-07-30T18:00:22.000Z</time></trkpt>
        <trkpt lat="28.910828" lon="105.424809"><ele>271.54233</ele><time>2026-07-30T18:00:24.000Z</time></trkpt>
        <trkpt lat="28.910803" lon="105.424816"><ele>271.55188</ele><time>2026-07-30T18:00:26.000Z</time></trkpt>
        <trkpt lat="28.910776" lon="105.424823"><ele>271.18713</ele><time>2026-07-30T18:00:28.000Z</time></trkpt>
        <trkpt lat="28.91075" lon="105.42483"><ele>271.65482</ele><time>2026-07-30T18:00:30.000Z</time></trkpt>
        <trkpt lat="28.910727" lon="105.424836"><ele>271.7329</ele><time>2026-07-30T18:00:32.000Z</time></trkpt>
        <trkpt lat="28.910708" lon="105.42484"><ele>271.67444</ele><time>2026-07-30T18:00:34.000Z</time></trkpt>
        <trkpt lat="28.91069" lon="105.424842"><ele>272.52505</ele><time>2026-07-30T18:00:36.000Z</time></trkpt>
        <trkpt lat="28.910672" lon="105.424843"><ele>272.8226</ele><time>2026-07-30T18:00:38.000Z</time></trkpt>
        <trkpt lat="28.910656" lon="105.424846"><ele>273.67413</ele><time>2026-07-30T18:00:40.000Z</time></trkpt>
        <trkpt lat="28.910636" lon="105.424851"><ele>273.69788</ele><time>2026-07-30T18:00:42.000Z</time></trkpt>
        <trkpt lat="28.910616" lon="105.424857"><ele>273.50095</ele><time>2026-07-30T18:00:44.000Z</time></trkpt>
        <trkpt lat="28.910597" lon="105.424858"><ele>272.85724</ele><time>2026-07-30T18:00:46.000Z</time></trkpt>
        <trkpt lat="28.910576" lon="105.424857"><ele>273.3336</ele><time>2026-07-30T18:00:48.000Z</time></trkpt>
        <trkpt lat="28.910555" lon="105.424856"><ele>273.96945</ele><time>2026-07-30T18:00:50.000Z</time></trkpt>
        <trkpt lat="28.910535" lon="105.424854"><ele>273.49286</ele><time>2026-07-30T18:00:52.000Z</time></trkpt>
        <trkpt lat="28.910516" lon="105.424852"><ele>272.24802</ele><time>2026-07-30T18:00:54.000Z</time></trkpt>
        <trkpt lat="28.910497" lon="105.424849"><ele>272.55966</ele><time>2026-07-30T18:00:56.000Z</time></trkpt>
        <trkpt lat="28.910479" lon="105.424848"><ele>272.89978</ele><time>2026-07-30T18:00:58.000Z</time></trkpt>
        <trkpt lat="28.910462" lon="105.42485"><ele>272.99887</ele><time>2026-07-30T18:01:00.000Z</time></trkpt>
        <trkpt lat="28.910445" lon="105.424855"><ele>273.22443</ele><time>2026-07-30T18:01:02.000Z</time></trkpt>
        <trkpt lat="28.910425" lon="105.424861"><ele>273.63046</ele><time>2026-07-30T18:01:04.000Z</time></trkpt>
        <trkpt lat="28.910408" lon="105.424868"><ele>274.67047</ele><time>2026-07-30T18:01:06.000Z</time></trkpt>
        <trkpt lat="28.910397" lon="105.424874"><ele>275.21243</ele><time>2026-07-30T18:01:08.000Z</time></trkpt>
        <trkpt lat="28.910386" lon="105.424879"><ele>275.0684</ele><time>2026-07-30T18:01:10.000Z</time></trkpt>
        <trkpt lat="28.910376" lon="105.424881"><ele>275.37433</ele><time>2026-07-30T18:01:12.000Z</time></trkpt>
        <trkpt lat="28.910367" lon="105.424884"><ele>275.59183</ele><time>2026-07-30T18:01:14.000Z</time></trkpt>
        <trkpt lat="28.910345" lon="105.424892"><ele>274.99625</ele><time>2026-07-30T18:01:55.000Z</time></trkpt>
        <trkpt lat="28.910451" lon="105.424848"><ele>274.45917</ele><time>2026-07-30T18:04:16.000Z</time></trkpt>
        <trkpt lat="28.910481" lon="105.424839"><ele>274.8993</ele><time>2026-07-30T18:04:18.000Z</time></trkpt>
        <trkpt lat="28.9105" lon="105.42483"><ele>274.552</ele><time>2026-07-30T18:04:20.000Z</time></trkpt>
        <trkpt lat="28.910525" lon="105.424812"><ele>274.49274</ele><time>2026-07-30T18:04:23.000Z</time></trkpt>
        <trkpt lat="28.910547" lon="105.424791"><ele>273.7786</ele><time>2026-07-30T18:04:29.000Z</time></trkpt>
        <trkpt lat="28.910562" lon="105.424767"><ele>273.51163</ele><time>2026-07-30T18:04:31.000Z</time></trkpt>
        <trkpt lat="28.910575" lon="105.424744"><ele>273.66537</ele><time>2026-07-30T18:04:33.000Z</time></trkpt>
        <trkpt lat="28.910584" lon="105.424733"><ele>273.71228</ele><time>2026-07-30T18:04:35.000Z</time></trkpt>
        <trkpt lat="28.910598" lon="105.424725"><ele>273.80338</ele><time>2026-07-30T18:04:37.000Z</time></trkpt>
        <trkpt lat="28.910612" lon="105.424722"><ele>273.59784</ele><time>2026-07-30T18:04:39.000Z</time></trkpt>
        <trkpt lat="28.910629" lon="105.424719"><ele>273.4716</ele><time>2026-07-30T18:04:41.000Z</time></trkpt>
        <trkpt lat="28.910647" lon="105.424714"><ele>272.85226</ele><time>2026-07-30T18:04:43.000Z</time></trkpt>
        <trkpt lat="28.910663" lon="105.424706"><ele>272.72766</ele><time>2026-07-30T18:04:45.000Z</time></trkpt>
        <trkpt lat="28.910678" lon="105.424694"><ele>272.462</ele><time>2026-07-30T18:04:47.000Z</time></trkpt>
        <trkpt lat="28.910694" lon="105.42468"><ele>272.15256</ele><time>2026-07-30T18:04:49.000Z</time></trkpt>
        <trkpt lat="28.910709" lon="105.424664"><ele>271.98785</ele><time>2026-07-30T18:04:51.000Z</time></trkpt>
        <trkpt lat="28.910722" lon="105.424647"><ele>271.60312</ele><time>2026-07-30T18:04:53.000Z</time></trkpt>
        <trkpt lat="28.910735" lon="105.42463"><ele>271.41373</ele><time>2026-07-30T18:04:55.000Z</time></trkpt>
        <trkpt lat="28.910748" lon="105.424612"><ele>271.144</ele><time>2026-07-30T18:04:57.000Z</time></trkpt>
        <trkpt lat="28.910762" lon="105.424592"><ele>271.5933</ele><time>2026-07-30T18:04:59.000Z</time></trkpt>
        <trkpt lat="28.910775" lon="105.424571"><ele>271.16608</ele><time>2026-07-30T18:05:01.000Z</time></trkpt>
        <trkpt lat="28.910786" lon="105.42455"><ele>270.47833</ele><time>2026-07-30T18:05:03.000Z</time></trkpt>
        <trkpt lat="28.910794" lon="105.424529"><ele>270.81027</ele><time>2026-07-30T18:05:05.000Z</time></trkpt>
        <trkpt lat="28.9108" lon="105.424508"><ele>269.9497</ele><time>2026-07-30T18:05:07.000Z</time></trkpt>
        <trkpt lat="28.910808" lon="105.424486"><ele>270.04388</ele><time>2026-07-30T18:05:09.000Z</time></trkpt>
        <trkpt lat="28.910815" lon="105.424466"><ele>270.60745</ele><time>2026-07-30T18:05:11.000Z</time></trkpt>
        <trkpt lat="28.91082" lon="105.424443"><ele>270.5573</ele><time>2026-07-30T18:05:13.000Z</time></trkpt>
        <trkpt lat="28.910826" lon="105.424419"><ele>270.7404</ele><time>2026-07-30T18:05:15.000Z</time></trkpt>
        <trkpt lat="28.910831" lon="105.424395"><ele>270.842</ele><time>2026-07-30T18:05:17.000Z</time></trkpt>
        <trkpt lat="28.910835" lon="105.424373"><ele>270.56183</ele><time>2026-07-30T18:05:19.000Z</time></trkpt>
        <trkpt lat="28.91084" lon="105.42435"><ele>270.6616</ele><time>2026-07-30T18:05:21.000Z</time></trkpt>
        <trkpt lat="28.910845" lon="105.424329"><ele>271.4369</ele><time>2026-07-30T18:05:23.000Z</time></trkpt>
        <trkpt lat="28.910851" lon="105.424308"><ele>271.47858</ele><time>2026-07-30T18:05:25.000Z</time></trkpt>
        <trkpt lat="28.910857" lon="105.424288"><ele>271.02185</ele><time>2026-07-30T18:05:27.000Z</time></trkpt>
        <trkpt lat="28.910865" lon="105.424268"><ele>271.39905</ele><time>2026-07-30T18:05:29.000Z</time></trkpt>
        <trkpt lat="28.910876" lon="105.42425"><ele>270.9509</ele><time>2026-07-30T18:05:31.000Z</time></trkpt>
        <trkpt lat="28.91089" lon="105.424231"><ele>270.861</ele><time>2026-07-30T18:05:33.000Z</time></trkpt>
        <trkpt lat="28.910905" lon="105.424212"><ele>271.0776</ele><time>2026-07-30T18:05:35.000Z</time></trkpt>
        <trkpt lat="28.910918" lon="105.424193"><ele>270.96234</ele><time>2026-07-30T18:05:37.000Z</time></trkpt>
        <trkpt lat="28.910928" lon="105.424178"><ele>270.5247</ele><time>2026-07-30T18:05:39.000Z</time></trkpt>
        <trkpt lat="28.910927" lon="105.424174"><ele>270.71588</ele><time>2026-07-30T18:05:41.000Z</time></trkpt>
        <trkpt lat="28.910935" lon="105.424247"><ele>270.61118</ele><time>2026-07-30T18:06:24.000Z</time></trkpt>
        <trkpt lat="28.910942" lon="105.424313"><ele>270.2644</ele><time>2026-07-30T18:06:39.000Z</time></trkpt>
        <trkpt lat="28.910922" lon="105.424287"><ele>269.28403</ele><time>2026-07-30T18:06:49.000Z</time></trkpt>
        <trkpt lat="28.91095" lon="105.42413"><ele>268.94974</ele><time>2026-07-30T18:07:04.000Z</time></trkpt>
        <trkpt lat="28.91095" lon="105.42413"><ele>268.74338</ele><time>2026-07-30T18:07:06.000Z</time></trkpt>
        <trkpt lat="28.910953" lon="105.424117"><ele>268.4166</ele><time>2026-07-30T18:07:08.000Z</time></trkpt>
        <trkpt lat="28.910982" lon="105.423996"><ele>268.27707</ele><time>2026-07-30T18:07:12.000Z</time></trkpt>
        <trkpt lat="28.910995" lon="105.423946"><ele>268.25974</ele><time>2026-07-30T18:07:14.000Z</time></trkpt>
        <trkpt lat="28.911009" lon="105.423898"><ele>268.23187</ele><time>2026-07-30T18:07:16.000Z</time></trkpt>
        <trkpt lat="28.911027" lon="105.423847"><ele>267.85446</ele><time>2026-07-30T18:07:18.000Z</time></trkpt>
        <trkpt lat="28.911054" lon="105.423789"><ele>267.26996</ele><time>2026-07-30T18:07:20.000Z</time></trkpt>
        <trkpt lat="28.911094" lon="105.423734"><ele>266.80084</ele><time>2026-07-30T18:07:22.000Z</time></trkpt>
        <trkpt lat="28.911145" lon="105.423684"><ele>266.5837</ele><time>2026-07-30T18:07:24.000Z</time></trkpt>
        <trkpt lat="28.911199" lon="105.423633"><ele>266.81183</ele><time>2026-07-30T18:07:26.000Z</time></trkpt>
        <trkpt lat="28.911267" lon="105.423613"><ele>266.4249</ele><time>2026-07-30T18:07:28.000Z</time></trkpt>
        <trkpt lat="28.911331" lon="105.423639"><ele>266.67288</ele><time>2026-07-30T18:07:30.000Z</time></trkpt>
        <trkpt lat="28.911404" lon="105.423668"><ele>266.15176</ele><time>2026-07-30T18:07:32.000Z</time></trkpt>
        <trkpt lat="28.911507" lon="105.423793"><ele>265.25244</ele><time>2026-07-30T18:07:34.000Z</time></trkpt>
        <trkpt lat="28.911516" lon="105.423798"><ele>265.0367</ele><time>2026-07-30T18:07:36.000Z</time></trkpt>
        <trkpt lat="28.911541" lon="105.423806"><ele>265.26697</ele><time>2026-07-30T18:07:38.000Z</time></trkpt>
        <trkpt lat="28.911637" lon="105.423821"><ele>265.65918</ele><time>2026-07-30T18:07:40.000Z</time></trkpt>
        <trkpt lat="28.911781" lon="105.423843"><ele>265.6123</ele><time>2026-07-30T18:07:42.000Z</time></trkpt>
        <trkpt lat="28.91193" lon="105.42382"><ele>265.0784</ele><time>2026-07-30T18:07:44.000Z</time></trkpt>
        <trkpt lat="28.912063" lon="105.423799"><ele>265.11826</ele><time>2026-07-30T18:07:46.000Z</time></trkpt>
        <trkpt lat="28.912174" lon="105.423741"><ele>264.85388</ele><time>2026-07-30T18:07:48.000Z</time></trkpt>
        <trkpt lat="28.912283" lon="105.423676"><ele>265.25543</ele><time>2026-07-30T18:07:50.000Z</time></trkpt>
        <trkpt lat="28.91239" lon="105.42361"><ele>265.83017</ele><time>2026-07-30T18:07:52.000Z</time></trkpt>
        <trkpt lat="28.912495" lon="105.423545"><ele>265.48776</ele><time>2026-07-30T18:07:54.000Z</time></trkpt>
        <trkpt lat="28.912597" lon="105.423483"><ele>264.93265</ele><time>2026-07-30T18:07:56.000Z</time></trkpt>
        <trkpt lat="28.912692" lon="105.423425"><ele>264.92172</ele><time>2026-07-30T18:07:58.000Z</time></trkpt>
        <trkpt lat="28.912776" lon="105.423382"><ele>265.036</ele><time>2026-07-30T18:08:00.000Z</time></trkpt>
        <trkpt lat="28.912836" lon="105.423351"><ele>265.0857</ele><time>2026-07-30T18:08:02.000Z</time></trkpt>
        <trkpt lat="28.912871" lon="105.423365"><ele>265.2722</ele><time>2026-07-30T18:08:04.000Z</time></trkpt>
        <trkpt lat="28.912891" lon="105.423388"><ele>265.0932</ele><time>2026-07-30T18:08:06.000Z</time></trkpt>
        <trkpt lat="28.912913" lon="105.423429"><ele>265.17404</ele><time>2026-07-30T18:08:08.000Z</time></trkpt>
        <trkpt lat="28.912941" lon="105.423495"><ele>265.3124</ele><time>2026-07-30T18:08:10.000Z</time></trkpt>
        <trkpt lat="28.91297" lon="105.423576"><ele>265.6028</ele><time>2026-07-30T18:08:12.000Z</time></trkpt>
        <trkpt lat="28.912992" lon="105.423637"><ele>266.33038</ele><time>2026-07-30T18:08:14.000Z</time></trkpt>
        <trkpt lat="28.913008" lon="105.423684"><ele>265.95346</ele><time>2026-07-30T18:08:16.000Z</time></trkpt>
        <trkpt lat="28.913027" lon="105.423733"><ele>266.33325</ele><time>2026-07-30T18:08:18.000Z</time></trkpt>
        <trkpt lat="28.913051" lon="105.423797"><ele>266.42905</ele><time>2026-07-30T18:08:20.000Z</time></trkpt>
        <trkpt lat="28.913081" lon="105.42387"><ele>266.46457</ele><time>2026-07-30T18:08:22.000Z</time></trkpt>
        <trkpt lat="28.913114" lon="105.423952"><ele>266.50876</ele><time>2026-07-30T18:08:24.000Z</time></trkpt>
        <trkpt lat="28.913151" lon="105.424041"><ele>266.43256</ele><time>2026-07-30T18:08:26.000Z</time></trkpt>
        <trkpt lat="28.913189" lon="105.42413"><ele>266.34708</ele><time>2026-07-30T18:08:28.000Z</time></trkpt>
        <trkpt lat="28.913225" lon="105.424213"><ele>266.12305</ele><time>2026-07-30T18:08:30.000Z</time></trkpt>
        <trkpt lat="28.913259" lon="105.424284"><ele>266.59695</ele><time>2026-07-30T18:08:32.000Z</time></trkpt>
        <trkpt lat="28.91329" lon="105.424338"><ele>266.34918</ele><time>2026-07-30T18:08:34.000Z</time></trkpt>
        <trkpt lat="28.913315" lon="105.424365"><ele>265.9405</ele><time>2026-07-30T18:08:36.000Z</time></trkpt>
        <trkpt lat="28.913331" lon="105.424371"><ele>265.35434</ele><time>2026-07-30T18:08:38.000Z</time></trkpt>
        <trkpt lat="28.913346" lon="105.424376"><ele>264.43973</ele><time>2026-07-30T18:08:40.000Z</time></trkpt>
        <trkpt lat="28.91337" lon="105.424323"><ele>267.012</ele><time>2026-07-30T18:09:22.000Z</time></trkpt>
        <trkpt lat="28.913379" lon="105.424307"><ele>266.90225</ele><time>2026-07-30T18:09:24.000Z</time></trkpt>
        <trkpt lat="28.91338" lon="105.424306"><ele>266.82672</ele><time>2026-07-30T18:09:26.000Z</time></trkpt>
        <trkpt lat="28.913289" lon="105.424347"><ele>266.34677</ele><time>2026-07-30T18:13:25.000Z</time></trkpt>
        <trkpt lat="28.913283" lon="105.424351"><ele>266.29</ele><time>2026-07-30T18:13:27.000Z</time></trkpt>
        <trkpt lat="28.913282" lon="105.42435"><ele>266.71375</ele><time>2026-07-30T18:13:29.000Z</time></trkpt>
        <trkpt lat="28.913108" lon="105.423987"><ele>264.92688</ele><time>2026-07-30T18:13:46.000Z</time></trkpt>
        <trkpt lat="28.913108" lon="105.423987"><ele>264.52875</ele><time>2026-07-30T18:13:48.000Z</time></trkpt>
        <trkpt lat="28.913098" lon="105.423959"><ele>264.6854</ele><time>2026-07-30T18:13:50.000Z</time></trkpt>
        <trkpt lat="28.913053" lon="105.423844"><ele>264.42343</ele><time>2026-07-30T18:13:52.000Z</time></trkpt>
        <trkpt lat="28.9129" lon="105.423455"><ele>264.29846</ele><time>2026-07-30T18:13:54.000Z</time></trkpt>
        <trkpt lat="28.91289" lon="105.423439"><ele>263.80215</ele><time>2026-07-30T18:13:56.000Z</time></trkpt>
        <trkpt lat="28.912881" lon="105.423435"><ele>263.82605</ele><time>2026-07-30T18:13:58.000Z</time></trkpt>
        <trkpt lat="28.912833" lon="105.423412"><ele>264.38138</ele><time>2026-07-30T18:14:00.000Z</time></trkpt>
        <trkpt lat="28.912727" lon="105.423423"><ele>264.23047</ele><time>2026-07-30T18:14:02.000Z</time></trkpt>
        <trkpt lat="28.912596" lon="105.423453"><ele>263.92575</ele><time>2026-07-30T18:14:04.000Z</time></trkpt>
        <trkpt lat="28.912467" lon="105.423496"><ele>263.79773</ele><time>2026-07-30T18:14:06.000Z</time></trkpt>
        <trkpt lat="28.912343" lon="105.423549"><ele>263.60944</ele><time>2026-07-30T18:14:08.000Z</time></trkpt>
        <trkpt lat="28.912219" lon="105.423611"><ele>263.57132</ele><time>2026-07-30T18:14:10.000Z</time></trkpt>
        <trkpt lat="28.912099" lon="105.423676"><ele>263.75266</ele><time>2026-07-30T18:14:12.000Z</time></trkpt>
        <trkpt lat="28.911988" lon="105.423739"><ele>264.11792</ele><time>2026-07-30T18:14:14.000Z</time></trkpt>
        <trkpt lat="28.911884" lon="105.423793"><ele>264.04877</ele><time>2026-07-30T18:14:16.000Z</time></trkpt>
        <trkpt lat="28.911782" lon="105.423831"><ele>264.3953</ele><time>2026-07-30T18:14:18.000Z</time></trkpt>
        <trkpt lat="28.911686" lon="105.423867"><ele>264.4234</ele><time>2026-07-30T18:14:20.000Z</time></trkpt>
        <trkpt lat="28.911591" lon="105.423854"><ele>264.55502</ele><time>2026-07-30T18:14:22.000Z</time></trkpt>
        <trkpt lat="28.911501" lon="105.423842"><ele>265.17975</ele><time>2026-07-30T18:14:24.000Z</time></trkpt>
        <trkpt lat="28.911426" lon="105.423791"><ele>265.59732</ele><time>2026-07-30T18:14:26.000Z</time></trkpt>
        <trkpt lat="28.91136" lon="105.423732"><ele>265.93997</ele><time>2026-07-30T18:14:28.000Z</time></trkpt>
        <trkpt lat="28.911299" lon="105.42369"><ele>266.05704</ele><time>2026-07-30T18:14:30.000Z</time></trkpt>
        <trkpt lat="28.911244" lon="105.423652"><ele>266.02704</ele><time>2026-07-30T18:14:32.000Z</time></trkpt>
        <trkpt lat="28.91118" lon="105.423654"><ele>266.4746</ele><time>2026-07-30T18:14:34.000Z</time></trkpt>
        <trkpt lat="28.91111" lon="105.423691"><ele>267.69714</ele><time>2026-07-30T18:14:36.000Z</time></trkpt>
        <trkpt lat="28.911059" lon="105.423763"><ele>268.05252</ele><time>2026-07-30T18:14:38.000Z</time></trkpt>
        <trkpt lat="28.911028" lon="105.42382"><ele>268.20395</ele><time>2026-07-30T18:14:40.000Z</time></trkpt>
        <trkpt lat="28.911012" lon="105.423864"><ele>268.3385</ele><time>2026-07-30T18:14:42.000Z</time></trkpt>
        <trkpt lat="28.910994" lon="105.423919"><ele>268.73886</ele><time>2026-07-30T18:14:44.000Z</time></trkpt>
        <trkpt lat="28.910977" lon="105.423984"><ele>269.38254</ele><time>2026-07-30T18:14:46.000Z</time></trkpt>
        <trkpt lat="28.910965" lon="105.424043"><ele>269.55203</ele><time>2026-07-30T18:14:48.000Z</time></trkpt>
        <trkpt lat="28.910962" lon="105.424077"><ele>269.5024</ele><time>2026-07-30T18:14:50.000Z</time></trkpt>
        <trkpt lat="28.910968" lon="105.424085"><ele>269.44403</ele><time>2026-07-30T18:14:52.000Z</time></trkpt>
        <trkpt lat="28.910983" lon="105.424105"><ele>268.72443</ele><time>2026-07-30T18:16:20.000Z</time></trkpt>
        <trkpt lat="28.910971" lon="105.424147"><ele>269.21634</ele><time>2026-07-30T18:16:22.000Z</time></trkpt>
        <trkpt lat="28.91097" lon="105.424151"><ele>269.57703</ele><time>2026-07-30T18:16:24.000Z</time></trkpt>
        <trkpt lat="28.91096" lon="105.424175"><ele>269.4651</ele><time>2026-07-30T18:16:28.000Z</time></trkpt>
        <trkpt lat="28.910946" lon="105.424207"><ele>269.5937</ele><time>2026-07-30T18:16:32.000Z</time></trkpt>
        <trkpt lat="28.910942" lon="105.424213"><ele>269.73505</ele><time>2026-07-30T18:16:34.000Z</time></trkpt>
        <trkpt lat="28.910921" lon="105.424246"><ele>270.05408</ele><time>2026-07-30T18:17:35.000Z</time></trkpt>
        <trkpt lat="28.910921" lon="105.42425"><ele>270.28595</ele><time>2026-07-30T18:17:39.000Z</time></trkpt>
        <trkpt lat="28.910928" lon="105.424275"><ele>270.86896</ele><time>2026-07-30T18:17:41.000Z</time></trkpt>
        <trkpt lat="28.910937" lon="105.424304"><ele>270.80676</ele><time>2026-07-30T18:17:43.000Z</time></trkpt>
        <trkpt lat="28.910944" lon="105.424325"><ele>271.02975</ele><time>2026-07-30T18:17:45.000Z</time></trkpt>
        <trkpt lat="28.910945" lon="105.424337"><ele>271.00693</ele><time>2026-07-30T18:17:47.000Z</time></trkpt>
        <trkpt lat="28.91094" lon="105.424138"><ele>271.1832</ele><time>2026-07-30T18:18:04.000Z</time></trkpt>
        <trkpt lat="28.91094" lon="105.424137"><ele>270.5486</ele><time>2026-07-30T18:18:06.000Z</time></trkpt>
        <trkpt lat="28.910945" lon="105.42412"><ele>269.28235</ele><time>2026-07-30T18:18:08.000Z</time></trkpt>
        <trkpt lat="28.91096" lon="105.424059"><ele>269.1347</ele><time>2026-07-30T18:18:10.000Z</time></trkpt>
        <trkpt lat="28.91098" lon="105.423979"><ele>268.71902</ele><time>2026-07-30T18:18:12.000Z</time></trkpt>
        <trkpt lat="28.911004" lon="105.423895"><ele>268.65533</ele><time>2026-07-30T18:18:14.000Z</time></trkpt>
        <trkpt lat="28.911035" lon="105.423811"><ele>267.8709</ele><time>2026-07-30T18:18:16.000Z</time></trkpt>
        <trkpt lat="28.911073" lon="105.423736"><ele>267.02298</ele><time>2026-07-30T18:18:18.000Z</time></trkpt>
        <trkpt lat="28.911113" lon="105.423683"><ele>266.74863</ele><time>2026-07-30T18:18:20.000Z</time></trkpt>
        <trkpt lat="28.91115" lon="105.423649"><ele>267.1751</ele><time>2026-07-30T18:18:22.000Z</time></trkpt>
        <trkpt lat="28.911184" lon="105.423628"><ele>267.5447</ele><time>2026-07-30T18:18:24.000Z</time></trkpt>
        <trkpt lat="28.911208" lon="105.42362"><ele>267.5954</ele><time>2026-07-30T18:18:26.000Z</time></trkpt>
        <trkpt lat="28.911217" lon="105.423624"><ele>267.3164</ele><time>2026-07-30T18:18:28.000Z</time></trkpt>
        <trkpt lat="28.911241" lon="105.42363"><ele>267.19455</ele><time>2026-07-30T18:18:39.000Z</time></trkpt>
        <trkpt lat="28.911276" lon="105.423642"><ele>267.01617</ele><time>2026-07-30T18:18:45.000Z</time></trkpt>
        <trkpt lat="28.911331" lon="105.423668"><ele>266.80902</ele><time>2026-07-30T18:18:47.000Z</time></trkpt>
        <trkpt lat="28.911402" lon="105.423715"><ele>266.15308</ele><time>2026-07-30T18:18:49.000Z</time></trkpt>
        <trkpt lat="28.911532" lon="105.423802"><ele>265.86404</ele><time>2026-07-30T18:18:51.000Z</time></trkpt>
        <trkpt lat="28.911542" lon="105.423806"><ele>265.06143</ele><time>2026-07-30T18:18:53.000Z</time></trkpt>
        <trkpt lat="28.911557" lon="105.423808"><ele>265.17645</ele><time>2026-07-30T18:18:55.000Z</time></trkpt>
        <trkpt lat="28.911623" lon="105.423812"><ele>264.75723</ele><time>2026-07-30T18:18:57.000Z</time></trkpt>
        <trkpt lat="28.911748" lon="105.42381"><ele>264.89444</ele><time>2026-07-30T18:18:59.000Z</time></trkpt>
        <trkpt lat="28.911896" lon="105.423793"><ele>264.66577</ele><time>2026-07-30T18:19:01.000Z</time></trkpt>
        <trkpt lat="28.912037" lon="105.423777"><ele>264.65442</ele><time>2026-07-30T18:19:03.000Z</time></trkpt>
        <trkpt lat="28.912158" lon="105.423721"><ele>265.53012</ele><time>2026-07-30T18:19:05.000Z</time></trkpt>
        <trkpt lat="28.91227" lon="105.423662"><ele>265.21262</ele><time>2026-07-30T18:19:07.000Z</time></trkpt>
        <trkpt lat="28.912372" lon="105.423604"><ele>265.89557</ele><time>2026-07-30T18:19:09.000Z</time></trkpt>
        <trkpt lat="28.912466" lon="105.423548"><ele>265.22394</ele><time>2026-07-30T18:19:11.000Z</time></trkpt>
        <trkpt lat="28.912548" lon="105.423497"><ele>265.61255</ele><time>2026-07-30T18:19:13.000Z</time></trkpt>
        <trkpt lat="28.912605" lon="105.423462"><ele>265.71948</ele><time>2026-07-30T18:19:15.000Z</time></trkpt>
        <trkpt lat="28.912646" lon="105.423437"><ele>266.10385</ele><time>2026-07-30T18:19:17.000Z</time></trkpt>
        <trkpt lat="28.912679" lon="105.423416"><ele>266.3737</ele><time>2026-07-30T18:19:19.000Z</time></trkpt>
        <trkpt lat="28.912707" lon="105.423398"><ele>266.69846</ele><time>2026-07-30T18:19:21.000Z</time></trkpt>
        <trkpt lat="28.912727" lon="105.423385"><ele>266.90863</ele><time>2026-07-30T18:19:23.000Z</time></trkpt>
        <trkpt lat="28.912738" lon="105.423381"><ele>266.97876</ele><time>2026-07-30T18:19:25.000Z</time></trkpt>
        <trkpt lat="28.912745" lon="105.423379"><ele>266.093</ele><time>2026-07-30T18:19:37.000Z</time></trkpt>
        <trkpt lat="28.912779" lon="105.423376"><ele>266.10144</ele><time>2026-07-30T18:19:45.000Z</time></trkpt>
        <trkpt lat="28.912813" lon="105.423373"><ele>266.1379</ele><time>2026-07-30T18:19:47.000Z</time></trkpt>
        <trkpt lat="28.912814" lon="105.423374"><ele>266.31982</ele><time>2026-07-30T18:19:49.000Z</time></trkpt>
        <trkpt lat="28.91282" lon="105.423382"><ele>265.9733</ele><time>2026-07-30T18:19:51.000Z</time></trkpt>
        <trkpt lat="28.912842" lon="105.423421"><ele>266.4626</ele><time>2026-07-30T18:19:53.000Z</time></trkpt>
        <trkpt lat="28.912886" lon="105.423493"><ele>266.25995</ele><time>2026-07-30T18:19:55.000Z</time></trkpt>
        <trkpt lat="28.912938" lon="105.423564"><ele>266.3213</ele><time>2026-07-30T18:19:57.000Z</time></trkpt>
        <trkpt lat="28.912982" lon="105.423608"><ele>266.17935</ele><time>2026-07-30T18:19:59.000Z</time></trkpt>
        <trkpt lat="28.913016" lon="105.423628"><ele>265.85886</ele><time>2026-07-30T18:20:01.000Z</time></trkpt>
        <trkpt lat="28.913041" lon="105.423629"><ele>265.96643</ele><time>2026-07-30T18:20:03.000Z</time></trkpt>
        <trkpt lat="28.913065" lon="105.42362"><ele>266.10602</ele><time>2026-07-30T18:20:05.000Z</time></trkpt>
        <trkpt lat="28.913098" lon="105.4236"><ele>266.15283</ele><time>2026-07-30T18:20:07.000Z</time></trkpt>
        <trkpt lat="28.913137" lon="105.423569"><ele>266.39044</ele><time>2026-07-30T18:20:09.000Z</time></trkpt>
        <trkpt lat="28.913172" lon="105.423538"><ele>266.88205</ele><time>2026-07-30T18:20:11.000Z</time></trkpt>
        <trkpt lat="28.913201" lon="105.423513"><ele>266.75214</ele><time>2026-07-30T18:20:13.000Z</time></trkpt>
        <trkpt lat="28.913222" lon="105.423493"><ele>267.14545</ele><time>2026-07-30T18:20:15.000Z</time></trkpt>
        <trkpt lat="28.913238" lon="105.423479"><ele>267.23395</ele><time>2026-07-30T18:20:17.000Z</time></trkpt>
        <trkpt lat="28.913244" lon="105.423481"><ele>267.3996</ele><time>2026-07-30T18:20:19.000Z</time></trkpt>
        <trkpt lat="28.913173" lon="105.42345"><ele>268.29724</ele><time>2026-07-30T18:21:50.000Z</time></trkpt>
        <trkpt lat="28.913214" lon="105.423428"><ele>268.31372</ele><time>2026-07-30T18:22:05.000Z</time></trkpt>
        <trkpt lat="28.913299" lon="105.423457"><ele>267.01468</ele><time>2026-07-30T18:22:50.000Z</time></trkpt>
        <trkpt lat="28.91335" lon="105.423445"><ele>267.77444</ele><time>2026-07-30T18:23:00.000Z</time></trkpt>
        <trkpt lat="28.91335" lon="105.423445"><ele>267.70627</ele><time>2026-07-30T18:23:02.000Z</time></trkpt>
        <trkpt lat="28.913381" lon="105.423449"><ele>267.60675</ele><time>2026-07-30T18:23:04.000Z</time></trkpt>
        <trkpt lat="28.9134" lon="105.423452"><ele>267.0649</ele><time>2026-07-30T18:23:16.000Z</time></trkpt>
        <trkpt lat="28.913424" lon="105.423455"><ele>267.11646</ele><time>2026-07-30T18:23:18.000Z</time></trkpt>
        <trkpt lat="28.913426" lon="105.423455"><ele>267.25345</ele><time>2026-07-30T18:23:20.000Z</time></trkpt>
        <trkpt lat="28.913441" lon="105.42346"><ele>266.9965</ele><time>2026-07-30T18:23:24.000Z</time></trkpt>
        <trkpt lat="28.913486" lon="105.423474"><ele>266.9355</ele><time>2026-07-30T18:23:28.000Z</time></trkpt>
        <trkpt lat="28.913508" lon="105.423481"><ele>267.02237</ele><time>2026-07-30T18:23:30.000Z</time></trkpt>
        <trkpt lat="28.913531" lon="105.423487"><ele>266.6573</ele><time>2026-07-30T18:23:32.000Z</time></trkpt>
        <trkpt lat="28.91355" lon="105.423491"><ele>266.8811</ele><time>2026-07-30T18:23:34.000Z</time></trkpt>
        <trkpt lat="28.913568" lon="105.423493"><ele>266.25552</ele><time>2026-07-30T18:23:36.000Z</time></trkpt>
        <trkpt lat="28.913585" lon="105.423492"><ele>265.96088</ele><time>2026-07-30T18:23:38.000Z</time></trkpt>
        <trkpt lat="28.913604" lon="105.423492"><ele>265.1277</ele><time>2026-07-30T18:23:40.000Z</time></trkpt>
        <trkpt lat="28.913614" lon="105.423494"><ele>265.4916</ele><time>2026-07-30T18:23:42.000Z</time></trkpt>
        <trkpt lat="28.913629" lon="105.4235"><ele>266.63766</ele><time>2026-07-30T18:23:44.000Z</time></trkpt>
        <trkpt lat="28.913645" lon="105.423506"><ele>267.0329</ele><time>2026-07-30T18:23:46.000Z</time></trkpt>
        <trkpt lat="28.913662" lon="105.423512"><ele>267.87247</ele><time>2026-07-30T18:23:48.000Z</time></trkpt>
        <trkpt lat="28.913676" lon="105.423516"><ele>267.82825</ele><time>2026-07-30T18:23:50.000Z</time></trkpt>
        <trkpt lat="28.913691" lon="105.423522"><ele>267.98483</ele><time>2026-07-30T18:23:52.000Z</time></trkpt>
        <trkpt lat="28.913704" lon="105.423529"><ele>268.33508</ele><time>2026-07-30T18:23:54.000Z</time></trkpt>
        <trkpt lat="28.913709" lon="105.423532"><ele>268.25134</ele><time>2026-07-30T18:23:56.000Z</time></trkpt>
        <trkpt lat="28.913649" lon="105.4235"><ele>268.15903</ele><time>2026-07-30T18:24:06.000Z</time></trkpt>
        <trkpt lat="28.913649" lon="105.4235"><ele>267.73502</ele><time>2026-07-30T18:24:08.000Z</time></trkpt>
        <trkpt lat="28.913646" lon="105.423499"><ele>266.96887</ele><time>2026-07-30T18:24:10.000Z</time></trkpt>
        <trkpt lat="28.913599" lon="105.423487"><ele>267.9997</ele><time>2026-07-30T18:24:14.000Z</time></trkpt>
        <trkpt lat="28.913572" lon="105.423479"><ele>268.53104</ele><time>2026-07-30T18:24:16.000Z</time></trkpt>
        <trkpt lat="28.913545" lon="105.42347"><ele>268.17264</ele><time>2026-07-30T18:24:18.000Z</time></trkpt>
        <trkpt lat="28.913519" lon="105.423463"><ele>268.3284</ele><time>2026-07-30T18:24:20.000Z</time></trkpt>
        <trkpt lat="28.913493" lon="105.423458"><ele>268.4315</ele><time>2026-07-30T18:24:22.000Z</time></trkpt>
        <trkpt lat="28.913468" lon="105.423454"><ele>267.84567</ele><time>2026-07-30T18:24:24.000Z</time></trkpt>
        <trkpt lat="28.91345" lon="105.423452"><ele>267.10596</ele><time>2026-07-30T18:24:26.000Z</time></trkpt>
        <trkpt lat="28.913428" lon="105.423452"><ele>267.13303</ele><time>2026-07-30T18:24:28.000Z</time></trkpt>
        <trkpt lat="28.913409" lon="105.423452"><ele>266.79398</ele><time>2026-07-30T18:24:30.000Z</time></trkpt>
        <trkpt lat="28.913387" lon="105.42345"><ele>267.13657</ele><time>2026-07-30T18:24:32.000Z</time></trkpt>
        <trkpt lat="28.913368" lon="105.423446"><ele>267.31915</ele><time>2026-07-30T18:24:34.000Z</time></trkpt>
        <trkpt lat="28.913347" lon="105.423444"><ele>266.82828</ele><time>2026-07-30T18:24:36.000Z</time></trkpt>
        <trkpt lat="28.913323" lon="105.423444"><ele>267.14468</ele><time>2026-07-30T18:24:38.000Z</time></trkpt>
        <trkpt lat="28.9133" lon="105.423447"><ele>267.03275</ele><time>2026-07-30T18:24:40.000Z</time></trkpt>
        <trkpt lat="28.913283" lon="105.42345"><ele>267.11694</ele><time>2026-07-30T18:24:42.000Z</time></trkpt>
        <trkpt lat="28.913271" lon="105.423456"><ele>266.93396</ele><time>2026-07-30T18:24:44.000Z</time></trkpt>
        <trkpt lat="28.913259" lon="105.423467"><ele>267.54413</ele><time>2026-07-30T18:24:46.000Z</time></trkpt>
        <trkpt lat="28.913254" lon="105.423478"><ele>267.44348</ele><time>2026-07-30T18:24:48.000Z</time></trkpt>
        <trkpt lat="28.913251" lon="105.423488"><ele>267.58386</ele><time>2026-07-30T18:24:50.000Z</time></trkpt>
        <trkpt lat="28.913249" lon="105.423488"><ele>266.83478</ele><time>2026-07-30T18:24:52.000Z</time></trkpt>
        <trkpt lat="28.913203" lon="105.423484"><ele>266.26227</ele><time>2026-07-30T18:25:02.000Z</time></trkpt>
        <trkpt lat="28.913004" lon="105.423601"><ele>264.4433</ele><time>2026-07-30T18:25:09.000Z</time></trkpt>
        <trkpt lat="28.913004" lon="105.423601"><ele>264.86856</ele><time>2026-07-30T18:25:11.000Z</time></trkpt>
        <trkpt lat="28.913001" lon="105.423596"><ele>264.96353</ele><time>2026-07-30T18:25:13.000Z</time></trkpt>
        <trkpt lat="28.912939" lon="105.423506"><ele>264.9546</ele><time>2026-07-30T18:25:17.000Z</time></trkpt>
        <trkpt lat="28.912882" lon="105.423437"><ele>265.0847</ele><time>2026-07-30T18:25:19.000Z</time></trkpt>
        <trkpt lat="28.912828" lon="105.423372"><ele>265.36075</ele><time>2026-07-30T18:25:21.000Z</time></trkpt>
        <trkpt lat="28.912759" lon="105.423357"><ele>265.4195</ele><time>2026-07-30T18:25:23.000Z</time></trkpt>
        <trkpt lat="28.91268" lon="105.423391"><ele>264.8553</ele><time>2026-07-30T18:25:25.000Z</time></trkpt>
        <trkpt lat="28.912586" lon="105.423439"><ele>264.3633</ele><time>2026-07-30T18:25:27.000Z</time></trkpt>
        <trkpt lat="28.91248" lon="105.423499"><ele>264.61322</ele><time>2026-07-30T18:25:29.000Z</time></trkpt>
        <trkpt lat="28.912367" lon="105.423567"><ele>264.52966</ele><time>2026-07-30T18:25:31.000Z</time></trkpt>
        <trkpt lat="28.912254" lon="105.423639"><ele>264.77838</ele><time>2026-07-30T18:25:33.000Z</time></trkpt>
        <trkpt lat="28.912142" lon="105.423712"><ele>264.3903</ele><time>2026-07-30T18:25:35.000Z</time></trkpt>
        <trkpt lat="28.912033" lon="105.423775"><ele>264.6389</ele><time>2026-07-30T18:25:37.000Z</time></trkpt>
        <trkpt lat="28.911929" lon="105.423823"><ele>264.4802</ele><time>2026-07-30T18:25:39.000Z</time></trkpt>
        <trkpt lat="28.911824" lon="105.423858"><ele>264.6138</ele><time>2026-07-30T18:25:41.000Z</time></trkpt>
        <trkpt lat="28.911721" lon="105.423892"><ele>264.76154</ele><time>2026-07-30T18:25:43.000Z</time></trkpt>
        <trkpt lat="28.911622" lon="105.423882"><ele>265.38434</ele><time>2026-07-30T18:25:45.000Z</time></trkpt>
        <trkpt lat="28.911526" lon="105.423873"><ele>265.54504</ele><time>2026-07-30T18:25:47.000Z</time></trkpt>
        <trkpt lat="28.911447" lon="105.423823"><ele>266.7243</ele><time>2026-07-30T18:25:49.000Z</time></trkpt>
        <trkpt lat="28.91138" lon="105.423691"><ele>266.8851</ele><time>2026-07-30T18:25:51.000Z</time></trkpt>
        <trkpt lat="28.911373" lon="105.423684"><ele>266.98865</ele><time>2026-07-30T18:25:53.000Z</time></trkpt>
        <trkpt lat="28.911365" lon="105.423681"><ele>267.02872</ele><time>2026-07-30T18:25:55.000Z</time></trkpt>
        <trkpt lat="28.911326" lon="105.423676"><ele>266.32513</ele><time>2026-07-30T18:25:57.000Z</time></trkpt>
        <trkpt lat="28.911254" lon="105.423682"><ele>266.64584</ele><time>2026-07-30T18:25:59.000Z</time></trkpt>
        <trkpt lat="28.91117" lon="105.423688"><ele>267.2049</ele><time>2026-07-30T18:26:01.000Z</time></trkpt>
        <trkpt lat="28.9111" lon="105.423736"><ele>267.87094</ele><time>2026-07-30T18:26:03.000Z</time></trkpt>
        <trkpt lat="28.911045" lon="105.423787"><ele>268.24692</ele><time>2026-07-30T18:26:05.000Z</time></trkpt>
        <trkpt lat="28.911011" lon="105.42383"><ele>268.6002</ele><time>2026-07-30T18:26:07.000Z</time></trkpt>
        <trkpt lat="28.910997" lon="105.423861"><ele>268.29575</ele><time>2026-07-30T18:26:09.000Z</time></trkpt>
        <trkpt lat="28.910985" lon="105.423901"><ele>268.68643</ele><time>2026-07-30T18:26:11.000Z</time></trkpt>
        <trkpt lat="28.910973" lon="105.423951"><ele>269.07608</ele><time>2026-07-30T18:26:13.000Z</time></trkpt>
        <trkpt lat="28.910963" lon="105.424004"><ele>269.3111</ele><time>2026-07-30T18:26:15.000Z</time></trkpt>
        <trkpt lat="28.910956" lon="105.424052"><ele>269.3273</ele><time>2026-07-30T18:26:17.000Z</time></trkpt>
        <trkpt lat="28.91095" lon="105.424096"><ele>269.6151</ele><time>2026-07-30T18:26:19.000Z</time></trkpt>
        <trkpt lat="28.910944" lon="105.424139"><ele>269.7539</ele><time>2026-07-30T18:26:21.000Z</time></trkpt>
        <trkpt lat="28.910934" lon="105.424181"><ele>270.82465</ele><time>2026-07-30T18:26:23.000Z</time></trkpt>
        <trkpt lat="28.910922" lon="105.424224"><ele>271.32114</ele><time>2026-07-30T18:26:25.000Z</time></trkpt>
        <trkpt lat="28.910906" lon="105.424265"><ele>271.86115</ele><time>2026-07-30T18:26:27.000Z</time></trkpt>
        <trkpt lat="28.910885" lon="105.424311"><ele>272.464</ele><time>2026-07-30T18:26:29.000Z</time></trkpt>
        <trkpt lat="28.910861" lon="105.424363"><ele>272.5199</ele><time>2026-07-30T18:26:31.000Z</time></trkpt>
        <trkpt lat="28.910834" lon="105.42442"><ele>272.92557</ele><time>2026-07-30T18:26:33.000Z</time></trkpt>
        <trkpt lat="28.910804" lon="105.424482"><ele>273.62738</ele><time>2026-07-30T18:26:35.000Z</time></trkpt>
        <trkpt lat="28.910769" lon="105.424547"><ele>274.39798</ele><time>2026-07-30T18:26:37.000Z</time></trkpt>
        <trkpt lat="28.910725" lon="105.424613"><ele>274.15558</ele><time>2026-07-30T18:26:39.000Z</time></trkpt>
        <trkpt lat="28.910673" lon="105.424673"><ele>274.24738</ele><time>2026-07-30T18:26:41.000Z</time></trkpt>
        <trkpt lat="28.910613" lon="105.424728"><ele>274.49014</ele><time>2026-07-30T18:26:43.000Z</time></trkpt>
        <trkpt lat="28.910549" lon="105.424778"><ele>274.1184</ele><time>2026-07-30T18:26:45.000Z</time></trkpt>
        <trkpt lat="28.910496" lon="105.424816"><ele>274.1236</ele><time>2026-07-30T18:26:47.000Z</time></trkpt>
        <trkpt lat="28.910452" lon="105.424843"><ele>274.67096</ele><time>2026-07-30T18:26:49.000Z</time></trkpt>
        <trkpt lat="28.910413" lon="105.424864"><ele>274.88043</ele><time>2026-07-30T18:26:51.000Z</time></trkpt>
        <trkpt lat="28.910379" lon="105.424878"><ele>274.85162</ele><time>2026-07-30T18:26:53.000Z</time></trkpt>
        <trkpt lat="28.910346" lon="105.42489"><ele>275.27884</ele><time>2026-07-30T18:26:55.000Z</time></trkpt>
        <trkpt lat="28.910319" lon="105.424903"><ele>275.68814</ele><time>2026-07-30T18:26:57.000Z</time></trkpt>
        <trkpt lat="28.910294" lon="105.424917"><ele>275.9709</ele><time>2026-07-30T18:26:59.000Z</time></trkpt>
        <trkpt lat="28.910265" lon="105.424936"><ele>276.10794</ele><time>2026-07-30T18:27:01.000Z</time></trkpt>
        <trkpt lat="28.910228" lon="105.424961"><ele>276.35205</ele><time>2026-07-30T18:27:03.000Z</time></trkpt>
        <trkpt lat="28.910182" lon="105.424992"><ele>276.53217</ele><time>2026-07-30T18:27:05.000Z</time></trkpt>
        <trkpt lat="28.91013" lon="105.425029"><ele>276.7767</ele><time>2026-07-30T18:27:07.000Z</time></trkpt>
        <trkpt lat="28.910072" lon="105.425073"><ele>277.00052</ele><time>2026-07-30T18:27:09.000Z</time></trkpt>
        <trkpt lat="28.910017" lon="105.425114"><ele>277.0899</ele><time>2026-07-30T18:27:11.000Z</time></trkpt>
        <trkpt lat="28.909972" lon="105.425151"><ele>277.29474</ele><time>2026-07-30T18:27:13.000Z</time></trkpt>
        <trkpt lat="28.909942" lon="105.425176"><ele>277.7667</ele><time>2026-07-30T18:27:15.000Z</time></trkpt>
        <trkpt lat="28.909929" lon="105.425189"><ele>277.83536</ele><time>2026-07-30T18:27:17.000Z</time></trkpt>
        <trkpt lat="28.909929" lon="105.425192"><ele>277.68344</ele><time>2026-07-30T18:27:19.000Z</time></trkpt>
        <trkpt lat="28.909923" lon="105.425234"><ele>277.83908</ele><time>2026-07-30T18:27:37.000Z</time></trkpt>
        <trkpt lat="28.909912" lon="105.425263"><ele>278.49765</ele><time>2026-07-30T18:27:43.000Z</time></trkpt>
        <trkpt lat="28.909896" lon="105.425305"><ele>278.33786</ele><time>2026-07-30T18:27:45.000Z</time></trkpt>
        <trkpt lat="28.909894" lon="105.425306"><ele>278.55658</ele><time>2026-07-30T18:27:47.000Z</time></trkpt>
        <trkpt lat="28.909862" lon="105.42532"><ele>280.5681</ele><time>2026-07-30T18:27:59.000Z</time></trkpt>
        <trkpt lat="28.909843" lon="105.42538"><ele>281.7333</ele><time>2026-07-30T18:28:05.000Z</time></trkpt>
        <trkpt lat="28.90978" lon="105.425582"><ele>282.2159</ele><time>2026-07-30T18:28:07.000Z</time></trkpt>
        <trkpt lat="28.909776" lon="105.425598"><ele>283.0427</ele><time>2026-07-30T18:28:09.000Z</time></trkpt>
        <trkpt lat="28.909773" lon="105.425619"><ele>283.36484</ele><time>2026-07-30T18:28:11.000Z</time></trkpt>
        <trkpt lat="28.909755" lon="105.425703"><ele>282.72867</ele><time>2026-07-30T18:28:13.000Z</time></trkpt>
        <trkpt lat="28.90972" lon="105.425838"><ele>283.86932</ele><time>2026-07-30T18:28:15.000Z</time></trkpt>
        <trkpt lat="28.90967" lon="105.426033"><ele>284.01303</ele><time>2026-07-30T18:28:17.000Z</time></trkpt>
        <trkpt lat="28.909666" lon="105.426047"><ele>284.07867</ele><time>2026-07-30T18:28:19.000Z</time></trkpt>
        <trkpt lat="28.909666" lon="105.426052"><ele>284.267</ele><time>2026-07-30T18:28:21.000Z</time></trkpt>
        <trkpt lat="28.90966" lon="105.426101"><ele>283.96002</ele><time>2026-07-30T18:28:27.000Z</time></trkpt>
        <trkpt lat="28.90966" lon="105.426106"><ele>283.99774</ele><time>2026-07-30T18:28:29.000Z</time></trkpt>
        <trkpt lat="28.90966" lon="105.426106"><ele>283.75577</ele><time>2026-07-30T18:28:31.000Z</time></trkpt>
        <trkpt lat="28.909606" lon="105.426053"><ele>282.48352</ele><time>2026-07-30T18:28:43.000Z</time></trkpt>
        <trkpt lat="28.909595" lon="105.426042"><ele>282.48935</ele><time>2026-07-30T18:28:45.000Z</time></trkpt>
        <trkpt lat="28.909595" lon="105.426036"><ele>282.73215</ele><time>2026-07-30T18:28:47.000Z</time></trkpt>
        <trkpt lat="28.909593" lon="105.426116"><ele>283.11786</ele><time>2026-07-30T18:29:04.000Z</time></trkpt>
        <trkpt lat="28.909593" lon="105.426116"><ele>283.1019</ele><time>2026-07-30T18:29:06.000Z</time></trkpt>
        <trkpt lat="28.909593" lon="105.426119"><ele>283.64948</ele><time>2026-07-30T18:29:08.000Z</time></trkpt>
        <trkpt lat="28.90959" lon="105.426189"><ele>284.0553</ele><time>2026-07-30T18:29:14.000Z</time></trkpt>
        <trkpt lat="28.909591" lon="105.426214"><ele>284.49356</ele><time>2026-07-30T18:29:16.000Z</time></trkpt>
        <trkpt lat="28.909593" lon="105.426242"><ele>284.37207</ele><time>2026-07-30T18:29:18.000Z</time></trkpt>
        <trkpt lat="28.909595" lon="105.42627"><ele>284.5437</ele><time>2026-07-30T18:29:20.000Z</time></trkpt>
        <trkpt lat="28.909597" lon="105.426291"><ele>284.0605</ele><time>2026-07-30T18:29:22.000Z</time></trkpt>
        <trkpt lat="28.909598" lon="105.426309"><ele>283.84482</ele><time>2026-07-30T18:29:24.000Z</time></trkpt>
        <trkpt lat="28.909598" lon="105.426309"><ele>284.11874</ele><time>2026-07-30T18:29:26.000Z</time></trkpt>
        <trkpt lat="28.909523" lon="105.426325"><ele>283.90924</ele><time>2026-07-30T18:37:47.000Z</time></trkpt>
        <trkpt lat="28.909509" lon="105.426328"><ele>284.56024</ele><time>2026-07-30T18:37:49.000Z</time></trkpt>
        <trkpt lat="28.909508" lon="105.426327"><ele>285.39557</ele><time>2026-07-30T18:37:51.000Z</time></trkpt>
        <trkpt lat="28.909442" lon="105.426296"><ele>283.897</ele><time>2026-07-30T18:38:08.000Z</time></trkpt>
        <trkpt lat="28.909426" lon="105.426291"><ele>283.9939</ele><time>2026-07-30T18:38:10.000Z</time></trkpt>
        <trkpt lat="28.909416" lon="105.426298"><ele>284.10065</ele><time>2026-07-30T18:38:12.000Z</time></trkpt>
        <trkpt lat="28.909306" lon="105.426375"><ele>285.28137</ele><time>2026-07-30T18:39:05.000Z</time></trkpt>
        <trkpt lat="28.909306" lon="105.426375"><ele>285.3648</ele><time>2026-07-30T18:39:07.000Z</time></trkpt>
        <trkpt lat="28.909518" lon="105.426342"><ele>284.27725</ele><time>2026-07-30T18:40:04.000Z</time></trkpt>
        <trkpt lat="28.909472" lon="105.426336"><ele>283.22336</ele><time>2026-07-30T18:40:27.000Z</time></trkpt>
        <trkpt lat="28.909471" lon="105.426313"><ele>283.22336</ele><time>2026-07-30T18:40:43.000Z</time></trkpt>
        <trkpt lat="28.909415" lon="105.426278"><ele>284.35046</ele><time>2026-07-30T18:43:50.000Z</time></trkpt>
        <trkpt lat="28.909625" lon="105.426331"><ele>284.26193</ele><time>2026-07-30T18:44:50.000Z</time></trkpt>
        <trkpt lat="28.909654" lon="105.426339"><ele>284.26862</ele><time>2026-07-30T18:44:52.000Z</time></trkpt>
        <trkpt lat="28.909654" lon="105.426338"><ele>284.12207</ele><time>2026-07-30T18:44:54.000Z</time></trkpt>
        <trkpt lat="28.909572" lon="105.426472"><ele>285.2495</ele><time>2026-07-30T18:45:18.000Z</time></trkpt>
        <trkpt lat="28.909557" lon="105.426502"><ele>285.03717</ele><time>2026-07-30T18:45:20.000Z</time></trkpt>
        <trkpt lat="28.909542" lon="105.426535"><ele>285.21097</ele><time>2026-07-30T18:45:22.000Z</time></trkpt>
        <trkpt lat="28.909528" lon="105.426568"><ele>284.55963</ele><time>2026-07-30T18:45:24.000Z</time></trkpt>
        <trkpt lat="28.909518" lon="105.426596"><ele>284.9455</ele><time>2026-07-30T18:45:26.000Z</time></trkpt>
        <trkpt lat="28.909509" lon="105.426621"><ele>284.9729</ele><time>2026-07-30T18:45:28.000Z</time></trkpt>
        <trkpt lat="28.909502" lon="105.426644"><ele>285.45395</ele><time>2026-07-30T18:45:30.000Z</time></trkpt>
        <trkpt lat="28.909494" lon="105.426666"><ele>285.14185</ele><time>2026-07-30T18:45:32.000Z</time></trkpt>
        <trkpt lat="28.909486" lon="105.426683"><ele>285.4287</ele><time>2026-07-30T18:45:34.000Z</time></trkpt>
        <trkpt lat="28.909479" lon="105.4267"><ele>285.67365</ele><time>2026-07-30T18:45:36.000Z</time></trkpt>
        <trkpt lat="28.909472" lon="105.42672"><ele>284.94052</ele><time>2026-07-30T18:45:38.000Z</time></trkpt>
        <trkpt lat="28.909465" lon="105.426743"><ele>285.68918</ele><time>2026-07-30T18:45:40.000Z</time></trkpt>
        <trkpt lat="28.909459" lon="105.426766"><ele>285.7287</ele><time>2026-07-30T18:45:42.000Z</time></trkpt>
        <trkpt lat="28.909454" lon="105.42679"><ele>285.6092</ele><time>2026-07-30T18:45:44.000Z</time></trkpt>
        <trkpt lat="28.909449" lon="105.426813"><ele>285.21997</ele><time>2026-07-30T18:45:46.000Z</time></trkpt>
        <trkpt lat="28.909445" lon="105.426838"><ele>284.91104</ele><time>2026-07-30T18:45:48.000Z</time></trkpt>
        <trkpt lat="28.90944" lon="105.426863"><ele>285.3469</ele><time>2026-07-30T18:45:50.000Z</time></trkpt>
        <trkpt lat="28.909435" lon="105.426886"><ele>286.19507</ele><time>2026-07-30T18:45:52.000Z</time></trkpt>
        <trkpt lat="28.90943" lon="105.426909"><ele>286.17218</ele><time>2026-07-30T18:45:54.000Z</time></trkpt>
        <trkpt lat="28.909427" lon="105.426931"><ele>286.28464</ele><time>2026-07-30T18:45:56.000Z</time></trkpt>
        <trkpt lat="28.909425" lon="105.426948"><ele>286.66806</ele><time>2026-07-30T18:45:58.000Z</time></trkpt>
        <trkpt lat="28.909422" lon="105.426958"><ele>286.78638</ele><time>2026-07-30T18:46:00.000Z</time></trkpt>
        <trkpt lat="28.909424" lon="105.426961"><ele>286.77747</ele><time>2026-07-30T18:46:04.000Z</time></trkpt>
        <trkpt lat="28.909395" lon="105.426938"><ele>286.1907</ele><time>2026-07-30T18:46:41.000Z</time></trkpt>
        <trkpt lat="28.909395" lon="105.426938"><ele>285.89728</ele><time>2026-07-30T18:46:43.000Z</time></trkpt>
        <trkpt lat="28.909383" lon="105.426955"><ele>285.05597</ele><time>2026-07-30T18:46:45.000Z</time></trkpt>
        <trkpt lat="28.909375" lon="105.426968"><ele>286.01193</ele><time>2026-07-30T18:46:47.000Z</time></trkpt>
        <trkpt lat="28.909375" lon="105.426969"><ele>286.5118</ele><time>2026-07-30T18:46:49.000Z</time></trkpt>
        <trkpt lat="28.909361" lon="105.427016"><ele>286.7498</ele><time>2026-07-30T18:46:55.000Z</time></trkpt>
        <trkpt lat="28.909354" lon="105.427047"><ele>286.75745</ele><time>2026-07-30T18:46:57.000Z</time></trkpt>
        <trkpt lat="28.909347" lon="105.427074"><ele>286.81564</ele><time>2026-07-30T18:46:59.000Z</time></trkpt>
        <trkpt lat="28.909339" lon="105.4271"><ele>287.5811</ele><time>2026-07-30T18:47:01.000Z</time></trkpt>
        <trkpt lat="28.909331" lon="105.427126"><ele>287.95825</ele><time>2026-07-30T18:47:03.000Z</time></trkpt>
        <trkpt lat="28.909324" lon="105.427146"><ele>288.3967</ele><time>2026-07-30T18:47:05.000Z</time></trkpt>
        <trkpt lat="28.909318" lon="105.427162"><ele>288.67685</ele><time>2026-07-30T18:47:07.000Z</time></trkpt>
        <trkpt lat="28.909314" lon="105.427175"><ele>288.9097</ele><time>2026-07-30T18:47:09.000Z</time></trkpt>
        <trkpt lat="28.90931" lon="105.427182"><ele>288.35168</ele><time>2026-07-30T18:47:11.000Z</time></trkpt>
        <trkpt lat="28.909298" lon="105.42719"><ele>287.30414</ele><time>2026-07-30T18:47:19.000Z</time></trkpt>
        <trkpt lat="28.909299" lon="105.427195"><ele>286.86026</ele><time>2026-07-30T18:47:31.000Z</time></trkpt>
        <trkpt lat="28.909308" lon="105.427235"><ele>285.96045</ele><time>2026-07-30T18:47:51.000Z</time></trkpt>
        <trkpt lat="28.909308" lon="105.427236"><ele>286.4267</ele><time>2026-07-30T18:47:53.000Z</time></trkpt>
        <trkpt lat="28.909308" lon="105.427237"><ele>286.8221</ele><time>2026-07-30T18:47:55.000Z</time></trkpt>
        <trkpt lat="28.909304" lon="105.427303"><ele>288.38586</ele><time>2026-07-30T18:47:58.000Z</time></trkpt>
        <trkpt lat="28.909304" lon="105.427303"><ele>288.12753</ele><time>2026-07-30T18:48:00.000Z</time></trkpt>
        <trkpt lat="28.909304" lon="105.427307"><ele>288.15118</ele><time>2026-07-30T18:48:02.000Z</time></trkpt>
        <trkpt lat="28.909303" lon="105.427353"><ele>288.60373</ele><time>2026-07-30T18:48:06.000Z</time></trkpt>
        <trkpt lat="28.909303" lon="105.427383"><ele>288.14963</ele><time>2026-07-30T18:48:08.000Z</time></trkpt>
        <trkpt lat="28.909305" lon="105.427417"><ele>288.0824</ele><time>2026-07-30T18:48:10.000Z</time></trkpt>
        <trkpt lat="28.909307" lon="105.427454"><ele>287.73428</ele><time>2026-07-30T18:48:12.000Z</time></trkpt>
        <trkpt lat="28.90931" lon="105.427493"><ele>287.7025</ele><time>2026-07-30T18:48:14.000Z</time></trkpt>
        <trkpt lat="28.909312" lon="105.427527"><ele>287.73587</ele><time>2026-07-30T18:48:16.000Z</time></trkpt>
        <trkpt lat="28.90931" lon="105.427556"><ele>288.22177</ele><time>2026-07-30T18:48:18.000Z</time></trkpt>
        <trkpt lat="28.909305" lon="105.427575"><ele>288.0748</ele><time>2026-07-30T18:48:20.000Z</time></trkpt>
        <trkpt lat="28.909297" lon="105.427593"><ele>288.4643</ele><time>2026-07-30T18:48:22.000Z</time></trkpt>
        <trkpt lat="28.909289" lon="105.42761"><ele>289.15735</ele><time>2026-07-30T18:48:24.000Z</time></trkpt>
        <trkpt lat="28.909282" lon="105.427628"><ele>289.00156</ele><time>2026-07-30T18:48:26.000Z</time></trkpt>
        <trkpt lat="28.909276" lon="105.427645"><ele>288.56335</ele><time>2026-07-30T18:48:28.000Z</time></trkpt>
        <trkpt lat="28.90927" lon="105.427663"><ele>288.42673</ele><time>2026-07-30T18:48:30.000Z</time></trkpt>
        <trkpt lat="28.909266" lon="105.427684"><ele>288.0911</ele><time>2026-07-30T18:48:32.000Z</time></trkpt>
        <trkpt lat="28.909263" lon="105.427707"><ele>290.08008</ele><time>2026-07-30T18:48:34.000Z</time></trkpt>
        <trkpt lat="28.909261" lon="105.427731"><ele>289.79688</ele><time>2026-07-30T18:48:36.000Z</time></trkpt>
        <trkpt lat="28.909259" lon="105.427755"><ele>289.51852</ele><time>2026-07-30T18:48:38.000Z</time></trkpt>
        <trkpt lat="28.909257" lon="105.42778"><ele>289.4438</ele><time>2026-07-30T18:48:40.000Z</time></trkpt>
        <trkpt lat="28.909253" lon="105.427808"><ele>289.46402</ele><time>2026-07-30T18:48:42.000Z</time></trkpt>
        <trkpt lat="28.909247" lon="105.427834"><ele>288.9035</ele><time>2026-07-30T18:48:44.000Z</time></trkpt>
        <trkpt lat="28.909241" lon="105.427859"><ele>288.27576</ele><time>2026-07-30T18:48:46.000Z</time></trkpt>
        <trkpt lat="28.909237" lon="105.427878"><ele>288.3651</ele><time>2026-07-30T18:48:48.000Z</time></trkpt>
        <trkpt lat="28.909233" lon="105.427899"><ele>288.41705</ele><time>2026-07-30T18:48:50.000Z</time></trkpt>
        <trkpt lat="28.909229" lon="105.427919"><ele>288.18182</ele><time>2026-07-30T18:48:52.000Z</time></trkpt>
        <trkpt lat="28.909225" lon="105.42794"><ele>288.27252</ele><time>2026-07-30T18:48:54.000Z</time></trkpt>
        <trkpt lat="28.909222" lon="105.427961"><ele>288.82065</ele><time>2026-07-30T18:48:56.000Z</time></trkpt>
        <trkpt lat="28.909219" lon="105.427979"><ele>289.00824</ele><time>2026-07-30T18:48:58.000Z</time></trkpt>
        <trkpt lat="28.909218" lon="105.427999"><ele>288.25934</ele><time>2026-07-30T18:49:00.000Z</time></trkpt>
        <trkpt lat="28.909218" lon="105.428019"><ele>288.56082</ele><time>2026-07-30T18:49:02.000Z</time></trkpt>
        <trkpt lat="28.909218" lon="105.428037"><ele>288.76788</ele><time>2026-07-30T18:49:04.000Z</time></trkpt>
        <trkpt lat="28.909216" lon="105.428055"><ele>288.82693</ele><time>2026-07-30T18:49:06.000Z</time></trkpt>
        <trkpt lat="28.909213" lon="105.428077"><ele>289.37695</ele><time>2026-07-30T18:49:08.000Z</time></trkpt>
        <trkpt lat="28.909209" lon="105.428097"><ele>289.36707</ele><time>2026-07-30T18:49:10.000Z</time></trkpt>
        <trkpt lat="28.909207" lon="105.428114"><ele>289.62653</ele><time>2026-07-30T18:49:12.000Z</time></trkpt>
        <trkpt lat="28.909205" lon="105.428134"><ele>289.65793</ele><time>2026-07-30T18:49:14.000Z</time></trkpt>
        <trkpt lat="28.909203" lon="105.428157"><ele>289.72586</ele><time>2026-07-30T18:49:16.000Z</time></trkpt>
        <trkpt lat="28.9092" lon="105.42818"><ele>289.78812</ele><time>2026-07-30T18:49:18.000Z</time></trkpt>
        <trkpt lat="28.909198" lon="105.428203"><ele>289.9711</ele><time>2026-07-30T18:49:20.000Z</time></trkpt>
        <trkpt lat="28.909196" lon="105.428231"><ele>289.95078</ele><time>2026-07-30T18:49:22.000Z</time></trkpt>
        <trkpt lat="28.909194" lon="105.428258"><ele>289.55792</ele><time>2026-07-30T18:49:24.000Z</time></trkpt>
        <trkpt lat="28.909191" lon="105.428286"><ele>289.69922</ele><time>2026-07-30T18:49:26.000Z</time></trkpt>
        <trkpt lat="28.909189" lon="105.428313"><ele>289.082</ele><time>2026-07-30T18:49:28.000Z</time></trkpt>
        <trkpt lat="28.909187" lon="105.428336"><ele>289.2058</ele><time>2026-07-30T18:49:30.000Z</time></trkpt>
        <trkpt lat="28.909185" lon="105.42836"><ele>289.3959</ele><time>2026-07-30T18:49:32.000Z</time></trkpt>
        <trkpt lat="28.909183" lon="105.42838"><ele>288.928</ele><time>2026-07-30T18:49:34.000Z</time></trkpt>
        <trkpt lat="28.909181" lon="105.428402"><ele>289.75937</ele><time>2026-07-30T18:49:36.000Z</time></trkpt>
        <trkpt lat="28.90918" lon="105.428423"><ele>289.8343</ele><time>2026-07-30T18:49:38.000Z</time></trkpt>
        <trkpt lat="28.909176" lon="105.428448"><ele>290.56573</ele><time>2026-07-30T18:49:40.000Z</time></trkpt>
        <trkpt lat="28.90917" lon="105.428472"><ele>290.29306</ele><time>2026-07-30T18:49:42.000Z</time></trkpt>
        <trkpt lat="28.909159" lon="105.428494"><ele>290.43158</ele><time>2026-07-30T18:49:44.000Z</time></trkpt>
        <trkpt lat="28.909145" lon="105.428507"><ele>290.5277</ele><time>2026-07-30T18:49:46.000Z</time></trkpt>
        <trkpt lat="28.90913" lon="105.428515"><ele>290.06992</ele><time>2026-07-30T18:49:48.000Z</time></trkpt>
        <trkpt lat="28.909111" lon="105.42852"><ele>290.4928</ele><time>2026-07-30T18:49:50.000Z</time></trkpt>
        <trkpt lat="28.90909" lon="105.428527"><ele>290.94202</ele><time>2026-07-30T18:49:52.000Z</time></trkpt>
        <trkpt lat="28.909068" lon="105.428535"><ele>291.09717</ele><time>2026-07-30T18:49:54.000Z</time></trkpt>
        <trkpt lat="28.909045" lon="105.428542"><ele>291.65564</ele><time>2026-07-30T18:49:56.000Z</time></trkpt>
        <trkpt lat="28.909027" lon="105.428544"><ele>291.68246</ele><time>2026-07-30T18:49:58.000Z</time></trkpt>
        <trkpt lat="28.909013" lon="105.428541"><ele>292.10114</ele><time>2026-07-30T18:50:00.000Z</time></trkpt>
        <trkpt lat="28.908999" lon="105.428537"><ele>292.51</ele><time>2026-07-30T18:50:02.000Z</time></trkpt>
        <trkpt lat="28.908991" lon="105.428532"><ele>291.9937</ele><time>2026-07-30T18:50:04.000Z</time></trkpt>
        <trkpt lat="28.908983" lon="105.428526"><ele>292.4253</ele><time>2026-07-30T18:50:06.000Z</time></trkpt>
        <trkpt lat="28.908973" lon="105.428517"><ele>293.24295</ele><time>2026-07-30T18:50:08.000Z</time></trkpt>
        <trkpt lat="28.908962" lon="105.428507"><ele>292.84372</ele><time>2026-07-30T18:50:10.000Z</time></trkpt>
        <trkpt lat="28.90895" lon="105.428497"><ele>293.13983</ele><time>2026-07-30T18:50:12.000Z</time></trkpt>
        <trkpt lat="28.908938" lon="105.428487"><ele>293.44025</ele><time>2026-07-30T18:50:14.000Z</time></trkpt>
        <trkpt lat="28.908924" lon="105.428478"><ele>293.92554</ele><time>2026-07-30T18:50:16.000Z</time></trkpt>
        <trkpt lat="28.908911" lon="105.42847"><ele>294.22354</ele><time>2026-07-30T18:50:18.000Z</time></trkpt>
        <trkpt lat="28.908903" lon="105.428466"><ele>294.0345</ele><time>2026-07-30T18:50:20.000Z</time></trkpt>
        <trkpt lat="28.908892" lon="105.428462"><ele>294.3075</ele><time>2026-07-30T18:50:22.000Z</time></trkpt>
        <trkpt lat="28.90888" lon="105.428464"><ele>293.71127</ele><time>2026-07-30T18:50:24.000Z</time></trkpt>
        <trkpt lat="28.908866" lon="105.428471"><ele>294.91968</ele><time>2026-07-30T18:50:26.000Z</time></trkpt>
        <trkpt lat="28.908856" lon="105.42848"><ele>294.5377</ele><time>2026-07-30T18:50:28.000Z</time></trkpt>
        <trkpt lat="28.908842" lon="105.428495"><ele>294.39856</ele><time>2026-07-30T18:50:30.000Z</time></trkpt>
        <trkpt lat="28.908829" lon="105.428514"><ele>294.15573</ele><time>2026-07-30T18:50:32.000Z</time></trkpt>
        <trkpt lat="28.908815" lon="105.428538"><ele>294.35468</ele><time>2026-07-30T18:50:34.000Z</time></trkpt>
        <trkpt lat="28.908801" lon="105.428563"><ele>294.52756</ele><time>2026-07-30T18:50:36.000Z</time></trkpt>
        <trkpt lat="28.908789" lon="105.428587"><ele>294.65335</ele><time>2026-07-30T18:50:38.000Z</time></trkpt>
        <trkpt lat="28.908778" lon="105.428608"><ele>294.67642</ele><time>2026-07-30T18:50:40.000Z</time></trkpt>
        <trkpt lat="28.908767" lon="105.428628"><ele>294.19272</ele><time>2026-07-30T18:50:42.000Z</time></trkpt>
        <trkpt lat="28.908755" lon="105.428652"><ele>294.22922</ele><time>2026-07-30T18:50:44.000Z</time></trkpt>
        <trkpt lat="28.908742" lon="105.428679"><ele>294.32526</ele><time>2026-07-30T18:50:46.000Z</time></trkpt>
        <trkpt lat="28.90873" lon="105.428706"><ele>294.99832</ele><time>2026-07-30T18:50:48.000Z</time></trkpt>
        <trkpt lat="28.908718" lon="105.428731"><ele>294.226</ele><time>2026-07-30T18:50:50.000Z</time></trkpt>
        <trkpt lat="28.908707" lon="105.428752"><ele>294.1022</ele><time>2026-07-30T18:50:52.000Z</time></trkpt>
        <trkpt lat="28.908697" lon="105.428771"><ele>293.94495</ele><time>2026-07-30T18:50:54.000Z</time></trkpt>
        <trkpt lat="28.908688" lon="105.428787"><ele>294.3904</ele><time>2026-07-30T18:50:56.000Z</time></trkpt>
        <trkpt lat="28.908677" lon="105.428808"><ele>294.53992</ele><time>2026-07-30T18:50:58.000Z</time></trkpt>
        <trkpt lat="28.908665" lon="105.42883"><ele>294.61902</ele><time>2026-07-30T18:51:00.000Z</time></trkpt>
        <trkpt lat="28.908657" lon="105.428853"><ele>294.77505</ele><time>2026-07-30T18:51:02.000Z</time></trkpt>
        <trkpt lat="28.908655" lon="105.428871"><ele>294.81146</ele><time>2026-07-30T18:51:04.000Z</time></trkpt>
        <trkpt lat="28.908658" lon="105.428888"><ele>294.69904</ele><time>2026-07-30T18:51:06.000Z</time></trkpt>
        <trkpt lat="28.908663" lon="105.428901"><ele>293.45367</ele><time>2026-07-30T18:51:08.000Z</time></trkpt>
        <trkpt lat="28.908672" lon="105.428912"><ele>292.50296</ele><time>2026-07-30T18:51:10.000Z</time></trkpt>
        <trkpt lat="28.908684" lon="105.428924"><ele>292.47696</ele><time>2026-07-30T18:51:12.000Z</time></trkpt>
        <trkpt lat="28.908695" lon="105.428934"><ele>291.86145</ele><time>2026-07-30T18:51:14.000Z</time></trkpt>
        <trkpt lat="28.908707" lon="105.428942"><ele>291.61618</ele><time>2026-07-30T18:51:16.000Z</time></trkpt>
        <trkpt lat="28.908719" lon="105.42895"><ele>291.246</ele><time>2026-07-30T18:51:18.000Z</time></trkpt>
        <trkpt lat="28.908732" lon="105.428958"><ele>291.57135</ele><time>2026-07-30T18:51:20.000Z</time></trkpt>
        <trkpt lat="28.908742" lon="105.428964"><ele>290.67142</ele><time>2026-07-30T18:51:22.000Z</time></trkpt>
        <trkpt lat="28.90875" lon="105.428967"><ele>290.76962</ele><time>2026-07-30T18:51:24.000Z</time></trkpt>
        <trkpt lat="28.90876" lon="105.42897"><ele>290.68845</ele><time>2026-07-30T18:51:26.000Z</time></trkpt>
        <trkpt lat="28.908773" lon="105.428975"><ele>291.1402</ele><time>2026-07-30T18:51:28.000Z</time></trkpt>
        <trkpt lat="28.908781" lon="105.428983"><ele>291.06003</ele><time>2026-07-30T18:51:30.000Z</time></trkpt>
        <trkpt lat="28.908784" lon="105.428996"><ele>291.4878</ele><time>2026-07-30T18:51:32.000Z</time></trkpt>
        <trkpt lat="28.908786" lon="105.429016"><ele>292.4452</ele><time>2026-07-30T18:51:34.000Z</time></trkpt>
        <trkpt lat="28.908785" lon="105.429038"><ele>291.797</ele><time>2026-07-30T18:51:36.000Z</time></trkpt>
        <trkpt lat="28.908783" lon="105.429059"><ele>291.07983</ele><time>2026-07-30T18:51:38.000Z</time></trkpt>
        <trkpt lat="28.908783" lon="105.429082"><ele>291.7087</ele><time>2026-07-30T18:51:40.000Z</time></trkpt>
        <trkpt lat="28.908785" lon="105.429107"><ele>291.8491</ele><time>2026-07-30T18:51:42.000Z</time></trkpt>
        <trkpt lat="28.908787" lon="105.429132"><ele>291.68958</ele><time>2026-07-30T18:51:44.000Z</time></trkpt>
        <trkpt lat="28.908791" lon="105.429157"><ele>292.05634</ele><time>2026-07-30T18:51:46.000Z</time></trkpt>
        <trkpt lat="28.908794" lon="105.429181"><ele>292.16867</ele><time>2026-07-30T18:51:48.000Z</time></trkpt>
        <trkpt lat="28.9088" lon="105.429206"><ele>292.07886</ele><time>2026-07-30T18:51:50.000Z</time></trkpt>
        <trkpt lat="28.908806" lon="105.42923"><ele>292.72726</ele><time>2026-07-30T18:51:52.000Z</time></trkpt>
        <trkpt lat="28.908812" lon="105.429249"><ele>292.81686</ele><time>2026-07-30T18:51:54.000Z</time></trkpt>
        <trkpt lat="28.908818" lon="105.429273"><ele>292.85703</ele><time>2026-07-30T18:51:56.000Z</time></trkpt>
        <trkpt lat="28.908825" lon="105.429299"><ele>292.92737</ele><time>2026-07-30T18:51:58.000Z</time></trkpt>
        <trkpt lat="28.908827" lon="105.429323"><ele>292.96255</ele><time>2026-07-30T18:52:00.000Z</time></trkpt>
        <trkpt lat="28.908827" lon="105.429348"><ele>292.84354</ele><time>2026-07-30T18:52:02.000Z</time></trkpt>
        <trkpt lat="28.908824" lon="105.429371"><ele>292.9618</ele><time>2026-07-30T18:52:04.000Z</time></trkpt>
        <trkpt lat="28.908819" lon="105.429392"><ele>293.14548</ele><time>2026-07-30T18:52:06.000Z</time></trkpt>
        <trkpt lat="28.908811" lon="105.429413"><ele>293.13684</ele><time>2026-07-30T18:52:08.000Z</time></trkpt>
        <trkpt lat="28.908802" lon="105.429435"><ele>293.25458</ele><time>2026-07-30T18:52:10.000Z</time></trkpt>
        <trkpt lat="28.908791" lon="105.429456"><ele>293.81055</ele><time>2026-07-30T18:52:12.000Z</time></trkpt>
        <trkpt lat="28.908779" lon="105.429479"><ele>293.28705</ele><time>2026-07-30T18:52:14.000Z</time></trkpt>
        <trkpt lat="28.908768" lon="105.429502"><ele>293.41528</ele><time>2026-07-30T18:52:16.000Z</time></trkpt>
        <trkpt lat="28.908757" lon="105.429524"><ele>293.54172</ele><time>2026-07-30T18:52:18.000Z</time></trkpt>
        <trkpt lat="28.908749" lon="105.429544"><ele>293.2152</ele><time>2026-07-30T18:52:20.000Z</time></trkpt>
        <trkpt lat="28.908741" lon="105.429565"><ele>293.94284</ele><time>2026-07-30T18:52:22.000Z</time></trkpt>
        <trkpt lat="28.908734" lon="105.429587"><ele>293.90125</ele><time>2026-07-30T18:52:24.000Z</time></trkpt>
        <trkpt lat="28.908729" lon="105.429612"><ele>293.79022</ele><time>2026-07-30T18:52:26.000Z</time></trkpt>
        <trkpt lat="28.908723" lon="105.429638"><ele>293.84943</ele><time>2026-07-30T18:52:28.000Z</time></trkpt>
        <trkpt lat="28.908717" lon="105.429662"><ele>293.96414</ele><time>2026-07-30T18:52:30.000Z</time></trkpt>
        <trkpt lat="28.908711" lon="105.429685"><ele>294.5797</ele><time>2026-07-30T18:52:32.000Z</time></trkpt>
        <trkpt lat="28.908705" lon="105.429707"><ele>295.3751</ele><time>2026-07-30T18:52:34.000Z</time></trkpt>
        <trkpt lat="28.908699" lon="105.429727"><ele>296.00543</ele><time>2026-07-30T18:52:36.000Z</time></trkpt>
        <trkpt lat="28.908691" lon="105.429749"><ele>295.67072</ele><time>2026-07-30T18:52:38.000Z</time></trkpt>
        <trkpt lat="28.908683" lon="105.429773"><ele>294.0672</ele><time>2026-07-30T18:52:40.000Z</time></trkpt>
        <trkpt lat="28.908676" lon="105.429797"><ele>294.8589</ele><time>2026-07-30T18:52:42.000Z</time></trkpt>
        <trkpt lat="28.90867" lon="105.429818"><ele>295.08014</ele><time>2026-07-30T18:52:44.000Z</time></trkpt>
        <trkpt lat="28.908663" lon="105.429843"><ele>295.87717</ele><time>2026-07-30T18:52:46.000Z</time></trkpt>
        <trkpt lat="28.908656" lon="105.42987"><ele>295.60638</ele><time>2026-07-30T18:52:48.000Z</time></trkpt>
        <trkpt lat="28.908647" lon="105.429895"><ele>294.64005</ele><time>2026-07-30T18:52:50.000Z</time></trkpt>
        <trkpt lat="28.908637" lon="105.42992"><ele>294.19046</ele><time>2026-07-30T18:52:52.000Z</time></trkpt>
        <trkpt lat="28.908627" lon="105.42994"><ele>295.4457</ele><time>2026-07-30T18:52:54.000Z</time></trkpt>
        <trkpt lat="28.908615" lon="105.429957"><ele>295.2092</ele><time>2026-07-30T18:52:56.000Z</time></trkpt>
        <trkpt lat="28.908602" lon="105.429975"><ele>295.7079</ele><time>2026-07-30T18:52:58.000Z</time></trkpt>
        <trkpt lat="28.908593" lon="105.429993"><ele>296.05652</ele><time>2026-07-30T18:53:00.000Z</time></trkpt>
        <trkpt lat="28.908588" lon="105.430014"><ele>296.2024</ele><time>2026-07-30T18:53:02.000Z</time></trkpt>
        <trkpt lat="28.908587" lon="105.43004"><ele>296.26212</ele><time>2026-07-30T18:53:04.000Z</time></trkpt>
        <trkpt lat="28.908589" lon="105.430069"><ele>296.27603</ele><time>2026-07-30T18:53:06.000Z</time></trkpt>
        <trkpt lat="28.908591" lon="105.430099"><ele>296.6694</ele><time>2026-07-30T18:53:08.000Z</time></trkpt>
        <trkpt lat="28.908593" lon="105.43013"><ele>296.15845</ele><time>2026-07-30T18:53:10.000Z</time></trkpt>
        <trkpt lat="28.908594" lon="105.43016"><ele>296.34354</ele><time>2026-07-30T18:53:12.000Z</time></trkpt>
        <trkpt lat="28.908595" lon="105.430191"><ele>296.22772</ele><time>2026-07-30T18:53:14.000Z</time></trkpt>
        <trkpt lat="28.908596" lon="105.430219"><ele>296.05606</ele><time>2026-07-30T18:53:16.000Z</time></trkpt>
        <trkpt lat="28.908595" lon="105.430246"><ele>296.22015</ele><time>2026-07-30T18:53:18.000Z</time></trkpt>
        <trkpt lat="28.908591" lon="105.430276"><ele>296.7142</ele><time>2026-07-30T18:53:20.000Z</time></trkpt>
        <trkpt lat="28.908587" lon="105.430302"><ele>297.19412</ele><time>2026-07-30T18:53:22.000Z</time></trkpt>
        <trkpt lat="28.908585" lon="105.430328"><ele>296.89734</ele><time>2026-07-30T18:53:24.000Z</time></trkpt>
        <trkpt lat="28.908586" lon="105.430356"><ele>297.13882</ele><time>2026-07-30T18:53:26.000Z</time></trkpt>
        <trkpt lat="28.908587" lon="105.430388"><ele>297.5222</ele><time>2026-07-30T18:53:28.000Z</time></trkpt>
        <trkpt lat="28.908588" lon="105.430423"><ele>297.78598</ele><time>2026-07-30T18:53:30.000Z</time></trkpt>
        <trkpt lat="28.908589" lon="105.430461"><ele>297.39987</ele><time>2026-07-30T18:53:32.000Z</time></trkpt>
        <trkpt lat="28.908586" lon="105.430499"><ele>297.14798</ele><time>2026-07-30T18:53:34.000Z</time></trkpt>
        <trkpt lat="28.908582" lon="105.430529"><ele>297.49088</ele><time>2026-07-30T18:53:36.000Z</time></trkpt>
        <trkpt lat="28.908576" lon="105.430556"><ele>297.3681</ele><time>2026-07-30T18:53:38.000Z</time></trkpt>
        <trkpt lat="28.90857" lon="105.430584"><ele>297.2646</ele><time>2026-07-30T18:53:40.000Z</time></trkpt>
        <trkpt lat="28.908567" lon="105.430606"><ele>296.7501</ele><time>2026-07-30T18:53:42.000Z</time></trkpt>
        <trkpt lat="28.908567" lon="105.430631"><ele>297.0005</ele><time>2026-07-30T18:53:44.000Z</time></trkpt>
        <trkpt lat="28.908569" lon="105.43066"><ele>297.7448</ele><time>2026-07-30T18:53:46.000Z</time></trkpt>
        <trkpt lat="28.908572" lon="105.430688"><ele>297.98828</ele><time>2026-07-30T18:53:48.000Z</time></trkpt>
        <trkpt lat="28.908575" lon="105.430722"><ele>298.38004</ele><time>2026-07-30T18:53:50.000Z</time></trkpt>
        <trkpt lat="28.908574" lon="105.430754"><ele>298.36298</ele><time>2026-07-30T18:53:52.000Z</time></trkpt>
        <trkpt lat="28.908569" lon="105.430782"><ele>298.10486</ele><time>2026-07-30T18:53:54.000Z</time></trkpt>
        <trkpt lat="28.908563" lon="105.430803"><ele>298.50555</ele><time>2026-07-30T18:53:56.000Z</time></trkpt>
        <trkpt lat="28.908555" lon="105.430828"><ele>298.0307</ele><time>2026-07-30T18:53:58.000Z</time></trkpt>
        <trkpt lat="28.90855" lon="105.430859"><ele>298.33652</ele><time>2026-07-30T18:54:00.000Z</time></trkpt>
        <trkpt lat="28.908547" lon="105.43089"><ele>297.81708</ele><time>2026-07-30T18:54:02.000Z</time></trkpt>
        <trkpt lat="28.908548" lon="105.43092"><ele>298.08362</ele><time>2026-07-30T18:54:04.000Z</time></trkpt>
        <trkpt lat="28.90855" lon="105.430953"><ele>298.04327</ele><time>2026-07-30T18:54:06.000Z</time></trkpt>
        <trkpt lat="28.908551" lon="105.430987"><ele>297.42102</ele><time>2026-07-30T18:54:08.000Z</time></trkpt>
        <trkpt lat="28.908549" lon="105.431016"><ele>297.34766</ele><time>2026-07-30T18:54:10.000Z</time></trkpt>
        <trkpt lat="28.908549" lon="105.431047"><ele>298.08105</ele><time>2026-07-30T18:54:12.000Z</time></trkpt>
        <trkpt lat="28.908552" lon="105.431075"><ele>298.4843</ele><time>2026-07-30T18:54:14.000Z</time></trkpt>
        <trkpt lat="28.908558" lon="105.431103"><ele>298.54187</ele><time>2026-07-30T18:54:16.000Z</time></trkpt>
        <trkpt lat="28.908565" lon="105.431128"><ele>298.02435</ele><time>2026-07-30T18:54:18.000Z</time></trkpt>
        <trkpt lat="28.908573" lon="105.431157"><ele>297.86743</ele><time>2026-07-30T18:54:20.000Z</time></trkpt>
        <trkpt lat="28.90858" lon="105.431186"><ele>298.13925</ele><time>2026-07-30T18:54:22.000Z</time></trkpt>
        <trkpt lat="28.908583" lon="105.431215"><ele>298.0266</ele><time>2026-07-30T18:54:24.000Z</time></trkpt>
        <trkpt lat="28.908581" lon="105.431244"><ele>297.41553</ele><time>2026-07-30T18:54:26.000Z</time></trkpt>
        <trkpt lat="28.908578" lon="105.431277"><ele>297.4226</ele><time>2026-07-30T18:54:28.000Z</time></trkpt>
        <trkpt lat="28.908575" lon="105.431312"><ele>297.3082</ele><time>2026-07-30T18:54:30.000Z</time></trkpt>
        <trkpt lat="28.908571" lon="105.431346"><ele>297.0212</ele><time>2026-07-30T18:54:32.000Z</time></trkpt>
        <trkpt lat="28.908569" lon="105.431379"><ele>297.00873</ele><time>2026-07-30T18:54:34.000Z</time></trkpt>
        <trkpt lat="28.908569" lon="105.431409"><ele>296.7366</ele><time>2026-07-30T18:54:36.000Z</time></trkpt>
        <trkpt lat="28.908571" lon="105.431437"><ele>296.66718</ele><time>2026-07-30T18:54:38.000Z</time></trkpt>
        <trkpt lat="28.908575" lon="105.43146"><ele>296.75018</ele><time>2026-07-30T18:54:40.000Z</time></trkpt>
        <trkpt lat="28.908578" lon="105.431477"><ele>297.21664</ele><time>2026-07-30T18:54:42.000Z</time></trkpt>
        <trkpt lat="28.908582" lon="105.431501"><ele>297.63617</ele><time>2026-07-30T18:54:44.000Z</time></trkpt>
        <trkpt lat="28.908582" lon="105.431528"><ele>297.00284</ele><time>2026-07-30T18:54:46.000Z</time></trkpt>
        <trkpt lat="28.908578" lon="105.431554"><ele>296.93793</ele><time>2026-07-30T18:54:48.000Z</time></trkpt>
        <trkpt lat="28.908572" lon="105.431584"><ele>296.19995</ele><time>2026-07-30T18:54:50.000Z</time></trkpt>
        <trkpt lat="28.908565" lon="105.431616"><ele>296.36667</ele><time>2026-07-30T18:54:52.000Z</time></trkpt>
        <trkpt lat="28.908561" lon="105.431651"><ele>296.1486</ele><time>2026-07-30T18:54:54.000Z</time></trkpt>
        <trkpt lat="28.908559" lon="105.431683"><ele>295.9347</ele><time>2026-07-30T18:54:56.000Z</time></trkpt>
        <trkpt lat="28.908559" lon="105.431715"><ele>295.80704</ele><time>2026-07-30T18:54:58.000Z</time></trkpt>
        <trkpt lat="28.908562" lon="105.431747"><ele>295.6018</ele><time>2026-07-30T18:55:00.000Z</time></trkpt>
        <trkpt lat="28.908571" lon="105.431775"><ele>294.59344</ele><time>2026-07-30T18:55:02.000Z</time></trkpt>
        <trkpt lat="28.908583" lon="105.431801"><ele>294.1593</ele><time>2026-07-30T18:55:04.000Z</time></trkpt>
        <trkpt lat="28.908598" lon="105.431824"><ele>294.27173</ele><time>2026-07-30T18:55:06.000Z</time></trkpt>
        <trkpt lat="28.908609" lon="105.431843"><ele>294.9114</ele><time>2026-07-30T18:55:08.000Z</time></trkpt>
        <trkpt lat="28.908618" lon="105.431864"><ele>294.60565</ele><time>2026-07-30T18:55:10.000Z</time></trkpt>
        <trkpt lat="28.90862" lon="105.431885"><ele>294.75525</ele><time>2026-07-30T18:55:12.000Z</time></trkpt>
        <trkpt lat="28.908614" lon="105.431902"><ele>295.30505</ele><time>2026-07-30T18:55:14.000Z</time></trkpt>
        <trkpt lat="28.908605" lon="105.431926"><ele>295.8436</ele><time>2026-07-30T18:55:16.000Z</time></trkpt>
        <trkpt lat="28.908596" lon="105.431952"><ele>295.8956</ele><time>2026-07-30T18:55:18.000Z</time></trkpt>
        <trkpt lat="28.908588" lon="105.431982"><ele>295.52444</ele><time>2026-07-30T18:55:20.000Z</time></trkpt>
        <trkpt lat="28.908579" lon="105.432015"><ele>294.93008</ele><time>2026-07-30T18:55:22.000Z</time></trkpt>
        <trkpt lat="28.908569" lon="105.432048"><ele>294.71735</ele><time>2026-07-30T18:55:24.000Z</time></trkpt>
        <trkpt lat="28.90856" lon="105.432079"><ele>294.72046</ele><time>2026-07-30T18:55:26.000Z</time></trkpt>
        <trkpt lat="28.908552" lon="105.432109"><ele>295.24194</ele><time>2026-07-30T18:55:28.000Z</time></trkpt>
        <trkpt lat="28.908553" lon="105.432132"><ele>295.06757</ele><time>2026-07-30T18:55:30.000Z</time></trkpt>
        <trkpt lat="28.908556" lon="105.432154"><ele>295.19482</ele><time>2026-07-30T18:55:32.000Z</time></trkpt>
        <trkpt lat="28.908562" lon="105.432181"><ele>295.3531</ele><time>2026-07-30T18:55:34.000Z</time></trkpt>
        <trkpt lat="28.908569" lon="105.432209"><ele>295.35242</ele><time>2026-07-30T18:55:36.000Z</time></trkpt>
        <trkpt lat="28.908575" lon="105.432237"><ele>294.77927</ele><time>2026-07-30T18:55:38.000Z</time></trkpt>
        <trkpt lat="28.908581" lon="105.432262"><ele>294.32733</ele><time>2026-07-30T18:55:40.000Z</time></trkpt>
        <trkpt lat="28.908583" lon="105.432287"><ele>293.46008</ele><time>2026-07-30T18:55:42.000Z</time></trkpt>
        <trkpt lat="28.908584" lon="105.432312"><ele>293.33667</ele><time>2026-07-30T18:55:44.000Z</time></trkpt>
        <trkpt lat="28.908583" lon="105.432339"><ele>293.59888</ele><time>2026-07-30T18:55:46.000Z</time></trkpt>
        <trkpt lat="28.908582" lon="105.432366"><ele>293.32523</ele><time>2026-07-30T18:55:48.000Z</time></trkpt>
        <trkpt lat="28.90858" lon="105.432397"><ele>292.93808</ele><time>2026-07-30T18:55:50.000Z</time></trkpt>
        <trkpt lat="28.908577" lon="105.432429"><ele>293.32596</ele><time>2026-07-30T18:55:52.000Z</time></trkpt>
        <trkpt lat="28.908574" lon="105.432459"><ele>293.6795</ele><time>2026-07-30T18:55:54.000Z</time></trkpt>
        <trkpt lat="28.90857" lon="105.43249"><ele>294.17706</ele><time>2026-07-30T18:55:56.000Z</time></trkpt>
        <trkpt lat="28.908565" lon="105.43252"><ele>293.78134</ele><time>2026-07-30T18:55:58.000Z</time></trkpt>
        <trkpt lat="28.908559" lon="105.432549"><ele>293.1392</ele><time>2026-07-30T18:56:00.000Z</time></trkpt>
        <trkpt lat="28.908553" lon="105.432576"><ele>292.66873</ele><time>2026-07-30T18:56:02.000Z</time></trkpt>
        <trkpt lat="28.908549" lon="105.432597"><ele>292.73135</ele><time>2026-07-30T18:56:04.000Z</time></trkpt>
        <trkpt lat="28.908543" lon="105.432619"><ele>293.02945</ele><time>2026-07-30T18:56:06.000Z</time></trkpt>
        <trkpt lat="28.908533" lon="105.432636"><ele>292.27814</ele><time>2026-07-30T18:56:08.000Z</time></trkpt>
        <trkpt lat="28.908526" lon="105.432645"><ele>292.05457</ele><time>2026-07-30T18:56:10.000Z</time></trkpt>
        <trkpt lat="28.908523" lon="105.432643"><ele>291.97946</ele><time>2026-07-30T18:56:12.000Z</time></trkpt>
        <trkpt lat="28.908491" lon="105.432622"><ele>291.82794</ele><time>2026-07-30T18:56:16.000Z</time></trkpt>
        <trkpt lat="28.908491" lon="105.432622"><ele>291.62177</ele><time>2026-07-30T18:56:18.000Z</time></trkpt>
        <trkpt lat="28.908489" lon="105.432621"><ele>291.20786</ele><time>2026-07-30T18:56:20.000Z</time></trkpt>
        <trkpt lat="28.908456" lon="105.432603"><ele>291.63443</ele><time>2026-07-30T18:56:24.000Z</time></trkpt>
        <trkpt lat="28.908429" lon="105.432593"><ele>292.02875</ele><time>2026-07-30T18:56:26.000Z</time></trkpt>
        <trkpt lat="28.908414" lon="105.432597"><ele>291.37402</ele><time>2026-07-30T18:56:28.000Z</time></trkpt>
        <trkpt lat="28.90841" lon="105.432604"><ele>291.09283</ele><time>2026-07-30T18:56:30.000Z</time></trkpt>
        <trkpt lat="28.908409" lon="105.432619"><ele>291.2022</ele><time>2026-07-30T18:56:32.000Z</time></trkpt>
        <trkpt lat="28.90841" lon="105.432646"><ele>290.6197</ele><time>2026-07-30T18:56:34.000Z</time></trkpt>
        <trkpt lat="28.908413" lon="105.432679"><ele>290.61456</ele><time>2026-07-30T18:56:36.000Z</time></trkpt>
        <trkpt lat="28.908419" lon="105.432717"><ele>290.3273</ele><time>2026-07-30T18:56:38.000Z</time></trkpt>
        <trkpt lat="28.908428" lon="105.432755"><ele>290.3305</ele><time>2026-07-30T18:56:40.000Z</time></trkpt>
        <trkpt lat="28.908437" lon="105.432793"><ele>290.95978</ele><time>2026-07-30T18:56:42.000Z</time></trkpt>
        <trkpt lat="28.908445" lon="105.432828"><ele>290.4692</ele><time>2026-07-30T18:56:44.000Z</time></trkpt>
        <trkpt lat="28.908446" lon="105.432862"><ele>289.91525</ele><time>2026-07-30T18:56:46.000Z</time></trkpt>
        <trkpt lat="28.908439" lon="105.432889"><ele>289.99905</ele><time>2026-07-30T18:56:48.000Z</time></trkpt>
        <trkpt lat="28.908429" lon="105.432913"><ele>289.26443</ele><time>2026-07-30T18:56:50.000Z</time></trkpt>
        <trkpt lat="28.908415" lon="105.432935"><ele>289.37723</ele><time>2026-07-30T18:56:52.000Z</time></trkpt>
        <trkpt lat="28.908398" lon="105.432957"><ele>289.7039</ele><time>2026-07-30T18:56:54.000Z</time></trkpt>
        <trkpt lat="28.908382" lon="105.432974"><ele>290.0768</ele><time>2026-07-30T18:56:56.000Z</time></trkpt>
        <trkpt lat="28.908369" lon="105.432986"><ele>289.8194</ele><time>2026-07-30T18:56:58.000Z</time></trkpt>
        <trkpt lat="28.908355" lon="105.432991"><ele>289.24203</ele><time>2026-07-30T18:57:00.000Z</time></trkpt>
        <trkpt lat="28.908339" lon="105.432992"><ele>289.48068</ele><time>2026-07-30T18:57:02.000Z</time></trkpt>
        <trkpt lat="28.908317" lon="105.432989"><ele>289.90558</ele><time>2026-07-30T18:57:04.000Z</time></trkpt>
        <trkpt lat="28.908294" lon="105.432982"><ele>290.07645</ele><time>2026-07-30T18:57:06.000Z</time></trkpt>
        <trkpt lat="28.908269" lon="105.432971"><ele>289.6487</ele><time>2026-07-30T18:57:08.000Z</time></trkpt>
        <trkpt lat="28.908244" lon="105.432958"><ele>289.76706</ele><time>2026-07-30T18:57:10.000Z</time></trkpt>
        <trkpt lat="28.908219" lon="105.432944"><ele>289.94113</ele><time>2026-07-30T18:57:12.000Z</time></trkpt>
        <trkpt lat="28.908195" lon="105.432929"><ele>289.51523</ele><time>2026-07-30T18:57:14.000Z</time></trkpt>
        <trkpt lat="28.908173" lon="105.432913"><ele>289.3927</ele><time>2026-07-30T18:57:16.000Z</time></trkpt>
        <trkpt lat="28.908153" lon="105.432895"><ele>289.22693</ele><time>2026-07-30T18:57:18.000Z</time></trkpt>
        <trkpt lat="28.908134" lon="105.432878"><ele>289.14157</ele><time>2026-07-30T18:57:20.000Z</time></trkpt>
        <trkpt lat="28.908113" lon="105.43286"><ele>288.3709</ele><time>2026-07-30T18:57:22.000Z</time></trkpt>
        <trkpt lat="28.908091" lon="105.432844"><ele>288.7771</ele><time>2026-07-30T18:57:24.000Z</time></trkpt>
        <trkpt lat="28.908066" lon="105.432829"><ele>288.8689</ele><time>2026-07-30T18:57:26.000Z</time></trkpt>
        <trkpt lat="28.908041" lon="105.432817"><ele>288.47714</ele><time>2026-07-30T18:57:28.000Z</time></trkpt>
        <trkpt lat="28.908016" lon="105.432806"><ele>288.5496</ele><time>2026-07-30T18:57:30.000Z</time></trkpt>
        <trkpt lat="28.907991" lon="105.432795"><ele>289.38254</ele><time>2026-07-30T18:57:32.000Z</time></trkpt>
        <trkpt lat="28.907965" lon="105.432784"><ele>289.43054</ele><time>2026-07-30T18:57:34.000Z</time></trkpt>
        <trkpt lat="28.90794" lon="105.432773"><ele>290.15005</ele><time>2026-07-30T18:57:36.000Z</time></trkpt>
        <trkpt lat="28.907918" lon="105.432766"><ele>290.39734</ele><time>2026-07-30T18:57:38.000Z</time></trkpt>
        <trkpt lat="28.907902" lon="105.432762"><ele>290.39523</ele><time>2026-07-30T18:57:40.000Z</time></trkpt>
        <trkpt lat="28.907887" lon="105.432766"><ele>290.21863</ele><time>2026-07-30T18:57:42.000Z</time></trkpt>
        <trkpt lat="28.90787" lon="105.432778"><ele>289.57614</ele><time>2026-07-30T18:57:44.000Z</time></trkpt>
        <trkpt lat="28.907853" lon="105.432798"><ele>289.68845</ele><time>2026-07-30T18:57:46.000Z</time></trkpt>
        <trkpt lat="28.907838" lon="105.432825"><ele>289.86594</ele><time>2026-07-30T18:57:48.000Z</time></trkpt>
        <trkpt lat="28.907826" lon="105.432857"><ele>289.96283</ele><time>2026-07-30T18:57:50.000Z</time></trkpt>
        <trkpt lat="28.907818" lon="105.43289"><ele>289.66168</ele><time>2026-07-30T18:57:52.000Z</time></trkpt>
        <trkpt lat="28.907814" lon="105.432923"><ele>289.49268</ele><time>2026-07-30T18:57:54.000Z</time></trkpt>
        <trkpt lat="28.90781" lon="105.432958"><ele>289.88007</ele><time>2026-07-30T18:57:56.000Z</time></trkpt>
        <trkpt lat="28.907803" lon="105.432992"><ele>290.68448</ele><time>2026-07-30T18:57:58.000Z</time></trkpt>
        <trkpt lat="28.907791" lon="105.433022"><ele>290.8301</ele><time>2026-07-30T18:58:00.000Z</time></trkpt>
        <trkpt lat="28.907775" lon="105.433047"><ele>290.74304</ele><time>2026-07-30T18:58:02.000Z</time></trkpt>
        <trkpt lat="28.907758" lon="105.433069"><ele>291.02054</ele><time>2026-07-30T18:58:04.000Z</time></trkpt>
        <trkpt lat="28.907739" lon="105.43309"><ele>291.49872</ele><time>2026-07-30T18:58:06.000Z</time></trkpt>
        <trkpt lat="28.907719" lon="105.433113"><ele>291.5696</ele><time>2026-07-30T18:58:08.000Z</time></trkpt>
        <trkpt lat="28.907704" lon="105.433137"><ele>292.04483</ele><time>2026-07-30T18:58:10.000Z</time></trkpt>
        <trkpt lat="28.907694" lon="105.43316"><ele>290.798</ele><time>2026-07-30T18:58:12.000Z</time></trkpt>
        <trkpt lat="28.907687" lon="105.433187"><ele>290.46902</ele><time>2026-07-30T18:58:14.000Z</time></trkpt>
        <trkpt lat="28.907681" lon="105.433214"><ele>290.09293</ele><time>2026-07-30T18:58:16.000Z</time></trkpt>
        <trkpt lat="28.907674" lon="105.433243"><ele>290.361</ele><time>2026-07-30T18:58:18.000Z</time></trkpt>
        <trkpt lat="28.907666" lon="105.433271"><ele>290.33997</ele><time>2026-07-30T18:58:20.000Z</time></trkpt>
        <trkpt lat="28.907655" lon="105.433302"><ele>290.5917</ele><time>2026-07-30T18:58:22.000Z</time></trkpt>
        <trkpt lat="28.907641" lon="105.433331"><ele>291.13913</ele><time>2026-07-30T18:58:24.000Z</time></trkpt>
        <trkpt lat="28.907626" lon="105.433362"><ele>290.91833</ele><time>2026-07-30T18:58:26.000Z</time></trkpt>
        <trkpt lat="28.907613" lon="105.433391"><ele>290.97876</ele><time>2026-07-30T18:58:28.000Z</time></trkpt>
        <trkpt lat="28.907601" lon="105.43342"><ele>290.60617</ele><time>2026-07-30T18:58:30.000Z</time></trkpt>
        <trkpt lat="28.90759" lon="105.433447"><ele>290.78217</ele><time>2026-07-30T18:58:32.000Z</time></trkpt>
        <trkpt lat="28.907581" lon="105.433473"><ele>290.64154</ele><time>2026-07-30T18:58:34.000Z</time></trkpt>
        <trkpt lat="28.907571" lon="105.433501"><ele>291.2142</ele><time>2026-07-30T18:58:36.000Z</time></trkpt>
        <trkpt lat="28.907561" lon="105.433526"><ele>291.47714</ele><time>2026-07-30T18:58:38.000Z</time></trkpt>
        <trkpt lat="28.907549" lon="105.43355"><ele>290.97394</ele><time>2026-07-30T18:58:40.000Z</time></trkpt>
        <trkpt lat="28.907538" lon="105.433573"><ele>291.66873</ele><time>2026-07-30T18:58:42.000Z</time></trkpt>
        <trkpt lat="28.907526" lon="105.433596"><ele>292.14932</ele><time>2026-07-30T18:58:44.000Z</time></trkpt>
        <trkpt lat="28.907515" lon="105.433623"><ele>292.6426</ele><time>2026-07-30T18:58:46.000Z</time></trkpt>
        <trkpt lat="28.90751" lon="105.433649"><ele>291.97427</ele><time>2026-07-30T18:58:48.000Z</time></trkpt>
        <trkpt lat="28.907513" lon="105.433674"><ele>291.43396</ele><time>2026-07-30T18:58:50.000Z</time></trkpt>
        <trkpt lat="28.907521" lon="105.433696"><ele>291.09888</ele><time>2026-07-30T18:58:52.000Z</time></trkpt>
        <trkpt lat="28.907536" lon="105.433716"><ele>290.73236</ele><time>2026-07-30T18:58:54.000Z</time></trkpt>
        <trkpt lat="28.907555" lon="105.433735"><ele>290.80905</ele><time>2026-07-30T18:58:56.000Z</time></trkpt>
        <trkpt lat="28.90758" lon="105.433752"><ele>290.53055</ele><time>2026-07-30T18:58:58.000Z</time></trkpt>
        <trkpt lat="28.907605" lon="105.433765"><ele>291.23557</ele><time>2026-07-30T18:59:00.000Z</time></trkpt>
        <trkpt lat="28.90763" lon="105.433773"><ele>290.63712</ele><time>2026-07-30T18:59:02.000Z</time></trkpt>
        <trkpt lat="28.907652" lon="105.433773"><ele>290.67346</ele><time>2026-07-30T18:59:04.000Z</time></trkpt>
        <trkpt lat="28.907667" lon="105.433767"><ele>290.9631</ele><time>2026-07-30T18:59:06.000Z</time></trkpt>
        <trkpt lat="28.907674" lon="105.433758"><ele>291.00565</ele><time>2026-07-30T18:59:08.000Z</time></trkpt>
        <trkpt lat="28.907675" lon="105.433745"><ele>291.29358</ele><time>2026-07-30T18:59:10.000Z</time></trkpt>
        <trkpt lat="28.907673" lon="105.433717"><ele>291.09683</ele><time>2026-07-30T18:59:14.000Z</time></trkpt>
        <trkpt lat="28.90767" lon="105.433715"><ele>290.85104</ele><time>2026-07-30T18:59:16.000Z</time></trkpt>
        <trkpt lat="28.907666" lon="105.433707"><ele>289.74692</ele><time>2026-07-30T18:59:22.000Z</time></trkpt>
        <trkpt lat="28.90765" lon="105.433688"><ele>288.5753</ele><time>2026-07-30T18:59:36.000Z</time></trkpt>
        <trkpt lat="28.907639" lon="105.433676"><ele>289.2906</ele><time>2026-07-30T18:59:38.000Z</time></trkpt>
        <trkpt lat="28.907638" lon="105.433676"><ele>289.4408</ele><time>2026-07-30T18:59:40.000Z</time></trkpt>
        <trkpt lat="28.907609" lon="105.433623"><ele>289.28613</ele><time>2026-07-30T18:59:43.000Z</time></trkpt>
        <trkpt lat="28.907609" lon="105.433623"><ele>289.25275</ele><time>2026-07-30T18:59:45.000Z</time></trkpt>
        <trkpt lat="28.907608" lon="105.433621"><ele>288.90976</ele><time>2026-07-30T18:59:47.000Z</time></trkpt>
        <trkpt lat="28.907583" lon="105.433558"><ele>289.09912</ele><time>2026-07-30T18:59:55.000Z</time></trkpt>
        <trkpt lat="28.907579" lon="105.433542"><ele>289.28934</ele><time>2026-07-30T18:59:57.000Z</time></trkpt>
        <trkpt lat="28.907575" lon="105.433517"><ele>289.71915</ele><time>2026-07-30T18:59:59.000Z</time></trkpt>
        <trkpt lat="28.907571" lon="105.433487"><ele>289.98697</ele><time>2026-07-30T19:00:01.000Z</time></trkpt>
        <trkpt lat="28.907571" lon="105.433455"><ele>290.12546</ele><time>2026-07-30T19:00:03.000Z</time></trkpt>
        <trkpt lat="28.90758" lon="105.433447"><ele>290.13315</ele><time>2026-07-30T19:00:05.000Z</time></trkpt>
        <trkpt lat="28.907626" lon="105.433417"><ele>290.37164</ele><time>2026-07-30T19:00:09.000Z</time></trkpt>
        <trkpt lat="28.907642" lon="105.433416"><ele>290.37885</ele><time>2026-07-30T19:00:11.000Z</time></trkpt>
        <trkpt lat="28.907662" lon="105.433422"><ele>290.38568</ele><time>2026-07-30T19:00:13.000Z</time></trkpt>
        <trkpt lat="28.907703" lon="105.433439"><ele>290.36768</ele><time>2026-07-30T19:00:17.000Z</time></trkpt>
        <trkpt lat="28.907703" lon="105.433439"><ele>290.36768</ele><time>2026-07-30T19:00:19.000Z</time></trkpt>
        <trkpt lat="28.907634" lon="105.433647"><ele>289.61313</ele><time>2026-07-30T19:00:51.000Z</time></trkpt>
        <trkpt lat="28.907634" lon="105.433647"><ele>290.2467</ele><time>2026-07-30T19:00:53.000Z</time></trkpt>
        <trkpt lat="28.907633" lon="105.433647"><ele>290.45798</ele><time>2026-07-30T19:00:55.000Z</time></trkpt>
        <trkpt lat="28.907571" lon="105.433577"><ele>290.13794</ele><time>2026-07-30T19:01:01.000Z</time></trkpt>
        <trkpt lat="28.907513" lon="105.433511"><ele>290.13794</ele><time>2026-07-30T19:01:03.000Z</time></trkpt>
        <trkpt lat="28.907514" lon="105.43351"><ele>290.13794</ele><time>2026-07-30T19:01:05.000Z</time></trkpt>
        <trkpt lat="28.907546" lon="105.433452"><ele>290.6618</ele><time>2026-07-30T19:01:15.000Z</time></trkpt>
        <trkpt lat="28.907563" lon="105.433406"><ele>290.6618</ele><time>2026-07-30T19:01:19.000Z</time></trkpt>
        <trkpt lat="28.907559" lon="105.433402"><ele>290.4137</ele><time>2026-07-30T19:01:21.000Z</time></trkpt>
        <trkpt lat="28.907514" lon="105.433352"><ele>292.2373</ele><time>2026-07-30T19:18:32.000Z</time></trkpt>
        <trkpt lat="28.907457" lon="105.43336"><ele>290.54553</ele><time>2026-07-30T19:19:29.000Z</time></trkpt>
        <trkpt lat="28.907442" lon="105.433363"><ele>290.54553</ele><time>2026-07-30T19:19:31.000Z</time></trkpt>
        <trkpt lat="28.907442" lon="105.433363"><ele>290.54553</ele><time>2026-07-30T19:19:33.000Z</time></trkpt>
        <trkpt lat="28.907486" lon="105.433294"><ele>290.43936</ele><time>2026-07-30T19:19:45.000Z</time></trkpt>
        <trkpt lat="28.907498" lon="105.433286"><ele>290.52136</ele><time>2026-07-30T19:19:47.000Z</time></trkpt>
        <trkpt lat="28.907497" lon="105.433284"><ele>290.52136</ele><time>2026-07-30T19:19:49.000Z</time></trkpt>
        <trkpt lat="28.907517" lon="105.43335"><ele>290.49326</ele><time>2026-07-30T19:19:59.000Z</time></trkpt>
        <trkpt lat="28.907521" lon="105.433369"><ele>290.5445</ele><time>2026-07-30T19:20:01.000Z</time></trkpt>
        <trkpt lat="28.907529" lon="105.433377"><ele>290.55222</ele><time>2026-07-30T19:20:03.000Z</time></trkpt>
        <trkpt lat="28.907469" lon="105.43331"><ele>290.24072</ele><time>2026-07-30T19:20:46.000Z</time></trkpt>
        <trkpt lat="28.907469" lon="105.43331"><ele>290.33444</ele><time>2026-07-30T19:20:48.000Z</time></trkpt>
        <trkpt lat="28.907469" lon="105.43331"><ele>290.27466</ele><time>2026-07-30T19:20:50.000Z</time></trkpt>
        <trkpt lat="28.907467" lon="105.433244"><ele>290.38873</ele><time>2026-07-30T19:21:08.000Z</time></trkpt>
        <trkpt lat="28.90744" lon="105.433237"><ele>290.3933</ele><time>2026-07-30T19:21:10.000Z</time></trkpt>
        <trkpt lat="28.907439" lon="105.433236"><ele>290.3933</ele><time>2026-07-30T19:21:12.000Z</time></trkpt>
        <trkpt lat="28.907407" lon="105.433202"><ele>290.22986</ele><time>2026-07-30T19:21:43.000Z</time></trkpt>
        <trkpt lat="28.907397" lon="105.433191"><ele>290.18665</ele><time>2026-07-30T19:21:45.000Z</time></trkpt>
        <trkpt lat="28.907396" lon="105.433191"><ele>290.12305</ele><time>2026-07-30T19:21:47.000Z</time></trkpt>
        <trkpt lat="28.907339" lon="105.43323"><ele>289.97748</ele><time>2026-07-30T19:21:48.000Z</time></trkpt>
        <trkpt lat="28.907335" lon="105.433231"><ele>289.56366</ele><time>2026-07-30T19:21:51.000Z</time></trkpt>
        <trkpt lat="28.907332" lon="105.43323"><ele>289.605</ele><time>2026-07-30T19:21:53.000Z</time></trkpt>
        <trkpt lat="28.907268" lon="105.433191"><ele>289.53397</ele><time>2026-07-30T19:21:59.000Z</time></trkpt>
        <trkpt lat="28.907254" lon="105.433175"><ele>289.50833</ele><time>2026-07-30T19:22:01.000Z</time></trkpt>
        <trkpt lat="28.907252" lon="105.43316"><ele>289.50833</ele><time>2026-07-30T19:22:03.000Z</time></trkpt>
        <trkpt lat="28.907252" lon="105.43313"><ele>289.66486</ele><time>2026-07-30T19:22:05.000Z</time></trkpt>
        <trkpt lat="28.907255" lon="105.433102"><ele>289.69208</ele><time>2026-07-30T19:22:07.000Z</time></trkpt>
        <trkpt lat="28.90725" lon="105.433087"><ele>289.60104</ele><time>2026-07-30T19:22:09.000Z</time></trkpt>
        <trkpt lat="28.907297" lon="105.43322"><ele>288.64334</ele><time>2026-07-30T19:22:58.000Z</time></trkpt>
        <trkpt lat="28.907302" lon="105.433229"><ele>288.64334</ele><time>2026-07-30T19:23:05.000Z</time></trkpt>
        <trkpt lat="28.907324" lon="105.433267"><ele>288.64334</ele><time>2026-07-30T19:23:11.000Z</time></trkpt>
        <trkpt lat="28.907362" lon="105.433265"><ele>289.85782</ele><time>2026-07-30T19:23:21.000Z</time></trkpt>
        <trkpt lat="28.907472" lon="105.43326"><ele>290.36603</ele><time>2026-07-30T19:23:42.000Z</time></trkpt>
        <trkpt lat="28.907472" lon="105.43326"><ele>290.62857</ele><time>2026-07-30T19:23:44.000Z</time></trkpt>
        <trkpt lat="28.907472" lon="105.433261"><ele>290.4977</ele><time>2026-07-30T19:23:46.000Z</time></trkpt>
        <trkpt lat="28.907478" lon="105.433511"><ele>290.37656</ele><time>2026-07-30T19:24:06.000Z</time></trkpt>
        <trkpt lat="28.907427" lon="105.433785"><ele>290.6048</ele><time>2026-07-30T19:24:08.000Z</time></trkpt>
        <trkpt lat="28.907425" lon="105.433798"><ele>290.82983</ele><time>2026-07-30T19:24:10.000Z</time></trkpt>
        <trkpt lat="28.907427" lon="105.433797"><ele>290.83917</ele><time>2026-07-30T19:24:12.000Z</time></trkpt>
        <trkpt lat="28.907666" lon="105.433609"><ele>289.56686</ele><time>2026-07-30T19:24:23.000Z</time></trkpt>
        <trkpt lat="28.907693" lon="105.4336"><ele>290.57315</ele><time>2026-07-30T19:24:25.000Z</time></trkpt>
        <trkpt lat="28.907694" lon="105.433596"><ele>291.31363</ele><time>2026-07-30T19:24:27.000Z</time></trkpt>
        <trkpt lat="28.907681" lon="105.433805"><ele>290.1441</ele><time>2026-07-30T19:25:00.000Z</time></trkpt>
        <trkpt lat="28.907681" lon="105.433805"><ele>290.06595</ele><time>2026-07-30T19:25:02.000Z</time></trkpt>
        <trkpt lat="28.907681" lon="105.433807"><ele>290.12137</ele><time>2026-07-30T19:25:04.000Z</time></trkpt>
        <trkpt lat="28.90769" lon="105.433912"><ele>289.5994</ele><time>2026-07-30T19:25:14.000Z</time></trkpt>
        <trkpt lat="28.907694" lon="105.433935"><ele>289.8018</ele><time>2026-07-30T19:25:16.000Z</time></trkpt>
        <trkpt lat="28.907701" lon="105.433959"><ele>289.47998</ele><time>2026-07-30T19:25:18.000Z</time></trkpt>
        <trkpt lat="28.90771" lon="105.433984"><ele>289.54425</ele><time>2026-07-30T19:25:20.000Z</time></trkpt>
        <trkpt lat="28.907722" lon="105.434009"><ele>289.30386</ele><time>2026-07-30T19:25:22.000Z</time></trkpt>
        <trkpt lat="28.907735" lon="105.434031"><ele>289.4231</ele><time>2026-07-30T19:25:24.000Z</time></trkpt>
        <trkpt lat="28.907746" lon="105.434049"><ele>289.97647</ele><time>2026-07-30T19:25:26.000Z</time></trkpt>
        <trkpt lat="28.907755" lon="105.434065"><ele>290.30063</ele><time>2026-07-30T19:25:28.000Z</time></trkpt>
        <trkpt lat="28.907766" lon="105.434086"><ele>290.46475</ele><time>2026-07-30T19:25:30.000Z</time></trkpt>
        <trkpt lat="28.907776" lon="105.434106"><ele>290.52725</ele><time>2026-07-30T19:25:32.000Z</time></trkpt>
        <trkpt lat="28.907781" lon="105.434124"><ele>290.82883</ele><time>2026-07-30T19:25:34.000Z</time></trkpt>
        <trkpt lat="28.907788" lon="105.434144"><ele>290.81488</ele><time>2026-07-30T19:25:36.000Z</time></trkpt>
        <trkpt lat="28.907795" lon="105.434163"><ele>290.75977</ele><time>2026-07-30T19:25:38.000Z</time></trkpt>
        <trkpt lat="28.907801" lon="105.434179"><ele>291.1</ele><time>2026-07-30T19:25:40.000Z</time></trkpt>
        <trkpt lat="28.907808" lon="105.434196"><ele>291.20352</ele><time>2026-07-30T19:25:42.000Z</time></trkpt>
        <trkpt lat="28.907814" lon="105.43421"><ele>291.2624</ele><time>2026-07-30T19:25:44.000Z</time></trkpt>
        <trkpt lat="28.907819" lon="105.434224"><ele>291.26862</ele><time>2026-07-30T19:25:46.000Z</time></trkpt>
        <trkpt lat="28.907823" lon="105.434241"><ele>291.06036</ele><time>2026-07-30T19:25:48.000Z</time></trkpt>
        <trkpt lat="28.907823" lon="105.43425"><ele>291.2625</ele><time>2026-07-30T19:25:50.000Z</time></trkpt>
        <trkpt lat="28.907821" lon="105.434261"><ele>290.5944</ele><time>2026-07-30T19:25:52.000Z</time></trkpt>
        <trkpt lat="28.907818" lon="105.434287"><ele>291.56528</ele><time>2026-07-30T19:25:56.000Z</time></trkpt>
        <trkpt lat="28.907817" lon="105.434303"><ele>291.7087</ele><time>2026-07-30T19:25:58.000Z</time></trkpt>
        <trkpt lat="28.907817" lon="105.434319"><ele>291.5641</ele><time>2026-07-30T19:26:00.000Z</time></trkpt>
        <trkpt lat="28.907818" lon="105.434337"><ele>292.46848</ele><time>2026-07-30T19:26:02.000Z</time></trkpt>
        <trkpt lat="28.907819" lon="105.434352"><ele>292.24496</ele><time>2026-07-30T19:26:04.000Z</time></trkpt>
        <trkpt lat="28.907822" lon="105.434373"><ele>292.3378</ele><time>2026-07-30T19:26:06.000Z</time></trkpt>
        <trkpt lat="28.907826" lon="105.434391"><ele>292.43896</ele><time>2026-07-30T19:26:08.000Z</time></trkpt>
        <trkpt lat="28.907832" lon="105.43441"><ele>293.2989</ele><time>2026-07-30T19:26:10.000Z</time></trkpt>
        <trkpt lat="28.907839" lon="105.434434"><ele>293.10855</ele><time>2026-07-30T19:26:12.000Z</time></trkpt>
        <trkpt lat="28.907847" lon="105.434458"><ele>292.63205</ele><time>2026-07-30T19:26:14.000Z</time></trkpt>
        <trkpt lat="28.907852" lon="105.434478"><ele>292.55615</ele><time>2026-07-30T19:26:16.000Z</time></trkpt>
        <trkpt lat="28.907856" lon="105.434498"><ele>292.76346</ele><time>2026-07-30T19:26:18.000Z</time></trkpt>
        <trkpt lat="28.907858" lon="105.434518"><ele>293.48395</ele><time>2026-07-30T19:26:20.000Z</time></trkpt>
        <trkpt lat="28.907856" lon="105.434541"><ele>293.26324</ele><time>2026-07-30T19:26:22.000Z</time></trkpt>
        <trkpt lat="28.907851" lon="105.434566"><ele>293.144</ele><time>2026-07-30T19:26:24.000Z</time></trkpt>
        <trkpt lat="28.907846" lon="105.434591"><ele>292.51965</ele><time>2026-07-30T19:26:26.000Z</time></trkpt>
        <trkpt lat="28.907843" lon="105.434615"><ele>293.23984</ele><time>2026-07-30T19:26:28.000Z</time></trkpt>
        <trkpt lat="28.907841" lon="105.434638"><ele>293.15393</ele><time>2026-07-30T19:26:30.000Z</time></trkpt>
        <trkpt lat="28.907837" lon="105.434661"><ele>292.62045</ele><time>2026-07-30T19:26:32.000Z</time></trkpt>
        <trkpt lat="28.907834" lon="105.434686"><ele>292.42355</ele><time>2026-07-30T19:26:34.000Z</time></trkpt>
        <trkpt lat="28.907828" lon="105.434713"><ele>292.68326</ele><time>2026-07-30T19:26:36.000Z</time></trkpt>
        <trkpt lat="28.907821" lon="105.43474"><ele>293.6853</ele><time>2026-07-30T19:26:38.000Z</time></trkpt>
        <trkpt lat="28.907812" lon="105.434765"><ele>293.83716</ele><time>2026-07-30T19:26:40.000Z</time></trkpt>
        <trkpt lat="28.907804" lon="105.434787"><ele>293.899</ele><time>2026-07-30T19:26:42.000Z</time></trkpt>
        <trkpt lat="28.9078" lon="105.434807"><ele>294.54916</ele><time>2026-07-30T19:26:44.000Z</time></trkpt>
        <trkpt lat="28.907797" lon="105.434827"><ele>294.40125</ele><time>2026-07-30T19:26:46.000Z</time></trkpt>
        <trkpt lat="28.907795" lon="105.434847"><ele>294.03427</ele><time>2026-07-30T19:26:48.000Z</time></trkpt>
        <trkpt lat="28.907793" lon="105.434864"><ele>294.47363</ele><time>2026-07-30T19:26:50.000Z</time></trkpt>
        <trkpt lat="28.90779" lon="105.434884"><ele>294.3838</ele><time>2026-07-30T19:26:52.000Z</time></trkpt>
        <trkpt lat="28.907787" lon="105.434905"><ele>295.10394</ele><time>2026-07-30T19:26:54.000Z</time></trkpt>
        <trkpt lat="28.907784" lon="105.43492"><ele>295.11853</ele><time>2026-07-30T19:26:56.000Z</time></trkpt>
        <trkpt lat="28.90778" lon="105.434934"><ele>294.9181</ele><time>2026-07-30T19:26:58.000Z</time></trkpt>
        <trkpt lat="28.907775" lon="105.434945"><ele>294.3566</ele><time>2026-07-30T19:27:00.000Z</time></trkpt>
        <trkpt lat="28.907771" lon="105.434959"><ele>293.80603</ele><time>2026-07-30T19:27:02.000Z</time></trkpt>
        <trkpt lat="28.907766" lon="105.434975"><ele>295.54092</ele><time>2026-07-30T19:27:04.000Z</time></trkpt>
        <trkpt lat="28.907761" lon="105.434997"><ele>295.4529</ele><time>2026-07-30T19:27:06.000Z</time></trkpt>
        <trkpt lat="28.907755" lon="105.435023"><ele>295.52603</ele><time>2026-07-30T19:27:08.000Z</time></trkpt>
        <trkpt lat="28.907749" lon="105.435051"><ele>295.34344</ele><time>2026-07-30T19:27:10.000Z</time></trkpt>
        <trkpt lat="28.907743" lon="105.43508"><ele>294.90506</ele><time>2026-07-30T19:27:12.000Z</time></trkpt>
        <trkpt lat="28.907735" lon="105.435104"><ele>294.3663</ele><time>2026-07-30T19:27:14.000Z</time></trkpt>
        <trkpt lat="28.907724" lon="105.435126"><ele>294.71915</ele><time>2026-07-30T19:27:16.000Z</time></trkpt>
        <trkpt lat="28.907712" lon="105.435145"><ele>294.92203</ele><time>2026-07-30T19:27:18.000Z</time></trkpt>
        <trkpt lat="28.907704" lon="105.435156"><ele>294.91702</ele><time>2026-07-30T19:27:20.000Z</time></trkpt>
        <trkpt lat="28.907699" lon="105.43516"><ele>295.2943</ele><time>2026-07-30T19:27:22.000Z</time></trkpt>
        <trkpt lat="28.907686" lon="105.435164"><ele>297.70673</ele><time>2026-07-30T19:27:35.000Z</time></trkpt>
        <trkpt lat="28.90765" lon="105.435175"><ele>298.66333</ele><time>2026-07-30T19:27:37.000Z</time></trkpt>
        <trkpt lat="28.907649" lon="105.435177"><ele>298.56924</ele><time>2026-07-30T19:27:39.000Z</time></trkpt>
        <trkpt lat="28.907628" lon="105.435215"><ele>298.56216</ele><time>2026-07-30T19:27:42.000Z</time></trkpt>
        <trkpt lat="28.907628" lon="105.435215"><ele>298.8533</ele><time>2026-07-30T19:27:44.000Z</time></trkpt>
        <trkpt lat="28.907628" lon="105.435217"><ele>298.66464</ele><time>2026-07-30T19:27:46.000Z</time></trkpt>
        <trkpt lat="28.907627" lon="105.435265"><ele>297.49622</ele><time>2026-07-30T19:27:52.000Z</time></trkpt>
        <trkpt lat="28.907627" lon="105.435265"><ele>296.87317</ele><time>2026-07-30T19:27:54.000Z</time></trkpt>
        <trkpt lat="28.907626" lon="105.435266"><ele>296.5922</ele><time>2026-07-30T19:27:56.000Z</time></trkpt>
        <trkpt lat="28.9076" lon="105.435288"><ele>295.2397</ele><time>2026-07-30T19:28:04.000Z</time></trkpt>
        <trkpt lat="28.907597" lon="105.435289"><ele>295.218</ele><time>2026-07-30T19:28:06.000Z</time></trkpt>
        <trkpt lat="28.907592" lon="105.43529"><ele>295.09055</ele><time>2026-07-30T19:28:08.000Z</time></trkpt>
        <trkpt lat="28.907564" lon="105.435293"><ele>294.3202</ele><time>2026-07-30T19:28:24.000Z</time></trkpt>
        <trkpt lat="28.907558" lon="105.435292"><ele>294.518</ele><time>2026-07-30T19:28:26.000Z</time></trkpt>
        <trkpt lat="28.907541" lon="105.435285"><ele>294.79593</ele><time>2026-07-30T19:28:28.000Z</time></trkpt>
        <trkpt lat="28.907523" lon="105.435279"><ele>294.7971</ele><time>2026-07-30T19:28:38.000Z</time></trkpt>
        <trkpt lat="28.907523" lon="105.435277"><ele>294.8732</ele><time>2026-07-30T19:28:40.000Z</time></trkpt>
        <trkpt lat="28.907527" lon="105.435398"><ele>295.23233</ele><time>2026-07-30T19:29:25.000Z</time></trkpt>
        <trkpt lat="28.907528" lon="105.435419"><ele>294.7632</ele><time>2026-07-30T19:29:27.000Z</time></trkpt>
        <trkpt lat="28.907528" lon="105.43542"><ele>295.35382</ele><time>2026-07-30T19:29:29.000Z</time></trkpt>
        <trkpt lat="28.907495" lon="105.435505"><ele>294.1506</ele><time>2026-07-30T19:29:40.000Z</time></trkpt>
        <trkpt lat="28.90748" lon="105.435531"><ele>294.00055</ele><time>2026-07-30T19:29:42.000Z</time></trkpt>
        <trkpt lat="28.907466" lon="105.435558"><ele>294.304</ele><time>2026-07-30T19:29:44.000Z</time></trkpt>
        <trkpt lat="28.907454" lon="105.43558"><ele>295.71344</ele><time>2026-07-30T19:29:46.000Z</time></trkpt>
        <trkpt lat="28.907441" lon="105.4356"><ele>295.2462</ele><time>2026-07-30T19:29:48.000Z</time></trkpt>
        <trkpt lat="28.907425" lon="105.43562"><ele>294.22998</ele><time>2026-07-30T19:29:50.000Z</time></trkpt>
        <trkpt lat="28.907408" lon="105.435637"><ele>294.23154</ele><time>2026-07-30T19:29:52.000Z</time></trkpt>
        <trkpt lat="28.907388" lon="105.435651"><ele>294.50208</ele><time>2026-07-30T19:29:54.000Z</time></trkpt>
        <trkpt lat="28.907368" lon="105.435664"><ele>294.29785</ele><time>2026-07-30T19:29:56.000Z</time></trkpt>
        <trkpt lat="28.907346" lon="105.435681"><ele>294.5712</ele><time>2026-07-30T19:29:58.000Z</time></trkpt>
        <trkpt lat="28.907321" lon="105.435698"><ele>294.75845</ele><time>2026-07-30T19:30:00.000Z</time></trkpt>
        <trkpt lat="28.907298" lon="105.435715"><ele>294.8784</ele><time>2026-07-30T19:30:02.000Z</time></trkpt>
        <trkpt lat="28.907279" lon="105.435728"><ele>294.33765</ele><time>2026-07-30T19:30:04.000Z</time></trkpt>
        <trkpt lat="28.907262" lon="105.435743"><ele>294.5812</ele><time>2026-07-30T19:30:06.000Z</time></trkpt>
        <trkpt lat="28.907247" lon="105.435757"><ele>294.7846</ele><time>2026-07-30T19:30:08.000Z</time></trkpt>
        <trkpt lat="28.907229" lon="105.435771"><ele>294.46194</ele><time>2026-07-30T19:30:10.000Z</time></trkpt>
        <trkpt lat="28.907208" lon="105.435786"><ele>294.25504</ele><time>2026-07-30T19:30:12.000Z</time></trkpt>
        <trkpt lat="28.907184" lon="105.435802"><ele>294.45453</ele><time>2026-07-30T19:30:14.000Z</time></trkpt>
        <trkpt lat="28.907158" lon="105.435819"><ele>294.6589</ele><time>2026-07-30T19:30:16.000Z</time></trkpt>
        <trkpt lat="28.907133" lon="105.435835"><ele>294.98828</ele><time>2026-07-30T19:30:18.000Z</time></trkpt>
        <trkpt lat="28.907114" lon="105.435847"><ele>295.2249</ele><time>2026-07-30T19:30:20.000Z</time></trkpt>
        <trkpt lat="28.907095" lon="105.435857"><ele>295.1387</ele><time>2026-07-30T19:30:22.000Z</time></trkpt>
        <trkpt lat="28.907075" lon="105.435867"><ele>295.0691</ele><time>2026-07-30T19:30:24.000Z</time></trkpt>
        <trkpt lat="28.907051" lon="105.435878"><ele>294.95734</ele><time>2026-07-30T19:30:26.000Z</time></trkpt>
        <trkpt lat="28.907032" lon="105.435888"><ele>295.90924</ele><time>2026-07-30T19:30:28.000Z</time></trkpt>
        <trkpt lat="28.907021" lon="105.435896"><ele>296.77335</ele><time>2026-07-30T19:30:30.000Z</time></trkpt>
        <trkpt lat="28.907014" lon="105.435905"><ele>298.20737</ele><time>2026-07-30T19:30:32.000Z</time></trkpt>
        <trkpt lat="28.907004" lon="105.435923"><ele>300.87305</ele><time>2026-07-30T19:30:36.000Z</time></trkpt>
        <trkpt lat="28.907003" lon="105.435934"><ele>301.17224</ele><time>2026-07-30T19:30:38.000Z</time></trkpt>
        <trkpt lat="28.907006" lon="105.435947"><ele>301.70578</ele><time>2026-07-30T19:30:40.000Z</time></trkpt>
        <trkpt lat="28.907022" lon="105.435982"><ele>302.63974</ele><time>2026-07-30T19:30:44.000Z</time></trkpt>
        <trkpt lat="28.907037" lon="105.436"><ele>302.41843</ele><time>2026-07-30T19:30:46.000Z</time></trkpt>
        <trkpt lat="28.907057" lon="105.43602"><ele>301.51346</ele><time>2026-07-30T19:30:48.000Z</time></trkpt>
        <trkpt lat="28.907079" lon="105.436042"><ele>301.43823</ele><time>2026-07-30T19:30:50.000Z</time></trkpt>
        <trkpt lat="28.907097" lon="105.436066"><ele>300.9246</ele><time>2026-07-30T19:30:52.000Z</time></trkpt>
        <trkpt lat="28.907111" lon="105.436092"><ele>299.8642</ele><time>2026-07-30T19:30:54.000Z</time></trkpt>
        <trkpt lat="28.907122" lon="105.436118"><ele>299.1144</ele><time>2026-07-30T19:30:56.000Z</time></trkpt>
        <trkpt lat="28.907126" lon="105.436142"><ele>298.48087</ele><time>2026-07-30T19:30:58.000Z</time></trkpt>
        <trkpt lat="28.907127" lon="105.436159"><ele>298.7176</ele><time>2026-07-30T19:31:00.000Z</time></trkpt>
        <trkpt lat="28.907126" lon="105.436175"><ele>298.01935</ele><time>2026-07-30T19:31:02.000Z</time></trkpt>
        <trkpt lat="28.907125" lon="105.436193"><ele>297.50836</ele><time>2026-07-30T19:31:06.000Z</time></trkpt>
        <trkpt lat="28.907083" lon="105.43616"><ele>297.11435</ele><time>2026-07-30T19:31:20.000Z</time></trkpt>
        <trkpt lat="28.907059" lon="105.436142"><ele>297.00595</ele><time>2026-07-30T19:31:22.000Z</time></trkpt>
        <trkpt lat="28.907058" lon="105.436141"><ele>296.9815</ele><time>2026-07-30T19:31:24.000Z</time></trkpt>
        <trkpt lat="28.907041" lon="105.436129"><ele>296.71817</ele><time>2026-07-30T19:31:29.000Z</time></trkpt>
        <trkpt lat="28.907021" lon="105.436121"><ele>296.83823</ele><time>2026-07-30T19:31:31.000Z</time></trkpt>
        <trkpt lat="28.907001" lon="105.436116"><ele>297.3939</ele><time>2026-07-30T19:31:33.000Z</time></trkpt>
        <trkpt lat="28.906981" lon="105.436116"><ele>297.6679</ele><time>2026-07-30T19:31:35.000Z</time></trkpt>
        <trkpt lat="28.906968" lon="105.436121"><ele>297.5994</ele><time>2026-07-30T19:31:37.000Z</time></trkpt>
        <trkpt lat="28.906955" lon="105.43613"><ele>297.47708</ele><time>2026-07-30T19:31:39.000Z</time></trkpt>
        <trkpt lat="28.906946" lon="105.43614"><ele>297.552</ele><time>2026-07-30T19:31:41.000Z</time></trkpt>
        <trkpt lat="28.906942" lon="105.436148"><ele>297.2485</ele><time>2026-07-30T19:31:43.000Z</time></trkpt>
        <trkpt lat="28.90694" lon="105.436155"><ele>297.42105</ele><time>2026-07-30T19:31:47.000Z</time></trkpt>
        <trkpt lat="28.906934" lon="105.436169"><ele>296.81824</ele><time>2026-07-30T19:32:05.000Z</time></trkpt>
        <trkpt lat="28.906934" lon="105.436181"><ele>297.20142</ele><time>2026-07-30T19:32:09.000Z</time></trkpt>
        <trkpt lat="28.906931" lon="105.436182"><ele>297.25613</ele><time>2026-07-30T19:32:11.000Z</time></trkpt>
        <trkpt lat="28.906878" lon="105.436201"><ele>297.87164</ele><time>2026-07-30T19:33:13.000Z</time></trkpt>
        <trkpt lat="28.906878" lon="105.436201"><ele>298.4688</ele><time>2026-07-30T19:33:15.000Z</time></trkpt>
        <trkpt lat="28.906877" lon="105.436202"><ele>299.8326</ele><time>2026-07-30T19:33:17.000Z</time></trkpt>
        <trkpt lat="28.906831" lon="105.436248"><ele>303.09937</ele><time>2026-07-30T19:33:26.000Z</time></trkpt>
        <trkpt lat="28.906812" lon="105.436266"><ele>302.28653</ele><time>2026-07-30T19:33:28.000Z</time></trkpt>
        <trkpt lat="28.906788" lon="105.43629"><ele>302.1304</ele><time>2026-07-30T19:33:30.000Z</time></trkpt>
        <trkpt lat="28.906764" lon="105.436314"><ele>302.488</ele><time>2026-07-30T19:33:32.000Z</time></trkpt>
        <trkpt lat="28.906742" lon="105.436337"><ele>301.70825</ele><time>2026-07-30T19:33:34.000Z</time></trkpt>
        <trkpt lat="28.906722" lon="105.436358"><ele>301.29846</ele><time>2026-07-30T19:33:36.000Z</time></trkpt>
        <trkpt lat="28.906705" lon="105.436376"><ele>300.72586</ele><time>2026-07-30T19:33:38.000Z</time></trkpt>
        <trkpt lat="28.906686" lon="105.436395"><ele>301.0597</ele><time>2026-07-30T19:33:40.000Z</time></trkpt>
        <trkpt lat="28.906668" lon="105.436411"><ele>301.03165</ele><time>2026-07-30T19:33:42.000Z</time></trkpt>
        <trkpt lat="28.906648" lon="105.436426"><ele>300.629</ele><time>2026-07-30T19:33:44.000Z</time></trkpt>
        <trkpt lat="28.906632" lon="105.436443"><ele>301.08722</ele><time>2026-07-30T19:33:46.000Z</time></trkpt>
        <trkpt lat="28.906618" lon="105.436462"><ele>301.26135</ele><time>2026-07-30T19:33:48.000Z</time></trkpt>
        <trkpt lat="28.906603" lon="105.436481"><ele>300.2792</ele><time>2026-07-30T19:33:50.000Z</time></trkpt>
        <trkpt lat="28.906587" lon="105.436499"><ele>300.22156</ele><time>2026-07-30T19:33:52.000Z</time></trkpt>
        <trkpt lat="28.90657" lon="105.436518"><ele>301.28354</ele><time>2026-07-30T19:33:54.000Z</time></trkpt>
        <trkpt lat="28.906552" lon="105.436538"><ele>300.5499</ele><time>2026-07-30T19:33:56.000Z</time></trkpt>
        <trkpt lat="28.906537" lon="105.436558"><ele>300.98587</ele><time>2026-07-30T19:33:58.000Z</time></trkpt>
        <trkpt lat="28.906519" lon="105.43658"><ele>302.05273</ele><time>2026-07-30T19:34:00.000Z</time></trkpt>
        <trkpt lat="28.906508" lon="105.436598"><ele>302.36133</ele><time>2026-07-30T19:34:02.000Z</time></trkpt>
        <trkpt lat="28.906502" lon="105.436617"><ele>302.99002</ele><time>2026-07-30T19:34:04.000Z</time></trkpt>
        <trkpt lat="28.9065" lon="105.436636"><ele>303.9509</ele><time>2026-07-30T19:34:06.000Z</time></trkpt>
        <trkpt lat="28.9065" lon="105.43666"><ele>304.1253</ele><time>2026-07-30T19:34:08.000Z</time></trkpt>
        <trkpt lat="28.906503" lon="105.436684"><ele>303.8884</ele><time>2026-07-30T19:34:10.000Z</time></trkpt>
        <trkpt lat="28.906509" lon="105.436712"><ele>303.53296</ele><time>2026-07-30T19:34:12.000Z</time></trkpt>
        <trkpt lat="28.906518" lon="105.436741"><ele>302.76715</ele><time>2026-07-30T19:34:14.000Z</time></trkpt>
        <trkpt lat="28.906528" lon="105.436767"><ele>303.65887</ele><time>2026-07-30T19:34:16.000Z</time></trkpt>
        <trkpt lat="28.906539" lon="105.43679"><ele>303.29974</ele><time>2026-07-30T19:34:18.000Z</time></trkpt>
        <trkpt lat="28.90655" lon="105.436814"><ele>304.1803</ele><time>2026-07-30T19:34:20.000Z</time></trkpt>
        <trkpt lat="28.90656" lon="105.436837"><ele>303.4684</ele><time>2026-07-30T19:34:22.000Z</time></trkpt>
        <trkpt lat="28.906569" lon="105.436864"><ele>303.54535</ele><time>2026-07-30T19:34:24.000Z</time></trkpt>
        <trkpt lat="28.906577" lon="105.436889"><ele>303.16437</ele><time>2026-07-30T19:34:26.000Z</time></trkpt>
        <trkpt lat="28.906587" lon="105.436914"><ele>303.1224</ele><time>2026-07-30T19:34:28.000Z</time></trkpt>
        <trkpt lat="28.906598" lon="105.436939"><ele>303.41733</ele><time>2026-07-30T19:34:30.000Z</time></trkpt>
        <trkpt lat="28.90661" lon="105.43696"><ele>303.3534</ele><time>2026-07-30T19:34:32.000Z</time></trkpt>
        <trkpt lat="28.906624" lon="105.436978"><ele>302.9367</ele><time>2026-07-30T19:34:34.000Z</time></trkpt>
        <trkpt lat="28.906637" lon="105.436988"><ele>303.0772</ele><time>2026-07-30T19:34:36.000Z</time></trkpt>
        <trkpt lat="28.906653" lon="105.436995"><ele>302.13516</ele><time>2026-07-30T19:34:38.000Z</time></trkpt>
        <trkpt lat="28.906669" lon="105.437002"><ele>301.51193</ele><time>2026-07-30T19:34:40.000Z</time></trkpt>
        <trkpt lat="28.906687" lon="105.43701"><ele>300.91656</ele><time>2026-07-30T19:34:42.000Z</time></trkpt>
        <trkpt lat="28.906704" lon="105.43702"><ele>300.53732</ele><time>2026-07-30T19:34:44.000Z</time></trkpt>
        <trkpt lat="28.90672" lon="105.437032"><ele>300.5893</ele><time>2026-07-30T19:34:46.000Z</time></trkpt>
        <trkpt lat="28.906734" lon="105.437049"><ele>300.7173</ele><time>2026-07-30T19:34:48.000Z</time></trkpt>
        <trkpt lat="28.906742" lon="105.437067"><ele>301.39206</ele><time>2026-07-30T19:34:50.000Z</time></trkpt>
        <trkpt lat="28.906747" lon="105.437088"><ele>301.00952</ele><time>2026-07-30T19:34:52.000Z</time></trkpt>
        <trkpt lat="28.906753" lon="105.437108"><ele>300.38953</ele><time>2026-07-30T19:34:54.000Z</time></trkpt>
        <trkpt lat="28.906761" lon="105.437125"><ele>300.777</ele><time>2026-07-30T19:34:56.000Z</time></trkpt>
        <trkpt lat="28.906768" lon="105.437141"><ele>300.81863</ele><time>2026-07-30T19:34:58.000Z</time></trkpt>
        <trkpt lat="28.906776" lon="105.43716"><ele>300.48157</ele><time>2026-07-30T19:35:00.000Z</time></trkpt>
        <trkpt lat="28.906778" lon="105.437178"><ele>300.3703</ele><time>2026-07-30T19:35:02.000Z</time></trkpt>
        <trkpt lat="28.906779" lon="105.437198"><ele>300.5836</ele><time>2026-07-30T19:35:04.000Z</time></trkpt>
        <trkpt lat="28.906776" lon="105.437224"><ele>301.08917</ele><time>2026-07-30T19:35:06.000Z</time></trkpt>
        <trkpt lat="28.906776" lon="105.437247"><ele>301.54565</ele><time>2026-07-30T19:35:08.000Z</time></trkpt>
        <trkpt lat="28.90678" lon="105.437262"><ele>303.60916</ele><time>2026-07-30T19:35:10.000Z</time></trkpt>
        <trkpt lat="28.906784" lon="105.437281"><ele>303.0263</ele><time>2026-07-30T19:35:12.000Z</time></trkpt>
        <trkpt lat="28.906787" lon="105.437298"><ele>301.42154</ele><time>2026-07-30T19:35:14.000Z</time></trkpt>
        <trkpt lat="28.906789" lon="105.437314"><ele>300.5767</ele><time>2026-07-30T19:35:16.000Z</time></trkpt>
        <trkpt lat="28.90679" lon="105.437333"><ele>299.69254</ele><time>2026-07-30T19:35:18.000Z</time></trkpt>
        <trkpt lat="28.906792" lon="105.437355"><ele>299.25812</ele><time>2026-07-30T19:35:20.000Z</time></trkpt>
        <trkpt lat="28.906795" lon="105.437377"><ele>299.22705</ele><time>2026-07-30T19:35:22.000Z</time></trkpt>
        <trkpt lat="28.9068" lon="105.437399"><ele>298.6816</ele><time>2026-07-30T19:35:24.000Z</time></trkpt>
        <trkpt lat="28.906805" lon="105.437415"><ele>299.01382</ele><time>2026-07-30T19:35:26.000Z</time></trkpt>
        <trkpt lat="28.906811" lon="105.437426"><ele>299.18204</ele><time>2026-07-30T19:35:28.000Z</time></trkpt>
        <trkpt lat="28.906816" lon="105.437434"><ele>299.12427</ele><time>2026-07-30T19:35:30.000Z</time></trkpt>
        <trkpt lat="28.906819" lon="105.437444"><ele>299.12158</ele><time>2026-07-30T19:35:34.000Z</time></trkpt>
        <trkpt lat="28.90682" lon="105.437459"><ele>298.47495</ele><time>2026-07-30T19:35:38.000Z</time></trkpt>
        <trkpt lat="28.906824" lon="105.437495"><ele>299.09744</ele><time>2026-07-30T19:35:40.000Z</time></trkpt>
        <trkpt lat="28.906824" lon="105.437497"><ele>298.8046</ele><time>2026-07-30T19:35:42.000Z</time></trkpt>
        <trkpt lat="28.906825" lon="105.4375"><ele>298.3885</ele><time>2026-07-30T19:35:44.000Z</time></trkpt>
        <trkpt lat="28.906835" lon="105.437535"><ele>297.8712</ele><time>2026-07-30T19:35:48.000Z</time></trkpt>
        <trkpt lat="28.906843" lon="105.437562"><ele>298.02478</ele><time>2026-07-30T19:35:50.000Z</time></trkpt>
        <trkpt lat="28.906852" lon="105.43759"><ele>297.98557</ele><time>2026-07-30T19:35:52.000Z</time></trkpt>
        <trkpt lat="28.906863" lon="105.437615"><ele>297.75125</ele><time>2026-07-30T19:35:54.000Z</time></trkpt>
        <trkpt lat="28.906878" lon="105.437638"><ele>298.02408</ele><time>2026-07-30T19:35:56.000Z</time></trkpt>
        <trkpt lat="28.90689" lon="105.437645"><ele>297.71893</ele><time>2026-07-30T19:35:58.000Z</time></trkpt>
        <trkpt lat="28.906902" lon="105.437643"><ele>297.09653</ele><time>2026-07-30T19:36:00.000Z</time></trkpt>
        <trkpt lat="28.906915" lon="105.437637"><ele>297.68097</ele><time>2026-07-30T19:36:02.000Z</time></trkpt>
        <trkpt lat="28.906929" lon="105.437627"><ele>298.0006</ele><time>2026-07-30T19:36:04.000Z</time></trkpt>
        <trkpt lat="28.906944" lon="105.437615"><ele>298.0614</ele><time>2026-07-30T19:36:06.000Z</time></trkpt>
        <trkpt lat="28.906961" lon="105.437604"><ele>298.2</ele><time>2026-07-30T19:36:08.000Z</time></trkpt>
        <trkpt lat="28.906979" lon="105.437592"><ele>298.96268</ele><time>2026-07-30T19:36:10.000Z</time></trkpt>
        <trkpt lat="28.906996" lon="105.437581"><ele>299.5963</ele><time>2026-07-30T19:36:12.000Z</time></trkpt>
        <trkpt lat="28.907014" lon="105.437568"><ele>299.317</ele><time>2026-07-30T19:36:14.000Z</time></trkpt>
        <trkpt lat="28.90703" lon="105.437558"><ele>299.34406</ele><time>2026-07-30T19:36:16.000Z</time></trkpt>
        <trkpt lat="28.907047" lon="105.437548"><ele>299.56903</ele><time>2026-07-30T19:36:18.000Z</time></trkpt>
        <trkpt lat="28.907062" lon="105.437539"><ele>299.41718</ele><time>2026-07-30T19:36:20.000Z</time></trkpt>
        <trkpt lat="28.907077" lon="105.43753"><ele>298.939</ele><time>2026-07-30T19:36:22.000Z</time></trkpt>
        <trkpt lat="28.907092" lon="105.437521"><ele>298.1885</ele><time>2026-07-30T19:36:24.000Z</time></trkpt>
        <trkpt lat="28.907109" lon="105.437512"><ele>299.32147</ele><time>2026-07-30T19:36:26.000Z</time></trkpt>
        <trkpt lat="28.907126" lon="105.437504"><ele>300.23862</ele><time>2026-07-30T19:36:28.000Z</time></trkpt>
        <trkpt lat="28.90714" lon="105.437498"><ele>299.80798</ele><time>2026-07-30T19:36:30.000Z</time></trkpt>
        <trkpt lat="28.907156" lon="105.437491"><ele>299.7777</ele><time>2026-07-30T19:36:32.000Z</time></trkpt>
        <trkpt lat="28.907172" lon="105.437483"><ele>299.95514</ele><time>2026-07-30T19:36:34.000Z</time></trkpt>
        <trkpt lat="28.907187" lon="105.437476"><ele>299.4025</ele><time>2026-07-30T19:36:36.000Z</time></trkpt>
        <trkpt lat="28.907203" lon="105.437468"><ele>298.9616</ele><time>2026-07-30T19:36:38.000Z</time></trkpt>
        <trkpt lat="28.907219" lon="105.43746"><ele>298.9497</ele><time>2026-07-30T19:36:40.000Z</time></trkpt>
        <trkpt lat="28.907235" lon="105.437451"><ele>298.80798</ele><time>2026-07-30T19:36:42.000Z</time></trkpt>
        <trkpt lat="28.907251" lon="105.437441"><ele>299.13718</ele><time>2026-07-30T19:36:44.000Z</time></trkpt>
        <trkpt lat="28.907265" lon="105.437433"><ele>299.08145</ele><time>2026-07-30T19:36:46.000Z</time></trkpt>
        <trkpt lat="28.907279" lon="105.437423"><ele>298.58496</ele><time>2026-07-30T19:36:48.000Z</time></trkpt>
        <trkpt lat="28.907293" lon="105.437414"><ele>298.15347</ele><time>2026-07-30T19:36:50.000Z</time></trkpt>
        <trkpt lat="28.907308" lon="105.437404"><ele>297.23868</ele><time>2026-07-30T19:36:52.000Z</time></trkpt>
        <trkpt lat="28.907321" lon="105.437397"><ele>297.183</ele><time>2026-07-30T19:36:54.000Z</time></trkpt>
        <trkpt lat="28.907334" lon="105.43739"><ele>296.7134</ele><time>2026-07-30T19:36:56.000Z</time></trkpt>
        <trkpt lat="28.907347" lon="105.437383"><ele>297.08966</ele><time>2026-07-30T19:36:58.000Z</time></trkpt>
        <trkpt lat="28.907361" lon="105.437376"><ele>296.74985</ele><time>2026-07-30T19:37:00.000Z</time></trkpt>
        <trkpt lat="28.907379" lon="105.437368"><ele>296.60556</ele><time>2026-07-30T19:37:02.000Z</time></trkpt>
        <trkpt lat="28.907397" lon="105.437359"><ele>296.36508</ele><time>2026-07-30T19:37:04.000Z</time></trkpt>
        <trkpt lat="28.907416" lon="105.437351"><ele>295.84787</ele><time>2026-07-30T19:37:06.000Z</time></trkpt>
        <trkpt lat="28.907434" lon="105.437343"><ele>296.174</ele><time>2026-07-30T19:37:08.000Z</time></trkpt>
        <trkpt lat="28.907457" lon="105.437334"><ele>296.08316</ele><time>2026-07-30T19:37:10.000Z</time></trkpt>
        <trkpt lat="28.907478" lon="105.437326"><ele>295.88403</ele><time>2026-07-30T19:37:12.000Z</time></trkpt>
        <trkpt lat="28.907494" lon="105.437321"><ele>296.2019</ele><time>2026-07-30T19:37:14.000Z</time></trkpt>
        <trkpt lat="28.907511" lon="105.437318"><ele>296.62073</ele><time>2026-07-30T19:37:16.000Z</time></trkpt>
        <trkpt lat="28.907529" lon="105.437314"><ele>296.5445</ele><time>2026-07-30T19:37:18.000Z</time></trkpt>
        <trkpt lat="28.907546" lon="105.437308"><ele>296.27277</ele><time>2026-07-30T19:37:20.000Z</time></trkpt>
        <trkpt lat="28.907564" lon="105.437298"><ele>295.83566</ele><time>2026-07-30T19:37:22.000Z</time></trkpt>
        <trkpt lat="28.90758" lon="105.437288"><ele>296.05466</ele><time>2026-07-30T19:37:24.000Z</time></trkpt>
        <trkpt lat="28.907596" lon="105.437278"><ele>296.59967</ele><time>2026-07-30T19:37:26.000Z</time></trkpt>
        <trkpt lat="28.907612" lon="105.43727"><ele>296.74295</ele><time>2026-07-30T19:37:28.000Z</time></trkpt>
        <trkpt lat="28.907627" lon="105.437261"><ele>296.89575</ele><time>2026-07-30T19:37:30.000Z</time></trkpt>
        <trkpt lat="28.907643" lon="105.437253"><ele>297.12094</ele><time>2026-07-30T19:37:32.000Z</time></trkpt>
        <trkpt lat="28.907656" lon="105.437247"><ele>298.38953</ele><time>2026-07-30T19:37:34.000Z</time></trkpt>
        <trkpt lat="28.907665" lon="105.43724"><ele>298.50952</ele><time>2026-07-30T19:37:36.000Z</time></trkpt>
        <trkpt lat="28.907675" lon="105.437232"><ele>298.08362</ele><time>2026-07-30T19:37:38.000Z</time></trkpt>
        <trkpt lat="28.907684" lon="105.437225"><ele>297.76617</ele><time>2026-07-30T19:37:40.000Z</time></trkpt>
        <trkpt lat="28.907696" lon="105.437215"><ele>296.78192</ele><time>2026-07-30T19:37:42.000Z</time></trkpt>
        <trkpt lat="28.907706" lon="105.437207"><ele>296.3369</ele><time>2026-07-30T19:37:44.000Z</time></trkpt>
        <trkpt lat="28.907718" lon="105.437199"><ele>296.0944</ele><time>2026-07-30T19:37:46.000Z</time></trkpt>
        <trkpt lat="28.907732" lon="105.437191"><ele>295.7686</ele><time>2026-07-30T19:37:48.000Z</time></trkpt>
        <trkpt lat="28.907748" lon="105.437181"><ele>295.87338</ele><time>2026-07-30T19:37:50.000Z</time></trkpt>
        <trkpt lat="28.907764" lon="105.437172"><ele>296.7992</ele><time>2026-07-30T19:37:52.000Z</time></trkpt>
        <trkpt lat="28.907778" lon="105.437165"><ele>294.98724</ele><time>2026-07-30T19:37:54.000Z</time></trkpt>
        <trkpt lat="28.907792" lon="105.437159"><ele>295.3172</ele><time>2026-07-30T19:37:56.000Z</time></trkpt>
        <trkpt lat="28.907808" lon="105.437153"><ele>295.24832</ele><time>2026-07-30T19:37:58.000Z</time></trkpt>
        <trkpt lat="28.907826" lon="105.437147"><ele>296.15445</ele><time>2026-07-30T19:38:00.000Z</time></trkpt>
        <trkpt lat="28.907845" lon="105.43714"><ele>296.15286</ele><time>2026-07-30T19:38:02.000Z</time></trkpt>
        <trkpt lat="28.907864" lon="105.437131"><ele>296.14447</ele><time>2026-07-30T19:38:04.000Z</time></trkpt>
        <trkpt lat="28.907881" lon="105.437121"><ele>296.73114</ele><time>2026-07-30T19:38:06.000Z</time></trkpt>
        <trkpt lat="28.907891" lon="105.437112"><ele>296.64697</ele><time>2026-07-30T19:38:08.000Z</time></trkpt>
        <trkpt lat="28.9079" lon="105.437103"><ele>296.562</ele><time>2026-07-30T19:38:10.000Z</time></trkpt>
        <trkpt lat="28.90791" lon="105.437092"><ele>296.63068</ele><time>2026-07-30T19:38:12.000Z</time></trkpt>
        <trkpt lat="28.907917" lon="105.437081"><ele>297.79825</ele><time>2026-07-30T19:38:14.000Z</time></trkpt>
        <trkpt lat="28.907924" lon="105.437073"><ele>298.1933</ele><time>2026-07-30T19:38:16.000Z</time></trkpt>
        <trkpt lat="28.907929" lon="105.437072"><ele>298.11533</ele><time>2026-07-30T19:38:18.000Z</time></trkpt>
        <trkpt lat="28.907884" lon="105.437082"><ele>298.89548</ele><time>2026-07-30T19:38:32.000Z</time></trkpt>
        <trkpt lat="28.90788" lon="105.437083"><ele>299.08533</ele><time>2026-07-30T19:38:34.000Z</time></trkpt>
        <trkpt lat="28.90788" lon="105.437084"><ele>299.09186</ele><time>2026-07-30T19:38:36.000Z</time></trkpt>
        <trkpt lat="28.907864" lon="105.437122"><ele>298.20837</ele><time>2026-07-30T19:38:50.000Z</time></trkpt>
        <trkpt lat="28.907864" lon="105.437122"><ele>298.98572</ele><time>2026-07-30T19:38:52.000Z</time></trkpt>
        <trkpt lat="28.907863" lon="105.437122"><ele>298.61908</ele><time>2026-07-30T19:38:54.000Z</time></trkpt>
        <trkpt lat="28.907912" lon="105.437122"><ele>297.72</ele><time>2026-07-30T19:39:33.000Z</time></trkpt>
        <trkpt lat="28.907912" lon="105.437122"><ele>298.36688</ele><time>2026-07-30T19:39:35.000Z</time></trkpt>
        <trkpt lat="28.907912" lon="105.437121"><ele>298.536</ele><time>2026-07-30T19:39:37.000Z</time></trkpt>
        <trkpt lat="28.907905" lon="105.437044"><ele>299.92572</ele><time>2026-07-30T19:39:47.000Z</time></trkpt>
        <trkpt lat="28.907904" lon="105.437034"><ele>300.00626</ele><time>2026-07-30T19:39:49.000Z</time></trkpt>
        <trkpt lat="28.907906" lon="105.437029"><ele>298.96625</ele><time>2026-07-30T19:39:51.000Z</time></trkpt>
        <trkpt lat="28.90793" lon="105.43697"><ele>298.49707</ele><time>2026-07-30T19:39:59.000Z</time></trkpt>
        <trkpt lat="28.907938" lon="105.436951"><ele>298.02847</ele><time>2026-07-30T19:40:01.000Z</time></trkpt>
        <trkpt lat="28.907946" lon="105.43693"><ele>297.2273</ele><time>2026-07-30T19:40:03.000Z</time></trkpt>
        <trkpt lat="28.907954" lon="105.43691"><ele>296.99768</ele><time>2026-07-30T19:40:05.000Z</time></trkpt>
        <trkpt lat="28.907958" lon="105.436896"><ele>294.4442</ele><time>2026-07-30T19:40:07.000Z</time></trkpt>
        <trkpt lat="28.907967" lon="105.436877"><ele>293.60913</ele><time>2026-07-30T19:40:09.000Z</time></trkpt>
        <trkpt lat="28.907978" lon="105.436858"><ele>294.31354</ele><time>2026-07-30T19:40:11.000Z</time></trkpt>
        <trkpt lat="28.907991" lon="105.436841"><ele>294.6026</ele><time>2026-07-30T19:40:13.000Z</time></trkpt>
        <trkpt lat="28.908006" lon="105.436828"><ele>295.41565</ele><time>2026-07-30T19:40:15.000Z</time></trkpt>
        <trkpt lat="28.908026" lon="105.436816"><ele>295.5163</ele><time>2026-07-30T19:40:17.000Z</time></trkpt>
        <trkpt lat="28.908047" lon="105.436803"><ele>297.23703</ele><time>2026-07-30T19:40:19.000Z</time></trkpt>
        <trkpt lat="28.908068" lon="105.436789"><ele>297.9576</ele><time>2026-07-30T19:40:21.000Z</time></trkpt>
        <trkpt lat="28.908084" lon="105.436776"><ele>299.3812</ele><time>2026-07-30T19:40:23.000Z</time></trkpt>
        <trkpt lat="28.908101" lon="105.436764"><ele>298.85776</ele><time>2026-07-30T19:40:25.000Z</time></trkpt>
        <trkpt lat="28.908119" lon="105.436756"><ele>298.2142</ele><time>2026-07-30T19:40:27.000Z</time></trkpt>
        <trkpt lat="28.908137" lon="105.436746"><ele>298.12344</ele><time>2026-07-30T19:40:29.000Z</time></trkpt>
        <trkpt lat="28.90815" lon="105.43674"><ele>298.27594</ele><time>2026-07-30T19:40:31.000Z</time></trkpt>
        <trkpt lat="28.908098" lon="105.436693"><ele>300.43417</ele><time>2026-07-30T19:40:41.000Z</time></trkpt>
        <trkpt lat="28.908082" lon="105.436676"><ele>300.7858</ele><time>2026-07-30T19:40:43.000Z</time></trkpt>
        <trkpt lat="28.908062" lon="105.436653"><ele>300.81027</ele><time>2026-07-30T19:40:45.000Z</time></trkpt>
        <trkpt lat="28.908046" lon="105.43663"><ele>300.10327</ele><time>2026-07-30T19:40:47.000Z</time></trkpt>
        <trkpt lat="28.908031" lon="105.436612"><ele>299.62872</ele><time>2026-07-30T19:40:49.000Z</time></trkpt>
        <trkpt lat="28.90802" lon="105.436601"><ele>299.6108</ele><time>2026-07-30T19:40:51.000Z</time></trkpt>
        <trkpt lat="28.908004" lon="105.43658"><ele>298.25555</ele><time>2026-07-30T19:40:57.000Z</time></trkpt>
        <trkpt lat="28.908082" lon="105.43668"><ele>296.06403</ele><time>2026-07-30T19:41:23.000Z</time></trkpt>
        <trkpt lat="28.908069" lon="105.436706"><ele>296.17828</ele><time>2026-07-30T19:41:25.000Z</time></trkpt>
        <trkpt lat="28.908069" lon="105.436708"><ele>295.9584</ele><time>2026-07-30T19:41:27.000Z</time></trkpt>
        <trkpt lat="28.908059" lon="105.436763"><ele>297.37802</ele><time>2026-07-30T19:41:33.000Z</time></trkpt>
        <trkpt lat="28.908052" lon="105.436804"><ele>297.69315</ele><time>2026-07-30T19:41:35.000Z</time></trkpt>
        <trkpt lat="28.908045" lon="105.436846"><ele>298.59555</ele><time>2026-07-30T19:41:37.000Z</time></trkpt>
        <trkpt lat="28.908036" lon="105.43688"><ele>298.7344</ele><time>2026-07-30T19:41:39.000Z</time></trkpt>
        <trkpt lat="28.908028" lon="105.436907"><ele>299.11423</ele><time>2026-07-30T19:41:42.000Z</time></trkpt>
        <trkpt lat="28.908018" lon="105.436929"><ele>299.41187</ele><time>2026-07-30T19:41:44.000Z</time></trkpt>
        <trkpt lat="28.908007" lon="105.436946"><ele>299.51392</ele><time>2026-07-30T19:41:46.000Z</time></trkpt>
        <trkpt lat="28.907992" lon="105.436962"><ele>299.5642</ele><time>2026-07-30T19:41:48.000Z</time></trkpt>
        <trkpt lat="28.907975" lon="105.436979"><ele>299.24658</ele><time>2026-07-30T19:41:50.000Z</time></trkpt>
        <trkpt lat="28.907958" lon="105.436997"><ele>299.69336</ele><time>2026-07-30T19:41:52.000Z</time></trkpt>
        <trkpt lat="28.907945" lon="105.437013"><ele>299.63208</ele><time>2026-07-30T19:41:54.000Z</time></trkpt>
        <trkpt lat="28.907946" lon="105.437025"><ele>299.06528</ele><time>2026-07-30T19:41:56.000Z</time></trkpt>
        <trkpt lat="28.907955" lon="105.437037"><ele>298.14386</ele><time>2026-07-30T19:42:02.000Z</time></trkpt>
        <trkpt lat="28.90797" lon="105.437055"><ele>298.18494</ele><time>2026-07-30T19:42:14.000Z</time></trkpt>
        <trkpt lat="28.907971" lon="105.437054"><ele>297.90375</ele><time>2026-07-30T19:42:22.000Z</time></trkpt>
        <trkpt lat="28.907936" lon="105.437085"><ele>297.89337</ele><time>2026-07-30T19:42:56.000Z</time></trkpt>
        <trkpt lat="28.90792" lon="105.437091"><ele>298.0048</ele><time>2026-07-30T19:42:58.000Z</time></trkpt>
        <trkpt lat="28.907908" lon="105.437099"><ele>298.4488</ele><time>2026-07-30T19:43:00.000Z</time></trkpt>
        <trkpt lat="28.907882" lon="105.43712"><ele>296.59116</ele><time>2026-07-30T19:43:03.000Z</time></trkpt>
        <trkpt lat="28.907856" lon="105.437139"><ele>297.03934</ele><time>2026-07-30T19:43:10.000Z</time></trkpt>
        <trkpt lat="28.907841" lon="105.437148"><ele>296.85944</ele><time>2026-07-30T19:43:12.000Z</time></trkpt>
        <trkpt lat="28.907824" lon="105.437159"><ele>296.3423</ele><time>2026-07-30T19:43:14.000Z</time></trkpt>
        <trkpt lat="28.90781" lon="105.437168"><ele>295.8929</ele><time>2026-07-30T19:43:16.000Z</time></trkpt>
        <trkpt lat="28.907789" lon="105.437182"><ele>295.93896</ele><time>2026-07-30T19:43:20.000Z</time></trkpt>
        <trkpt lat="28.907826" lon="105.43723"><ele>295.7807</ele><time>2026-07-30T19:43:45.000Z</time></trkpt>
        <trkpt lat="28.907836" lon="105.43725"><ele>296.1145</ele><time>2026-07-30T19:43:47.000Z</time></trkpt>
        <trkpt lat="28.907852" lon="105.437285"><ele>296.82858</ele><time>2026-07-30T19:43:49.000Z</time></trkpt>
        <trkpt lat="28.907869" lon="105.437318"><ele>296.47284</ele><time>2026-07-30T19:43:51.000Z</time></trkpt>
        <trkpt lat="28.907887" lon="105.437345"><ele>296.04773</ele><time>2026-07-30T19:43:54.000Z</time></trkpt>
        <trkpt lat="28.907905" lon="105.437367"><ele>296.80246</ele><time>2026-07-30T19:43:56.000Z</time></trkpt>
        <trkpt lat="28.907924" lon="105.437385"><ele>296.65982</ele><time>2026-07-30T19:43:58.000Z</time></trkpt>
        <trkpt lat="28.907943" lon="105.437401"><ele>298.0365</ele><time>2026-07-30T19:44:00.000Z</time></trkpt>
        <trkpt lat="28.907959" lon="105.437413"><ele>298.55994</ele><time>2026-07-30T19:44:02.000Z</time></trkpt>
        <trkpt lat="28.907973" lon="105.437425"><ele>298.20798</ele><time>2026-07-30T19:44:04.000Z</time></trkpt>
        <trkpt lat="28.907986" lon="105.43744"><ele>298.07175</ele><time>2026-07-30T19:44:06.000Z</time></trkpt>
        <trkpt lat="28.907996" lon="105.437459"><ele>298.38318</ele><time>2026-07-30T19:44:08.000Z</time></trkpt>
        <trkpt lat="28.908004" lon="105.437479"><ele>299.0209</ele><time>2026-07-30T19:44:10.000Z</time></trkpt>
        <trkpt lat="28.90801" lon="105.437501"><ele>298.55136</ele><time>2026-07-30T19:44:12.000Z</time></trkpt>
        <trkpt lat="28.908016" lon="105.437525"><ele>298.55075</ele><time>2026-07-30T19:44:14.000Z</time></trkpt>
        <trkpt lat="28.908022" lon="105.437546"><ele>298.69003</ele><time>2026-07-30T19:44:16.000Z</time></trkpt>
        <trkpt lat="28.908025" lon="105.437568"><ele>298.9951</ele><time>2026-07-30T19:44:18.000Z</time></trkpt>
        <trkpt lat="28.908025" lon="105.437587"><ele>298.62537</ele><time>2026-07-30T19:44:20.000Z</time></trkpt>
        <trkpt lat="28.90802" lon="105.437597"><ele>297.77383</ele><time>2026-07-30T19:44:22.000Z</time></trkpt>
        <trkpt lat="28.908008" lon="105.437609"><ele>297.94647</ele><time>2026-07-30T19:44:24.000Z</time></trkpt>
        <trkpt lat="28.90799" lon="105.437625"><ele>298.20734</ele><time>2026-07-30T19:44:26.000Z</time></trkpt>
        <trkpt lat="28.907973" lon="105.437637"><ele>298.54453</ele><time>2026-07-30T19:44:28.000Z</time></trkpt>
        <trkpt lat="28.907953" lon="105.43765"><ele>299.572</ele><time>2026-07-30T19:44:30.000Z</time></trkpt>
        <trkpt lat="28.907933" lon="105.437661"><ele>299.21014</ele><time>2026-07-30T19:44:32.000Z</time></trkpt>
        <trkpt lat="28.907915" lon="105.437669"><ele>299.35205</ele><time>2026-07-30T19:44:34.000Z</time></trkpt>
        <trkpt lat="28.907904" lon="105.437676"><ele>299.82428</ele><time>2026-07-30T19:44:36.000Z</time></trkpt>
        <trkpt lat="28.907897" lon="105.437677"><ele>300.20554</ele><time>2026-07-30T19:44:38.000Z</time></trkpt>
        <trkpt lat="28.90798" lon="105.437668"><ele>298.09778</ele><time>2026-07-30T19:44:48.000Z</time></trkpt>
        <trkpt lat="28.90798" lon="105.437668"><ele>298.17432</ele><time>2026-07-30T19:44:50.000Z</time></trkpt>
        <trkpt lat="28.907982" lon="105.437666"><ele>298.96152</ele><time>2026-07-30T19:44:52.000Z</time></trkpt>
        <trkpt lat="28.908016" lon="105.437639"><ele>299.0335</ele><time>2026-07-30T19:45:00.000Z</time></trkpt>
        <trkpt lat="28.908016" lon="105.437639"><ele>299.60217</ele><time>2026-07-30T19:45:02.000Z</time></trkpt>
        <trkpt lat="28.908021" lon="105.437629"><ele>299.97855</ele><time>2026-07-30T19:45:17.000Z</time></trkpt>
        <trkpt lat="28.908059" lon="105.437545"><ele>299.14038</ele><time>2026-07-30T19:47:00.000Z</time></trkpt>
        <trkpt lat="28.908048" lon="105.437479"><ele>299.02322</ele><time>2026-07-30T19:47:02.000Z</time></trkpt>
        <trkpt lat="28.908047" lon="105.437475"><ele>299.09097</ele><time>2026-07-30T19:47:04.000Z</time></trkpt>
        <trkpt lat="28.908033" lon="105.437378"><ele>299.54724</ele><time>2026-07-30T19:47:10.000Z</time></trkpt>
        <trkpt lat="28.908072" lon="105.437284"><ele>299.1518</ele><time>2026-07-30T19:47:12.000Z</time></trkpt>
        <trkpt lat="28.908174" lon="105.437185"><ele>298.9675</ele><time>2026-07-30T19:47:14.000Z</time></trkpt>
        <trkpt lat="28.908303" lon="105.43706"><ele>298.82248</ele><time>2026-07-30T19:47:16.000Z</time></trkpt>
        <trkpt lat="28.908634" lon="105.436875"><ele>298.61746</ele><time>2026-07-30T19:47:18.000Z</time></trkpt>
        <trkpt lat="28.908654" lon="105.436863"><ele>298.24103</ele><time>2026-07-30T19:47:20.000Z</time></trkpt>
        <trkpt lat="28.908672" lon="105.43685"><ele>297.682</ele><time>2026-07-30T19:47:22.000Z</time></trkpt>
        <trkpt lat="28.908752" lon="105.436787"><ele>297.24966</ele><time>2026-07-30T19:47:24.000Z</time></trkpt>
        <trkpt lat="28.909279" lon="105.436376"><ele>296.81912</ele><time>2026-07-30T19:47:26.000Z</time></trkpt>
        <trkpt lat="28.909314" lon="105.436348"><ele>296.66684</ele><time>2026-07-30T19:47:28.000Z</time></trkpt>
        <trkpt lat="28.909327" lon="105.436338"><ele>296.48355</ele><time>2026-07-30T19:47:30.000Z</time></trkpt>
        <trkpt lat="28.909375" lon="105.4363"><ele>296.09097</ele><time>2026-07-30T19:47:32.000Z</time></trkpt>
        <trkpt lat="28.909628" lon="105.4361"><ele>295.88345</ele><time>2026-07-30T19:47:34.000Z</time></trkpt>
        <trkpt lat="28.909645" lon="105.436086"><ele>295.55902</ele><time>2026-07-30T19:47:36.000Z</time></trkpt>
        <trkpt lat="28.909649" lon="105.436083"><ele>295.41345</ele><time>2026-07-30T19:47:38.000Z</time></trkpt>
        <trkpt lat="28.909669" lon="105.436067"><ele>295.23563</ele><time>2026-07-30T19:47:42.000Z</time></trkpt>
        <trkpt lat="28.909679" lon="105.436059"><ele>295.14697</ele><time>2026-07-30T19:47:44.000Z</time></trkpt>
        <trkpt lat="28.909686" lon="105.436053"><ele>295.14697</ele><time>2026-07-30T19:47:46.000Z</time></trkpt>
        <trkpt lat="28.909701" lon="105.43604"><ele>294.81958</ele><time>2026-07-30T19:47:50.000Z</time></trkpt>
        <trkpt lat="28.909701" lon="105.43604"><ele>294.85962</ele><time>2026-07-30T19:47:52.000Z</time></trkpt>
        <trkpt lat="28.909714" lon="105.436029"><ele>294.64328</ele><time>2026-07-30T19:47:56.000Z</time></trkpt>
        <trkpt lat="28.909805" lon="105.435952"><ele>294.7846</ele><time>2026-07-30T19:47:58.000Z</time></trkpt>
        <trkpt lat="28.909875" lon="105.435841"><ele>294.6373</ele><time>2026-07-30T19:48:00.000Z</time></trkpt>
        <trkpt lat="28.909879" lon="105.435832"><ele>294.4065</ele><time>2026-07-30T19:48:02.000Z</time></trkpt>
        <trkpt lat="28.909884" lon="105.4358"><ele>293.52072</ele><time>2026-07-30T19:48:04.000Z</time></trkpt>
        <trkpt lat="28.909906" lon="105.435663"><ele>292.67108</ele><time>2026-07-30T19:48:06.000Z</time></trkpt>
        <trkpt lat="28.909837" lon="105.435202"><ele>292.28107</ele><time>2026-07-30T19:48:08.000Z</time></trkpt>
        <trkpt lat="28.909829" lon="105.435176"><ele>291.79495</ele><time>2026-07-30T19:48:10.000Z</time></trkpt>
        <trkpt lat="28.909816" lon="105.435145"><ele>291.32635</ele><time>2026-07-30T19:48:12.000Z</time></trkpt>
        <trkpt lat="28.909762" lon="105.435022"><ele>291.01523</ele><time>2026-07-30T19:48:14.000Z</time></trkpt>
        <trkpt lat="28.90956" lon="105.434559"><ele>290.88602</ele><time>2026-07-30T19:48:16.000Z</time></trkpt>
        <trkpt lat="28.909547" lon="105.434528"><ele>290.63947</ele><time>2026-07-30T19:48:18.000Z</time></trkpt>
        <trkpt lat="28.909531" lon="105.434494"><ele>290.65225</ele><time>2026-07-30T19:48:20.000Z</time></trkpt>
        <trkpt lat="28.909466" lon="105.434355"><ele>290.57877</ele><time>2026-07-30T19:48:22.000Z</time></trkpt>
        <trkpt lat="28.909219" lon="105.433821"><ele>290.84467</ele><time>2026-07-30T19:48:24.000Z</time></trkpt>
        <trkpt lat="28.909202" lon="105.433784"><ele>290.90933</ele><time>2026-07-30T19:48:26.000Z</time></trkpt>
        <trkpt lat="28.90919" lon="105.433762"><ele>291.02164</ele><time>2026-07-30T19:48:28.000Z</time></trkpt>
        <trkpt lat="28.909153" lon="105.433689"><ele>290.9624</ele><time>2026-07-30T19:48:30.000Z</time></trkpt>
        <trkpt lat="28.909045" lon="105.433481"><ele>290.99487</ele><time>2026-07-30T19:48:32.000Z</time></trkpt>
        <trkpt lat="28.909037" lon="105.433467"><ele>291.13873</ele><time>2026-07-30T19:48:34.000Z</time></trkpt>
        <trkpt lat="28.909034" lon="105.433463"><ele>291.20642</ele><time>2026-07-30T19:48:36.000Z</time></trkpt>
        <trkpt lat="28.909013" lon="105.433435"><ele>291.05017</ele><time>2026-07-30T19:48:40.000Z</time></trkpt>
        <trkpt lat="28.909004" lon="105.433423"><ele>290.76483</ele><time>2026-07-30T19:48:42.000Z</time></trkpt>
        <trkpt lat="28.908999" lon="105.433416"><ele>290.27927</ele><time>2026-07-30T19:48:44.000Z</time></trkpt>
        <trkpt lat="28.908992" lon="105.433409"><ele>290.2762</ele><time>2026-07-30T19:48:48.000Z</time></trkpt>
        <trkpt lat="28.90899" lon="105.433405"><ele>289.92035</ele><time>2026-07-30T19:48:50.000Z</time></trkpt>
        <trkpt lat="28.908979" lon="105.433388"><ele>289.6417</ele><time>2026-07-30T19:48:52.000Z</time></trkpt>
        <trkpt lat="28.908973" lon="105.43338"><ele>289.92825</ele><time>2026-07-30T19:48:56.000Z</time></trkpt>
        <trkpt lat="28.908947" lon="105.433343"><ele>289.799</ele><time>2026-07-30T19:48:58.000Z</time></trkpt>
        <trkpt lat="28.908825" lon="105.433178"><ele>289.64886</ele><time>2026-07-30T19:49:00.000Z</time></trkpt>
        <trkpt lat="28.908815" lon="105.433166"><ele>289.6078</ele><time>2026-07-30T19:49:02.000Z</time></trkpt>
        <trkpt lat="28.908791" lon="105.43314"><ele>289.449</ele><time>2026-07-30T19:49:04.000Z</time></trkpt>
        <trkpt lat="28.908697" lon="105.433051"><ele>289.27216</ele><time>2026-07-30T19:49:06.000Z</time></trkpt>
        <trkpt lat="28.908412" lon="105.432779"><ele>288.98117</ele><time>2026-07-30T19:49:08.000Z</time></trkpt>
        <trkpt lat="28.908389" lon="105.432763"><ele>288.68967</ele><time>2026-07-30T19:49:10.000Z</time></trkpt>
        <trkpt lat="28.908352" lon="105.43274"><ele>288.34692</ele><time>2026-07-30T19:49:12.000Z</time></trkpt>
        <trkpt lat="28.908217" lon="105.432665"><ele>288.01044</ele><time>2026-07-30T19:49:14.000Z</time></trkpt>
        <trkpt lat="28.90786" lon="105.432467"><ele>287.79892</ele><time>2026-07-30T19:49:16.000Z</time></trkpt>
        <trkpt lat="28.907834" lon="105.432454"><ele>287.6523</ele><time>2026-07-30T19:49:18.000Z</time></trkpt>
        <trkpt lat="28.907716" lon="105.432395"><ele>287.82224</ele><time>2026-07-30T19:49:21.000Z</time></trkpt>
        <trkpt lat="28.907716" lon="105.432395"><ele>287.88943</ele><time>2026-07-30T19:49:23.000Z</time></trkpt>
        <trkpt lat="28.907716" lon="105.432394"><ele>287.7844</ele><time>2026-07-30T19:49:25.000Z</time></trkpt>
        <trkpt lat="28.907702" lon="105.432388"><ele>288.1176</ele><time>2026-07-30T19:49:41.000Z</time></trkpt>
        <trkpt lat="28.907655" lon="105.432365"><ele>288.05222</ele><time>2026-07-30T19:49:43.000Z</time></trkpt>
        <trkpt lat="28.907651" lon="105.432363"><ele>287.88928</ele><time>2026-07-30T19:49:45.000Z</time></trkpt>
        <trkpt lat="28.907631" lon="105.432355"><ele>287.75638</ele><time>2026-07-30T19:49:47.000Z</time></trkpt>
        <trkpt lat="28.907545" lon="105.432321"><ele>287.51608</ele><time>2026-07-30T19:49:49.000Z</time></trkpt>
        <trkpt lat="28.907384" lon="105.432258"><ele>287.23474</ele><time>2026-07-30T19:49:51.000Z</time></trkpt>
        <trkpt lat="28.907067" lon="105.432133"><ele>286.9638</ele><time>2026-07-30T19:49:53.000Z</time></trkpt>
        <trkpt lat="28.907044" lon="105.432124"><ele>286.76245</ele><time>2026-07-30T19:49:55.000Z</time></trkpt>
        <trkpt lat="28.907005" lon="105.432109"><ele>286.5706</ele><time>2026-07-30T19:49:57.000Z</time></trkpt>
        <trkpt lat="28.906864" lon="105.432056"><ele>286.3538</ele><time>2026-07-30T19:49:59.000Z</time></trkpt>
        <trkpt lat="28.906434" lon="105.431896"><ele>286.2694</ele><time>2026-07-30T19:50:01.000Z</time></trkpt>
        <trkpt lat="28.906402" lon="105.431884"><ele>286.11194</ele><time>2026-07-30T19:50:03.000Z</time></trkpt>
        <trkpt lat="28.906361" lon="105.431868"><ele>285.65222</ele><time>2026-07-30T19:50:05.000Z</time></trkpt>
        <trkpt lat="28.906206" lon="105.431807"><ele>285.46466</ele><time>2026-07-30T19:50:07.000Z</time></trkpt>
        <trkpt lat="28.905721" lon="105.431617"><ele>285.3511</ele><time>2026-07-30T19:50:09.000Z</time></trkpt>
        <trkpt lat="28.905685" lon="105.431602"><ele>285.01093</ele><time>2026-07-30T19:50:11.000Z</time></trkpt>
        <trkpt lat="28.905633" lon="105.431579"><ele>284.66602</ele><time>2026-07-30T19:50:13.000Z</time></trkpt>
        <trkpt lat="28.905144" lon="105.431367"><ele>284.2579</ele><time>2026-07-30T19:50:15.000Z</time></trkpt>
        <trkpt lat="28.905108" lon="105.431352"><ele>284.14322</ele><time>2026-07-30T19:50:17.000Z</time></trkpt>
        <trkpt lat="28.905065" lon="105.431337"><ele>283.8166</ele><time>2026-07-30T19:50:19.000Z</time></trkpt>
        <trkpt lat="28.904917" lon="105.431287"><ele>283.4377</ele><time>2026-07-30T19:50:21.000Z</time></trkpt>
        <trkpt lat="28.904506" lon="105.431148"><ele>283.01114</ele><time>2026-07-30T19:50:23.000Z</time></trkpt>
        <trkpt lat="28.904476" lon="105.431138"><ele>282.61392</ele><time>2026-07-30T19:50:25.000Z</time></trkpt>
        <trkpt lat="28.904431" lon="105.431126"><ele>281.98264</ele><time>2026-07-30T19:50:27.000Z</time></trkpt>
        <trkpt lat="28.904277" lon="105.431087"><ele>281.45923</ele><time>2026-07-30T19:50:29.000Z</time></trkpt>
        <trkpt lat="28.903892" lon="105.430988"><ele>280.90164</ele><time>2026-07-30T19:50:31.000Z</time></trkpt>
        <trkpt lat="28.903865" lon="105.43098"><ele>280.5278</ele><time>2026-07-30T19:50:33.000Z</time></trkpt>
        <trkpt lat="28.903837" lon="105.430971"><ele>279.95193</ele><time>2026-07-30T19:50:35.000Z</time></trkpt>
        <trkpt lat="28.903742" lon="105.430939"><ele>279.6343</ele><time>2026-07-30T19:50:37.000Z</time></trkpt>
        <trkpt lat="28.903609" lon="105.430842"><ele>279.974</ele><time>2026-07-30T19:50:39.000Z</time></trkpt>
        <trkpt lat="28.903488" lon="105.430699"><ele>280.5192</ele><time>2026-07-30T19:50:41.000Z</time></trkpt>
        <trkpt lat="28.903395" lon="105.43053"><ele>281.17267</ele><time>2026-07-30T19:50:43.000Z</time></trkpt>
        <trkpt lat="28.903305" lon="105.430366"><ele>282.0348</ele><time>2026-07-30T19:50:45.000Z</time></trkpt>
        <trkpt lat="28.903252" lon="105.430208"><ele>282.59238</ele><time>2026-07-30T19:50:47.000Z</time></trkpt>
        <trkpt lat="28.903255" lon="105.430077"><ele>283.67883</ele><time>2026-07-30T19:50:49.000Z</time></trkpt>
        <trkpt lat="28.903305" lon="105.429966"><ele>284.4846</ele><time>2026-07-30T19:50:51.000Z</time></trkpt>
        <trkpt lat="28.903386" lon="105.429868"><ele>284.71335</ele><time>2026-07-30T19:50:53.000Z</time></trkpt>
        <trkpt lat="28.90348" lon="105.429762"><ele>285.0729</ele><time>2026-07-30T19:50:55.000Z</time></trkpt>
        <trkpt lat="28.903576" lon="105.429653"><ele>285.36963</ele><time>2026-07-30T19:50:57.000Z</time></trkpt>
        <trkpt lat="28.90367" lon="105.429545"><ele>285.49805</ele><time>2026-07-30T19:50:59.000Z</time></trkpt>
        <trkpt lat="28.903747" lon="105.429454"><ele>285.7505</ele><time>2026-07-30T19:51:01.000Z</time></trkpt>
        <trkpt lat="28.903807" lon="105.429381"><ele>286.12354</ele><time>2026-07-30T19:51:03.000Z</time></trkpt>
        <trkpt lat="28.903861" lon="105.429314"><ele>286.14615</ele><time>2026-07-30T19:51:05.000Z</time></trkpt>
        <trkpt lat="28.903906" lon="105.429193"><ele>285.69168</ele><time>2026-07-30T19:51:07.000Z</time></trkpt>
        <trkpt lat="28.90391" lon="105.429185"><ele>285.75998</ele><time>2026-07-30T19:51:09.000Z</time></trkpt>
        <trkpt lat="28.903921" lon="105.429169"><ele>285.55295</ele><time>2026-07-30T19:51:11.000Z</time></trkpt>
        <trkpt lat="28.903962" lon="105.429104"><ele>285.55167</ele><time>2026-07-30T19:51:13.000Z</time></trkpt>
        <trkpt lat="28.904128" lon="105.428843"><ele>285.70612</ele><time>2026-07-30T19:51:15.000Z</time></trkpt>
        <trkpt lat="28.90414" lon="105.428824"><ele>286.32388</ele><time>2026-07-30T19:51:17.000Z</time></trkpt>
        <trkpt lat="28.904146" lon="105.428813"><ele>286.52206</ele><time>2026-07-30T19:51:19.000Z</time></trkpt>
        <trkpt lat="28.904168" lon="105.42878"><ele>286.70715</ele><time>2026-07-30T19:51:21.000Z</time></trkpt>
        <trkpt lat="28.904198" lon="105.428733"><ele>286.59183</ele><time>2026-07-30T19:51:23.000Z</time></trkpt>
        <trkpt lat="28.904221" lon="105.428695"><ele>286.10355</ele><time>2026-07-30T19:51:25.000Z</time></trkpt>
        <trkpt lat="28.904237" lon="105.428671"><ele>286.5839</ele><time>2026-07-30T19:51:27.000Z</time></trkpt>
        <trkpt lat="28.904242" lon="105.428661"><ele>286.77734</ele><time>2026-07-30T19:51:29.000Z</time></trkpt>
        <trkpt lat="28.904242" lon="105.428661"><ele>286.66226</ele><time>2026-07-30T19:51:31.000Z</time></trkpt>
        <trkpt lat="28.904261" lon="105.42867"><ele>285.88458</ele><time>2026-07-30T19:51:40.000Z</time></trkpt>
        <trkpt lat="28.90427" lon="105.428674"><ele>285.81845</ele><time>2026-07-30T19:51:42.000Z</time></trkpt>
        <trkpt lat="28.90427" lon="105.428674"><ele>285.59875</ele><time>2026-07-30T19:51:44.000Z</time></trkpt>
        <trkpt lat="28.904273" lon="105.428668"><ele>286.80096</ele><time>2026-07-30T19:51:48.000Z</time></trkpt>
        <trkpt lat="28.904278" lon="105.428653"><ele>287.30875</ele><time>2026-07-30T19:51:52.000Z</time></trkpt>
        <trkpt lat="28.904278" lon="105.428652"><ele>288.1928</ele><time>2026-07-30T19:51:54.000Z</time></trkpt>
        <trkpt lat="28.904277" lon="105.42865"><ele>290.4044</ele><time>2026-07-30T19:51:58.000Z</time></trkpt>
        <trkpt lat="28.904358" lon="105.428737"><ele>288.22592</ele><time>2026-07-30T19:52:15.000Z</time></trkpt>
        <trkpt lat="28.904445" lon="105.428831"><ele>288.1728</ele><time>2026-07-30T19:52:17.000Z</time></trkpt>
        <trkpt lat="28.904446" lon="105.428835"><ele>288.52664</ele><time>2026-07-30T19:52:19.000Z</time></trkpt>
        <trkpt lat="28.904446" lon="105.428835"><ele>288.32193</ele><time>2026-07-30T19:52:21.000Z</time></trkpt>
        <trkpt lat="28.904527" lon="105.428844"><ele>287.9093</ele><time>2026-07-30T19:53:08.000Z</time></trkpt>
        <trkpt lat="28.904555" lon="105.428881"><ele>287.73254</ele><time>2026-07-30T19:53:10.000Z</time></trkpt>
        <trkpt lat="28.904555" lon="105.428881"><ele>287.78033</ele><time>2026-07-30T19:53:12.000Z</time></trkpt>
        <trkpt lat="28.904522" lon="105.428919"><ele>287.59586</ele><time>2026-07-30T19:53:22.000Z</time></trkpt>
        <trkpt lat="28.904507" lon="105.428934"><ele>287.80502</ele><time>2026-07-30T19:53:24.000Z</time></trkpt>
        <trkpt lat="28.90449" lon="105.428951"><ele>287.31168</ele><time>2026-07-30T19:53:26.000Z</time></trkpt>
        <trkpt lat="28.904476" lon="105.428968"><ele>287.27454</ele><time>2026-07-30T19:53:28.000Z</time></trkpt>
        <trkpt lat="28.904461" lon="105.428988"><ele>288.07736</ele><time>2026-07-30T19:53:30.000Z</time></trkpt>
        <trkpt lat="28.904448" lon="105.429012"><ele>287.9075</ele><time>2026-07-30T19:53:32.000Z</time></trkpt>
        <trkpt lat="28.904438" lon="105.429035"><ele>287.76608</ele><time>2026-07-30T19:53:34.000Z</time></trkpt>
        <trkpt lat="28.904427" lon="105.429058"><ele>288.58893</ele><time>2026-07-30T19:53:36.000Z</time></trkpt>
        <trkpt lat="28.904416" lon="105.429082"><ele>287.6971</ele><time>2026-07-30T19:53:38.000Z</time></trkpt>
        <trkpt lat="28.904406" lon="105.429104"><ele>287.5351</ele><time>2026-07-30T19:53:40.000Z</time></trkpt>
        <trkpt lat="28.904397" lon="105.429128"><ele>287.8779</ele><time>2026-07-30T19:53:42.000Z</time></trkpt>
        <trkpt lat="28.904388" lon="105.429148"><ele>287.18854</ele><time>2026-07-30T19:53:44.000Z</time></trkpt>
        <trkpt lat="28.904378" lon="105.429167"><ele>286.6724</ele><time>2026-07-30T19:53:46.000Z</time></trkpt>
        <trkpt lat="28.904368" lon="105.429184"><ele>286.63525</ele><time>2026-07-30T19:53:48.000Z</time></trkpt>
        <trkpt lat="28.904358" lon="105.429204"><ele>286.67758</ele><time>2026-07-30T19:53:50.000Z</time></trkpt>
        <trkpt lat="28.904351" lon="105.429222"><ele>286.7872</ele><time>2026-07-30T19:53:52.000Z</time></trkpt>
        <trkpt lat="28.904347" lon="105.429238"><ele>286.57004</ele><time>2026-07-30T19:53:54.000Z</time></trkpt>
        <trkpt lat="28.904346" lon="105.429255"><ele>286.732</ele><time>2026-07-30T19:53:56.000Z</time></trkpt>
        <trkpt lat="28.904348" lon="105.429268"><ele>287.49713</ele><time>2026-07-30T19:53:58.000Z</time></trkpt>
        <trkpt lat="28.904354" lon="105.42928"><ele>287.5345</ele><time>2026-07-30T19:54:00.000Z</time></trkpt>
        <trkpt lat="28.904363" lon="105.42929"><ele>287.66742</ele><time>2026-07-30T19:54:02.000Z</time></trkpt>
        <trkpt lat="28.904377" lon="105.429301"><ele>287.45096</ele><time>2026-07-30T19:54:04.000Z</time></trkpt>
        <trkpt lat="28.904394" lon="105.429311"><ele>287.27893</ele><time>2026-07-30T19:54:06.000Z</time></trkpt>
        <trkpt lat="28.904414" lon="105.429318"><ele>287.4268</ele><time>2026-07-30T19:54:08.000Z</time></trkpt>
        <trkpt lat="28.904444" lon="105.429329"><ele>288.13104</ele><time>2026-07-30T19:54:10.000Z</time></trkpt>
        <trkpt lat="28.904472" lon="105.429337"><ele>288.72928</ele><time>2026-07-30T19:54:12.000Z</time></trkpt>
        <trkpt lat="28.9045" lon="105.429346"><ele>288.33557</ele><time>2026-07-30T19:54:14.000Z</time></trkpt>
        <trkpt lat="28.904524" lon="105.429356"><ele>288.51666</ele><time>2026-07-30T19:54:16.000Z</time></trkpt>
        <trkpt lat="28.904544" lon="105.429365"><ele>287.9811</ele><time>2026-07-30T19:54:18.000Z</time></trkpt>
        <trkpt lat="28.904558" lon="105.429375"><ele>287.49844</ele><time>2026-07-30T19:54:20.000Z</time></trkpt>
        <trkpt lat="28.904569" lon="105.429384"><ele>287.89456</ele><time>2026-07-30T19:54:22.000Z</time></trkpt>
        <trkpt lat="28.90458" lon="105.429395"><ele>288.2158</ele><time>2026-07-30T19:54:24.000Z</time></trkpt>
        <trkpt lat="28.904591" lon="105.42941"><ele>287.9248</ele><time>2026-07-30T19:54:26.000Z</time></trkpt>
        <trkpt lat="28.9046" lon="105.429424"><ele>287.92786</ele><time>2026-07-30T19:54:28.000Z</time></trkpt>
        <trkpt lat="28.904611" lon="105.429436"><ele>288.1376</ele><time>2026-07-30T19:54:30.000Z</time></trkpt>
        <trkpt lat="28.904624" lon="105.42945"><ele>287.65234</ele><time>2026-07-30T19:54:32.000Z</time></trkpt>
        <trkpt lat="28.904635" lon="105.429463"><ele>287.7591</ele><time>2026-07-30T19:54:34.000Z</time></trkpt>
        <trkpt lat="28.904646" lon="105.429475"><ele>287.6344</ele><time>2026-07-30T19:54:36.000Z</time></trkpt>
        <trkpt lat="28.904659" lon="105.429486"><ele>287.42224</ele><time>2026-07-30T19:54:38.000Z</time></trkpt>
        <trkpt lat="28.904672" lon="105.429496"><ele>287.44293</ele><time>2026-07-30T19:54:40.000Z</time></trkpt>
        <trkpt lat="28.904687" lon="105.429506"><ele>287.5497</ele><time>2026-07-30T19:54:42.000Z</time></trkpt>
        <trkpt lat="28.904705" lon="105.429519"><ele>287.81912</ele><time>2026-07-30T19:54:44.000Z</time></trkpt>
        <trkpt lat="28.904726" lon="105.429536"><ele>287.80853</ele><time>2026-07-30T19:54:46.000Z</time></trkpt>
        <trkpt lat="28.904747" lon="105.42955"><ele>288.33966</ele><time>2026-07-30T19:54:48.000Z</time></trkpt>
        <trkpt lat="28.904769" lon="105.429565"><ele>288.38358</ele><time>2026-07-30T19:54:50.000Z</time></trkpt>
        <trkpt lat="28.904788" lon="105.429581"><ele>288.70892</ele><time>2026-07-30T19:54:52.000Z</time></trkpt>
        <trkpt lat="28.904804" lon="105.429595"><ele>288.5302</ele><time>2026-07-30T19:54:54.000Z</time></trkpt>
        <trkpt lat="28.904819" lon="105.429606"><ele>288.60858</ele><time>2026-07-30T19:54:56.000Z</time></trkpt>
        <trkpt lat="28.904835" lon="105.429614"><ele>288.85376</ele><time>2026-07-30T19:54:58.000Z</time></trkpt>
        <trkpt lat="28.904853" lon="105.429618"><ele>288.5871</ele><time>2026-07-30T19:55:00.000Z</time></trkpt>
        <trkpt lat="28.904869" lon="105.429621"><ele>288.9406</ele><time>2026-07-30T19:55:02.000Z</time></trkpt>
        <trkpt lat="28.904882" lon="105.429622"><ele>289.66595</ele><time>2026-07-30T19:55:04.000Z</time></trkpt>
        <trkpt lat="28.904895" lon="105.429622"><ele>289.58517</ele><time>2026-07-30T19:55:06.000Z</time></trkpt>
        <trkpt lat="28.904908" lon="105.42962"><ele>289.07867</ele><time>2026-07-30T19:55:08.000Z</time></trkpt>
        <trkpt lat="28.904922" lon="105.429617"><ele>289.33667</ele><time>2026-07-30T19:55:10.000Z</time></trkpt>
        <trkpt lat="28.904934" lon="105.429615"><ele>289.73672</ele><time>2026-07-30T19:55:12.000Z</time></trkpt>
        <trkpt lat="28.904947" lon="105.429615"><ele>290.1077</ele><time>2026-07-30T19:55:14.000Z</time></trkpt>
        <trkpt lat="28.904963" lon="105.429617"><ele>289.4748</ele><time>2026-07-30T19:55:16.000Z</time></trkpt>
        <trkpt lat="28.904977" lon="105.429619"><ele>289.1481</ele><time>2026-07-30T19:55:18.000Z</time></trkpt>
        <trkpt lat="28.904995" lon="105.429624"><ele>289.8731</ele><time>2026-07-30T19:55:20.000Z</time></trkpt>
        <trkpt lat="28.905016" lon="105.42963"><ele>289.70184</ele><time>2026-07-30T19:55:22.000Z</time></trkpt>
        <trkpt lat="28.905035" lon="105.429632"><ele>290.01895</ele><time>2026-07-30T19:55:24.000Z</time></trkpt>
        <trkpt lat="28.905053" lon="105.429631"><ele>289.98413</ele><time>2026-07-30T19:55:26.000Z</time></trkpt>
        <trkpt lat="28.905072" lon="105.429629"><ele>289.86176</ele><time>2026-07-30T19:55:28.000Z</time></trkpt>
        <trkpt lat="28.90509" lon="105.429624"><ele>289.8184</ele><time>2026-07-30T19:55:30.000Z</time></trkpt>
        <trkpt lat="28.905106" lon="105.429617"><ele>290.0368</ele><time>2026-07-30T19:55:32.000Z</time></trkpt>
        <trkpt lat="28.905119" lon="105.42961"><ele>289.65463</ele><time>2026-07-30T19:55:34.000Z</time></trkpt>
        <trkpt lat="28.905119" lon="105.429608"><ele>289.4784</ele><time>2026-07-30T19:55:36.000Z</time></trkpt>
        <trkpt lat="28.905119" lon="105.429651"><ele>289.53345</ele><time>2026-07-30T19:55:43.000Z</time></trkpt>
        <trkpt lat="28.905118" lon="105.429665"><ele>289.75516</ele><time>2026-07-30T19:55:45.000Z</time></trkpt>
        <trkpt lat="28.905118" lon="105.429665"><ele>289.28354</ele><time>2026-07-30T19:55:47.000Z</time></trkpt>
        <trkpt lat="28.905095" lon="105.42971"><ele>289.4162</ele><time>2026-07-30T19:55:53.000Z</time></trkpt>
        <trkpt lat="28.905086" lon="105.42974"><ele>290.44217</ele><time>2026-07-30T19:55:55.000Z</time></trkpt>
        <trkpt lat="28.905082" lon="105.429766"><ele>289.95267</ele><time>2026-07-30T19:55:57.000Z</time></trkpt>
        <trkpt lat="28.90508" lon="105.42979"><ele>290.2104</ele><time>2026-07-30T19:55:59.000Z</time></trkpt>
        <trkpt lat="28.905078" lon="105.429815"><ele>289.2874</ele><time>2026-07-30T19:56:01.000Z</time></trkpt>
        <trkpt lat="28.905077" lon="105.429836"><ele>289.83</ele><time>2026-07-30T19:56:03.000Z</time></trkpt>
        <trkpt lat="28.905079" lon="105.429863"><ele>289.6934</ele><time>2026-07-30T19:56:05.000Z</time></trkpt>
        <trkpt lat="28.905081" lon="105.42989"><ele>290.02014</ele><time>2026-07-30T19:56:07.000Z</time></trkpt>
        <trkpt lat="28.905083" lon="105.429916"><ele>290.01062</ele><time>2026-07-30T19:56:09.000Z</time></trkpt>
        <trkpt lat="28.905081" lon="105.429944"><ele>289.96872</ele><time>2026-07-30T19:56:11.000Z</time></trkpt>
        <trkpt lat="28.905072" lon="105.429967"><ele>289.8327</ele><time>2026-07-30T19:56:13.000Z</time></trkpt>
        <trkpt lat="28.905058" lon="105.429987"><ele>289.848</ele><time>2026-07-30T19:56:15.000Z</time></trkpt>
        <trkpt lat="28.905038" lon="105.430001"><ele>289.8661</ele><time>2026-07-30T19:56:17.000Z</time></trkpt>
        <trkpt lat="28.90502" lon="105.430007"><ele>291.40692</ele><time>2026-07-30T19:56:19.000Z</time></trkpt>
        <trkpt lat="28.904999" lon="105.430008"><ele>291.33087</ele><time>2026-07-30T19:56:21.000Z</time></trkpt>
        <trkpt lat="28.904977" lon="105.430005"><ele>291.76572</ele><time>2026-07-30T19:56:23.000Z</time></trkpt>
        <trkpt lat="28.904957" lon="105.430001"><ele>291.25854</ele><time>2026-07-30T19:56:25.000Z</time></trkpt>
        <trkpt lat="28.90494" lon="105.429998"><ele>291.1581</ele><time>2026-07-30T19:56:27.000Z</time></trkpt>
        <trkpt lat="28.904924" lon="105.429992"><ele>290.2516</ele><time>2026-07-30T19:56:29.000Z</time></trkpt>
        <trkpt lat="28.90491" lon="105.429986"><ele>289.3821</ele><time>2026-07-30T19:56:31.000Z</time></trkpt>
        <trkpt lat="28.904892" lon="105.429982"><ele>289.83853</ele><time>2026-07-30T19:56:33.000Z</time></trkpt>
        <trkpt lat="28.904873" lon="105.42998"><ele>289.48083</ele><time>2026-07-30T19:56:35.000Z</time></trkpt>
        <trkpt lat="28.90486" lon="105.429978"><ele>289.13666</ele><time>2026-07-30T19:56:37.000Z</time></trkpt>
        <trkpt lat="28.904852" lon="105.429976"><ele>288.94202</ele><time>2026-07-30T19:56:39.000Z</time></trkpt>
        <trkpt lat="28.904838" lon="105.42997"><ele>288.34418</ele><time>2026-07-30T19:56:41.000Z</time></trkpt>
        <trkpt lat="28.904823" lon="105.429964"><ele>288.03815</ele><time>2026-07-30T19:56:43.000Z</time></trkpt>
        <trkpt lat="28.904808" lon="105.429956"><ele>288.12857</ele><time>2026-07-30T19:56:45.000Z</time></trkpt>
        <trkpt lat="28.904789" lon="105.429941"><ele>288.1845</ele><time>2026-07-30T19:56:47.000Z</time></trkpt>
        <trkpt lat="28.904772" lon="105.429924"><ele>288.5298</ele><time>2026-07-30T19:56:49.000Z</time></trkpt>
        <trkpt lat="28.904762" lon="105.429911"><ele>288.5707</ele><time>2026-07-30T19:56:51.000Z</time></trkpt>
        <trkpt lat="28.904756" lon="105.429912"><ele>288.62524</ele><time>2026-07-30T19:56:53.000Z</time></trkpt>
        <trkpt lat="28.90474" lon="105.429901"><ele>287.4557</ele><time>2026-07-30T19:57:00.000Z</time></trkpt>
        <trkpt lat="28.904689" lon="105.429869"><ele>286.91455</ele><time>2026-07-30T19:57:06.000Z</time></trkpt>
        <trkpt lat="28.904689" lon="105.429869"><ele>286.93387</ele><time>2026-07-30T19:57:08.000Z</time></trkpt>
        <trkpt lat="28.904687" lon="105.429867"><ele>287.00342</ele><time>2026-07-30T19:57:10.000Z</time></trkpt>
        <trkpt lat="28.904631" lon="105.429828"><ele>285.63074</ele><time>2026-07-30T19:57:16.000Z</time></trkpt>
        <trkpt lat="28.904607" lon="105.429811"><ele>285.595</ele><time>2026-07-30T19:57:18.000Z</time></trkpt>
        <trkpt lat="28.904581" lon="105.429796"><ele>285.76498</ele><time>2026-07-30T19:57:20.000Z</time></trkpt>
        <trkpt lat="28.904559" lon="105.429784"><ele>285.6059</ele><time>2026-07-30T19:57:22.000Z</time></trkpt>
        <trkpt lat="28.904541" lon="105.429771"><ele>285.94705</ele><time>2026-07-30T19:57:24.000Z</time></trkpt>
        <trkpt lat="28.904522" lon="105.429757"><ele>286.59277</ele><time>2026-07-30T19:57:26.000Z</time></trkpt>
        <trkpt lat="28.904505" lon="105.429741"><ele>287.16965</ele><time>2026-07-30T19:57:28.000Z</time></trkpt>
        <trkpt lat="28.90449" lon="105.429723"><ele>287.45444</ele><time>2026-07-30T19:57:30.000Z</time></trkpt>
        <trkpt lat="28.904478" lon="105.429706"><ele>287.37662</ele><time>2026-07-30T19:57:32.000Z</time></trkpt>
        <trkpt lat="28.904467" lon="105.429689"><ele>287.42725</ele><time>2026-07-30T19:57:34.000Z</time></trkpt>
        <trkpt lat="28.904455" lon="105.42967"><ele>287.15195</ele><time>2026-07-30T19:57:36.000Z</time></trkpt>
        <trkpt lat="28.904442" lon="105.429652"><ele>286.34106</ele><time>2026-07-30T19:57:38.000Z</time></trkpt>
        <trkpt lat="28.904428" lon="105.429633"><ele>286.05582</ele><time>2026-07-30T19:57:40.000Z</time></trkpt>
        <trkpt lat="28.904412" lon="105.429609"><ele>286.01846</ele><time>2026-07-30T19:57:42.000Z</time></trkpt>
        <trkpt lat="28.904396" lon="105.429586"><ele>285.89273</ele><time>2026-07-30T19:57:44.000Z</time></trkpt>
        <trkpt lat="28.904384" lon="105.429565"><ele>285.96262</ele><time>2026-07-30T19:57:46.000Z</time></trkpt>
        <trkpt lat="28.904372" lon="105.429548"><ele>286.18936</ele><time>2026-07-30T19:57:48.000Z</time></trkpt>
        <trkpt lat="28.90436" lon="105.429535"><ele>286.89285</ele><time>2026-07-30T19:57:50.000Z</time></trkpt>
        <trkpt lat="28.904348" lon="105.429522"><ele>286.29718</ele><time>2026-07-30T19:57:52.000Z</time></trkpt>
        <trkpt lat="28.904338" lon="105.42951"><ele>285.69885</ele><time>2026-07-30T19:57:54.000Z</time></trkpt>
        <trkpt lat="28.904325" lon="105.429496"><ele>285.71902</ele><time>2026-07-30T19:57:56.000Z</time></trkpt>
        <trkpt lat="28.904314" lon="105.429485"><ele>285.85086</ele><time>2026-07-30T19:57:58.000Z</time></trkpt>
        <trkpt lat="28.904301" lon="105.429476"><ele>286.0297</ele><time>2026-07-30T19:58:00.000Z</time></trkpt>
        <trkpt lat="28.904288" lon="105.429468"><ele>285.93115</ele><time>2026-07-30T19:58:02.000Z</time></trkpt>
        <trkpt lat="28.904275" lon="105.429457"><ele>285.0904</ele><time>2026-07-30T19:58:04.000Z</time></trkpt>
        <trkpt lat="28.904262" lon="105.429452"><ele>285.38065</ele><time>2026-07-30T19:58:06.000Z</time></trkpt>
        <trkpt lat="28.904242" lon="105.429447"><ele>285.95346</ele><time>2026-07-30T19:58:08.000Z</time></trkpt>
        <trkpt lat="28.904223" lon="105.429442"><ele>286.3973</ele><time>2026-07-30T19:58:10.000Z</time></trkpt>
        <trkpt lat="28.904203" lon="105.429438"><ele>286.5645</ele><time>2026-07-30T19:58:12.000Z</time></trkpt>
        <trkpt lat="28.904184" lon="105.429435"><ele>286.211</ele><time>2026-07-30T19:58:14.000Z</time></trkpt>
        <trkpt lat="28.904168" lon="105.429432"><ele>286.36926</ele><time>2026-07-30T19:58:16.000Z</time></trkpt>
        <trkpt lat="28.904155" lon="105.429426"><ele>286.20724</ele><time>2026-07-30T19:58:18.000Z</time></trkpt>
        <trkpt lat="28.904142" lon="105.429416"><ele>286.22446</ele><time>2026-07-30T19:58:20.000Z</time></trkpt>
        <trkpt lat="28.904127" lon="105.429405"><ele>285.9577</ele><time>2026-07-30T19:58:22.000Z</time></trkpt>
        <trkpt lat="28.904116" lon="105.429395"><ele>286.2702</ele><time>2026-07-30T19:58:24.000Z</time></trkpt>
        <trkpt lat="28.904106" lon="105.429378"><ele>285.5833</ele><time>2026-07-30T19:58:26.000Z</time></trkpt>
        <trkpt lat="28.904095" lon="105.429358"><ele>285.62073</ele><time>2026-07-30T19:58:28.000Z</time></trkpt>
        <trkpt lat="28.904084" lon="105.429338"><ele>286.28476</ele><time>2026-07-30T19:58:30.000Z</time></trkpt>
        <trkpt lat="28.904073" lon="105.429331"><ele>286.57245</ele><time>2026-07-30T19:58:32.000Z</time></trkpt>
        <trkpt lat="28.904065" lon="105.429329"><ele>287.34448</ele><time>2026-07-30T19:58:34.000Z</time></trkpt>
        <trkpt lat="28.904045" lon="105.429321"><ele>286.6372</ele><time>2026-07-30T19:58:40.000Z</time></trkpt>
        <trkpt lat="28.904008" lon="105.429292"><ele>287.33606</ele><time>2026-07-30T19:59:51.000Z</time></trkpt>
        <trkpt lat="28.903995" lon="105.429283"><ele>286.75314</ele><time>2026-07-30T19:59:53.000Z</time></trkpt>
        <trkpt lat="28.904043" lon="105.429235"><ele>286.96838</ele><time>2026-07-30T20:00:03.000Z</time></trkpt>
        <trkpt lat="28.904048" lon="105.429206"><ele>287.0731</ele><time>2026-07-30T20:00:10.000Z</time></trkpt>
        <trkpt lat="28.904054" lon="105.429191"><ele>287.10223</ele><time>2026-07-30T20:00:12.000Z</time></trkpt>
        <trkpt lat="28.904069" lon="105.429165"><ele>287.22382</ele><time>2026-07-30T20:00:14.000Z</time></trkpt>
        <trkpt lat="28.904085" lon="105.429136"><ele>286.9816</ele><time>2026-07-30T20:00:16.000Z</time></trkpt>
        <trkpt lat="28.9041" lon="105.429108"><ele>286.88248</ele><time>2026-07-30T20:00:18.000Z</time></trkpt>
        <trkpt lat="28.904115" lon="105.429081"><ele>286.7888</ele><time>2026-07-30T20:00:20.000Z</time></trkpt>
        <trkpt lat="28.904128" lon="105.429054"><ele>287.20517</ele><time>2026-07-30T20:00:22.000Z</time></trkpt>
        <trkpt lat="28.90414" lon="105.429028"><ele>287.676</ele><time>2026-07-30T20:00:24.000Z</time></trkpt>
        <trkpt lat="28.904152" lon="105.429003"><ele>287.66232</ele><time>2026-07-30T20:00:26.000Z</time></trkpt>
        <trkpt lat="28.904164" lon="105.42898"><ele>287.66367</ele><time>2026-07-30T20:00:28.000Z</time></trkpt>
        <trkpt lat="28.904174" lon="105.42896"><ele>287.897</ele><time>2026-07-30T20:00:30.000Z</time></trkpt>
        <trkpt lat="28.904186" lon="105.428941"><ele>287.97873</ele><time>2026-07-30T20:00:32.000Z</time></trkpt>
        <trkpt lat="28.904194" lon="105.428925"><ele>287.82935</ele><time>2026-07-30T20:00:34.000Z</time></trkpt>
        <trkpt lat="28.904202" lon="105.428911"><ele>287.9746</ele><time>2026-07-30T20:00:36.000Z</time></trkpt>
        <trkpt lat="28.904211" lon="105.428895"><ele>288.1485</ele><time>2026-07-30T20:00:38.000Z</time></trkpt>
        <trkpt lat="28.904222" lon="105.42888"><ele>287.8949</ele><time>2026-07-30T20:00:40.000Z</time></trkpt>
        <trkpt lat="28.904233" lon="105.428865"><ele>288.19547</ele><time>2026-07-30T20:00:42.000Z</time></trkpt>
        <trkpt lat="28.904246" lon="105.428846"><ele>287.98508</ele><time>2026-07-30T20:00:44.000Z</time></trkpt>
        <trkpt lat="28.904261" lon="105.428825"><ele>287.92447</ele><time>2026-07-30T20:00:46.000Z</time></trkpt>
        <trkpt lat="28.904274" lon="105.428806"><ele>287.66855</ele><time>2026-07-30T20:00:48.000Z</time></trkpt>
        <trkpt lat="28.904287" lon="105.428787"><ele>287.79706</ele><time>2026-07-30T20:00:50.000Z</time></trkpt>
        <trkpt lat="28.9043" lon="105.428767"><ele>288.1184</ele><time>2026-07-30T20:00:52.000Z</time></trkpt>
        <trkpt lat="28.904312" lon="105.428747"><ele>288.203</ele><time>2026-07-30T20:00:54.000Z</time></trkpt>
        <trkpt lat="28.90432" lon="105.428729"><ele>287.7146</ele><time>2026-07-30T20:00:56.000Z</time></trkpt>
        <trkpt lat="28.904328" lon="105.42871"><ele>287.84592</ele><time>2026-07-30T20:00:58.000Z</time></trkpt>
        <trkpt lat="28.904334" lon="105.428688"><ele>288.56143</ele><time>2026-07-30T20:01:00.000Z</time></trkpt>
        <trkpt lat="28.904341" lon="105.428662"><ele>287.67227</ele><time>2026-07-30T20:01:02.000Z</time></trkpt>
        <trkpt lat="28.904346" lon="105.428643"><ele>287.84308</ele><time>2026-07-30T20:01:04.000Z</time></trkpt>
        <trkpt lat="28.904349" lon="105.428628"><ele>287.6085</ele><time>2026-07-30T20:01:06.000Z</time></trkpt>
        <trkpt lat="28.904355" lon="105.428613"><ele>287.44736</ele><time>2026-07-30T20:01:08.000Z</time></trkpt>
        <trkpt lat="28.904363" lon="105.428599"><ele>288.37384</ele><time>2026-07-30T20:01:10.000Z</time></trkpt>
        <trkpt lat="28.90437" lon="105.42858"><ele>287.77414</ele><time>2026-07-30T20:01:12.000Z</time></trkpt>
        <trkpt lat="28.904381" lon="105.428557"><ele>287.98758</ele><time>2026-07-30T20:01:14.000Z</time></trkpt>
        <trkpt lat="28.904393" lon="105.428533"><ele>287.4994</ele><time>2026-07-30T20:01:16.000Z</time></trkpt>
        <trkpt lat="28.904405" lon="105.428509"><ele>287.1435</ele><time>2026-07-30T20:01:18.000Z</time></trkpt>
        <trkpt lat="28.904418" lon="105.428486"><ele>286.7112</ele><time>2026-07-30T20:01:20.000Z</time></trkpt>
        <trkpt lat="28.904431" lon="105.428465"><ele>286.2308</ele><time>2026-07-30T20:01:22.000Z</time></trkpt>
        <trkpt lat="28.904445" lon="105.428445"><ele>285.35107</ele><time>2026-07-30T20:01:24.000Z</time></trkpt>
        <trkpt lat="28.904461" lon="105.428422"><ele>285.58173</ele><time>2026-07-30T20:01:26.000Z</time></trkpt>
        <trkpt lat="28.904472" lon="105.428402"><ele>285.6574</ele><time>2026-07-30T20:01:28.000Z</time></trkpt>
        <trkpt lat="28.90448" lon="105.428381"><ele>286.10672</ele><time>2026-07-30T20:01:30.000Z</time></trkpt>
        <trkpt lat="28.904487" lon="105.428356"><ele>286.333</ele><time>2026-07-30T20:01:32.000Z</time></trkpt>
        <trkpt lat="28.90449" lon="105.428333"><ele>286.49664</ele><time>2026-07-30T20:01:34.000Z</time></trkpt>
        <trkpt lat="28.904491" lon="105.42831"><ele>286.9865</ele><time>2026-07-30T20:01:36.000Z</time></trkpt>
        <trkpt lat="28.904492" lon="105.42829"><ele>286.90988</ele><time>2026-07-30T20:01:38.000Z</time></trkpt>
        <trkpt lat="28.904492" lon="105.428266"><ele>287.4015</ele><time>2026-07-30T20:01:40.000Z</time></trkpt>
        <trkpt lat="28.904494" lon="105.428243"><ele>287.90964</ele><time>2026-07-30T20:01:42.000Z</time></trkpt>
        <trkpt lat="28.904498" lon="105.428219"><ele>287.9789</ele><time>2026-07-30T20:01:44.000Z</time></trkpt>
        <trkpt lat="28.904505" lon="105.428196"><ele>287.96335</ele><time>2026-07-30T20:01:46.000Z</time></trkpt>
        <trkpt lat="28.904513" lon="105.428171"><ele>287.79495</ele><time>2026-07-30T20:01:48.000Z</time></trkpt>
        <trkpt lat="28.904526" lon="105.428147"><ele>287.029</ele><time>2026-07-30T20:01:50.000Z</time></trkpt>
        <trkpt lat="28.904541" lon="105.428127"><ele>287.14124</ele><time>2026-07-30T20:01:52.000Z</time></trkpt>
        <trkpt lat="28.904557" lon="105.42811"><ele>287.91165</ele><time>2026-07-30T20:01:54.000Z</time></trkpt>
        <trkpt lat="28.90457" lon="105.428093"><ele>287.9711</ele><time>2026-07-30T20:01:56.000Z</time></trkpt>
        <trkpt lat="28.904577" lon="105.428077"><ele>288.5878</ele><time>2026-07-30T20:01:58.000Z</time></trkpt>
        <trkpt lat="28.904579" lon="105.428064"><ele>289.18716</ele><time>2026-07-30T20:02:00.000Z</time></trkpt>
        <trkpt lat="28.904574" lon="105.428052"><ele>289.9659</ele><time>2026-07-30T20:02:02.000Z</time></trkpt>
        <trkpt lat="28.90456" lon="105.428026"><ele>290.20297</ele><time>2026-07-30T20:02:06.000Z</time></trkpt>
        <trkpt lat="28.904553" lon="105.42801"><ele>289.54413</ele><time>2026-07-30T20:02:08.000Z</time></trkpt>
        <trkpt lat="28.904549" lon="105.427995"><ele>288.99655</ele><time>2026-07-30T20:02:10.000Z</time></trkpt>
        <trkpt lat="28.904546" lon="105.427968"><ele>289.54608</ele><time>2026-07-30T20:02:14.000Z</time></trkpt>
        <trkpt lat="28.904545" lon="105.42795"><ele>289.06213</ele><time>2026-07-30T20:02:16.000Z</time></trkpt>
        <trkpt lat="28.904551" lon="105.42794"><ele>289.1769</ele><time>2026-07-30T20:02:18.000Z</time></trkpt>
        <trkpt lat="28.904599" lon="105.427865"><ele>289.01108</ele><time>2026-07-30T20:03:46.000Z</time></trkpt>
        <trkpt lat="28.904652" lon="105.427926"><ele>288.80576</ele><time>2026-07-30T20:03:54.000Z</time></trkpt>
        <trkpt lat="28.904652" lon="105.427926"><ele>288.87598</ele><time>2026-07-30T20:03:56.000Z</time></trkpt>
        <trkpt lat="28.904671" lon="105.427935"><ele>289.12112</ele><time>2026-07-30T20:04:02.000Z</time></trkpt>
        <trkpt lat="28.904657" lon="105.427827"><ele>290.12927</ele><time>2026-07-30T20:04:53.000Z</time></trkpt>
        <trkpt lat="28.904651" lon="105.427819"><ele>289.52563</ele><time>2026-07-30T20:04:55.000Z</time></trkpt>
        <trkpt lat="28.904639" lon="105.427804"><ele>289.25107</ele><time>2026-07-30T20:04:57.000Z</time></trkpt>
        <trkpt lat="28.904627" lon="105.427784"><ele>289.08548</ele><time>2026-07-30T20:05:04.000Z</time></trkpt>
        <trkpt lat="28.904622" lon="105.42777"><ele>289.56918</ele><time>2026-07-30T20:05:06.000Z</time></trkpt>
        <trkpt lat="28.904614" lon="105.427743"><ele>289.15115</ele><time>2026-07-30T20:05:08.000Z</time></trkpt>
        <trkpt lat="28.904605" lon="105.42771"><ele>289.0812</ele><time>2026-07-30T20:05:10.000Z</time></trkpt>
        <trkpt lat="28.904596" lon="105.427678"><ele>288.95645</ele><time>2026-07-30T20:05:12.000Z</time></trkpt>
        <trkpt lat="28.904589" lon="105.427652"><ele>289.9988</ele><time>2026-07-30T20:05:14.000Z</time></trkpt>
        <trkpt lat="28.904587" lon="105.42763"><ele>290.10107</ele><time>2026-07-30T20:05:16.000Z</time></trkpt>
        <trkpt lat="28.904585" lon="105.42761"><ele>290.5463</ele><time>2026-07-30T20:05:18.000Z</time></trkpt>
        <trkpt lat="28.904583" lon="105.427594"><ele>290.33304</ele><time>2026-07-30T20:05:20.000Z</time></trkpt>
        <trkpt lat="28.904578" lon="105.427577"><ele>290.29956</ele><time>2026-07-30T20:05:22.000Z</time></trkpt>
        <trkpt lat="28.904569" lon="105.42754"><ele>290.28772</ele><time>2026-07-30T20:05:26.000Z</time></trkpt>
        <trkpt lat="28.904562" lon="105.427521"><ele>290.6058</ele><time>2026-07-30T20:05:28.000Z</time></trkpt>
        <trkpt lat="28.904554" lon="105.427504"><ele>290.06924</ele><time>2026-07-30T20:05:30.000Z</time></trkpt>
        <trkpt lat="28.90455" lon="105.427489"><ele>290.20023</ele><time>2026-07-30T20:05:32.000Z</time></trkpt>
        <trkpt lat="28.90454" lon="105.42747"><ele>290.28223</ele><time>2026-07-30T20:05:36.000Z</time></trkpt>
        <trkpt lat="28.904519" lon="105.42744"><ele>290.37405</ele><time>2026-07-30T20:06:15.000Z</time></trkpt>
        <trkpt lat="28.904511" lon="105.427422"><ele>291.0403</ele><time>2026-07-30T20:06:17.000Z</time></trkpt>
        <trkpt lat="28.904511" lon="105.427403"><ele>290.8631</ele><time>2026-07-30T20:06:19.000Z</time></trkpt>
        <trkpt lat="28.90451" lon="105.427364"><ele>290.8367</ele><time>2026-07-30T20:06:22.000Z</time></trkpt>
        <trkpt lat="28.904508" lon="105.427336"><ele>290.6063</ele><time>2026-07-30T20:06:28.000Z</time></trkpt>
        <trkpt lat="28.904505" lon="105.427301"><ele>290.9738</ele><time>2026-07-30T20:06:30.000Z</time></trkpt>
        <trkpt lat="28.904502" lon="105.427261"><ele>290.53397</ele><time>2026-07-30T20:06:32.000Z</time></trkpt>
        <trkpt lat="28.904498" lon="105.427222"><ele>290.76785</ele><time>2026-07-30T20:06:34.000Z</time></trkpt>
        <trkpt lat="28.904497" lon="105.427189"><ele>290.63022</ele><time>2026-07-30T20:06:36.000Z</time></trkpt>
        <trkpt lat="28.904499" lon="105.427159"><ele>289.99454</ele><time>2026-07-30T20:06:38.000Z</time></trkpt>
        <trkpt lat="28.9045" lon="105.427129"><ele>290.30704</ele><time>2026-07-30T20:06:40.000Z</time></trkpt>
        <trkpt lat="28.904499" lon="105.427103"><ele>290.08197</ele><time>2026-07-30T20:06:42.000Z</time></trkpt>
        <trkpt lat="28.904497" lon="105.427078"><ele>290.49582</ele><time>2026-07-30T20:06:44.000Z</time></trkpt>
        <trkpt lat="28.904495" lon="105.427055"><ele>290.63315</ele><time>2026-07-30T20:06:46.000Z</time></trkpt>
        <trkpt lat="28.904495" lon="105.427033"><ele>290.55005</ele><time>2026-07-30T20:06:48.000Z</time></trkpt>
        <trkpt lat="28.904501" lon="105.427008"><ele>290.79834</ele><time>2026-07-30T20:06:50.000Z</time></trkpt>
        <trkpt lat="28.904509" lon="105.426984"><ele>291.20422</ele><time>2026-07-30T20:06:52.000Z</time></trkpt>
        <trkpt lat="28.904519" lon="105.42696"><ele>291.28497</ele><time>2026-07-30T20:06:54.000Z</time></trkpt>
        <trkpt lat="28.904527" lon="105.426938"><ele>291.34836</ele><time>2026-07-30T20:06:56.000Z</time></trkpt>
        <trkpt lat="28.904532" lon="105.426919"><ele>290.31946</ele><time>2026-07-30T20:06:58.000Z</time></trkpt>
        <trkpt lat="28.904531" lon="105.426905"><ele>290.20273</ele><time>2026-07-30T20:07:00.000Z</time></trkpt>
        <trkpt lat="28.904529" lon="105.426881"><ele>289.92038</ele><time>2026-07-30T20:07:04.000Z</time></trkpt>
        <trkpt lat="28.904537" lon="105.427002"><ele>289.95584</ele><time>2026-07-30T20:12:23.000Z</time></trkpt>
        <trkpt lat="28.904539" lon="105.427043"><ele>289.8072</ele><time>2026-07-30T20:12:25.000Z</time></trkpt>
        <trkpt lat="28.904539" lon="105.427045"><ele>289.76257</ele><time>2026-07-30T20:12:27.000Z</time></trkpt>
        <trkpt lat="28.904532" lon="105.427098"><ele>289.9062</ele><time>2026-07-30T20:12:30.000Z</time></trkpt>
        <trkpt lat="28.904523" lon="105.427151"><ele>290.67242</ele><time>2026-07-30T20:12:38.000Z</time></trkpt>
        <trkpt lat="28.904516" lon="105.427187"><ele>290.81064</ele><time>2026-07-30T20:12:40.000Z</time></trkpt>
        <trkpt lat="28.904509" lon="105.427228"><ele>290.4469</ele><time>2026-07-30T20:12:42.000Z</time></trkpt>
        <trkpt lat="28.904502" lon="105.427264"><ele>290.26498</ele><time>2026-07-30T20:12:44.000Z</time></trkpt>
        <trkpt lat="28.904503" lon="105.427295"><ele>289.7299</ele><time>2026-07-30T20:12:46.000Z</time></trkpt>
        <trkpt lat="28.904501" lon="105.427346"><ele>290.204</ele><time>2026-07-30T20:12:50.000Z</time></trkpt>
        <trkpt lat="28.904496" lon="105.427393"><ele>291.1976</ele><time>2026-07-30T20:12:54.000Z</time></trkpt>
        <trkpt lat="28.904491" lon="105.427414"><ele>291.52997</ele><time>2026-07-30T20:12:56.000Z</time></trkpt>
        <trkpt lat="28.904486" lon="105.427464"><ele>291.4666</ele><time>2026-07-30T20:13:00.000Z</time></trkpt>
        <trkpt lat="28.904489" lon="105.427482"><ele>291.97977</ele><time>2026-07-30T20:13:02.000Z</time></trkpt>
        <trkpt lat="28.904498" lon="105.427515"><ele>291.68307</ele><time>2026-07-30T20:13:06.000Z</time></trkpt>
        <trkpt lat="28.904506" lon="105.427546"><ele>291.11548</ele><time>2026-07-30T20:13:10.000Z</time></trkpt>
        <trkpt lat="28.904508" lon="105.427559"><ele>290.5905</ele><time>2026-07-30T20:13:12.000Z</time></trkpt>
        <trkpt lat="28.904503" lon="105.427593"><ele>290.8257</ele><time>2026-07-30T20:13:16.000Z</time></trkpt>
        <trkpt lat="28.904494" lon="105.427621"><ele>290.32803</ele><time>2026-07-30T20:13:20.000Z</time></trkpt>
        <trkpt lat="28.904492" lon="105.427634"><ele>289.8375</ele><time>2026-07-30T20:13:22.000Z</time></trkpt>
        <trkpt lat="28.90451" lon="105.427515"><ele>290.2393</ele><time>2026-07-30T20:13:39.000Z</time></trkpt>
      </trkseg>
  </trk>
</gpx>